[[{"header":{"parameterUnit":"m.s-1","parameterCategory":1,"la1":30.6,"la2":28.766,"lo1":-90.7593,"lo2":-88.6598,"dy":0.0162,"dx":0.0183,"nx":116,"ny":114,"refTime":"2024-02-01T06:00:00:Z","depth":0,"parameterNumber":2,"parameterNumberName":"U-component_of_WINDS"},"data":[0.0,0.0,0.0,0.0,0.0,0.0,0.0,0.0,0.0,0.0,0.0,0.0,0.0,0.0,0.0,0.0,0.0,0.0,0.0,0.0,0.0,0.0,0.0,0.0,0.0,0.0,0.0,0.0,0.0,0.0,0.0,0.0,0.0,0.0,0.0,0.0,0.0,0.0,0.0,0.0,0.0,0.0,0.0,0.0,0.0,0.0,0.0,0.0,0.0,0.0,0.0,0.0,0.0,0.0,0.0,0.0,0.0,0.0,0.0,0.0,0.0,0.0,0.0,0.0,0.0,0.0,0.0,0.0,0.0,0.0,0.0,0.0,0.0,0.0,0.0,0.0,0.0,0.0,0.0,0.0,0.0,0.0,0.0,0.0,0.0,0.0,0.0,0.0,0.0,0.0,0.0,0.0,0.0,0.0,0.0,0.0,0.0,0.0,0.0,0.0,0.0,0.0,0.0,0.0,0.0,0.0,0.0,0.0,0.0,0.0,0.0,0.0,0.0,0.0,0.0,0.0,0.0,0.0,0.0,0.0,0.0,0.0,0.0,0.0,0.0,0.0,0.0,0.0,0.0,0.0,0.0,0.0,0.0,0.0,0.0,0.0,0.0,0.0,0.0,0.0,0.0,0.0,0.0,0.0,0.0,0.0,0.0,0.0,0.0,0.0,0.0,0.0,0.0,0.0,0.0,0.0,0.0,0.0,0.0,0.0,0.0,0.0,0.0,0.0,0.0,0.0,0.0,0.0,0.0,0.0,0.0,0.0,0.0,0.0,0.0,0.0,0.0,0.0,0.0,0.0,0.0,0.0,0.0,0.0,0.0,0.0,0.0,0.0,0.0,0.0,0.0,0.0,0.0,0.0,0.0,0.0,0.0,0.0,0.0,0.0,0.0,0.0,0.0,0.0,0.0,0.0,0.0,0.0,0.0,0.0,0.0,0.0,0.0,0.0,0.0,0.0,0.0,0.0,0.0,0.0,0.0,0.0,0.0,0.0,0.0,0.0,0.0,0.0,0.0,0.0,0.0,0.0,0.0,0.0,0.0,0.0,0.0,0.0,0.0,0.0,0.0,0.0,0.0,0.0,0.0,0.0,0.0,0.0,0.0,0.0,0.0,0.0,0.0,0.0,0.0,0.0,0.0,0.0,0.0,0.0,0.0,0.0,0.0,0.0,0.0,0.0,0.0,0.0,0.0,0.0,0.0,0.0,0.0,0.0,0.0,0.0,0.0,0.0,0.0,0.0,0.0,0.0,0.0,0.0,0.0,0.0,0.0,0.0,0.0,0.0,0.0,0.0,0.0,0.0,0.0,0.0,0.0,0.0,0.0,0.0,0.0,0.0,0.0,0.0,0.0,0.0,0.0,0.0,0.0,0.0,0.0,0.0,0.0,0.0,0.0,0.0,0.0,0.0,0.0,0.0,0.0,0.0,0.0,0.0,0.0,0.0,0.0,0.0,0.0,0.0,0.0,0.0,0.0,0.0,0.0,0.0,0.0,0.0,0.0,0.0,0.0,0.0,0.0,0.0,0.0,0.0,0.0,0.0,0.0,0.0,0.0,0.0,0.0,0.0,0.0,0.0,0.0,0.0,0.0,0.0,0.0,0.0,0.0,0.0,0.0,0.0,0.0,0.0,0.0,0.0,0.0,0.0,0.0,0.0,0.0,0.0,0.0,0.0,0.0,0.0,0.0,0.0,0.0,0.0,0.0,0.0,0.0,0.0,0.0,0.0,0.0,0.0,0.0,0.0,0.0,0.0,0.0,0.0,0.0,0.0,0.0,0.0,0.0,0.0,0.0,0.0,0.0,0.0,0.0,0.0,0.0,0.0,0.0,0.0,0.0,0.0,0.0,0.0,0.0,0.0,0.0,0.0,0.0,0.0,0.0,0.0,0.0,0.0,0.0,0.0,0.0,0.0,0.0,0.0,0.0,0.0,0.0,0.0,0.0,0.0,0.0,0.0,0.0,0.0,0.0,0.0,0.0,0.0,0.0,0.0,0.0,0.0,0.0,0.0,0.0,0.0,0.0,0.0,0.0,0.0,0.0,0.0,0.0,0.0,0.0,0.0,0.0,0.0,0.0,0.0,0.0,0.0,0.0,0.0,0.0,0.0,0.0,0.0,0.0,0.0,0.0,0.0,0.0,0.0,0.0,0.0,0.0,0.0,0.0,0.0,0.0,0.0,0.0,0.0,0.0,0.0,0.0,0.0,0.0,0.0,0.0,0.0,0.0,0.0,0.0,0.0,0.0,0.0,0.0,0.0,0.0,0.0,0.0,0.0,0.0,0.0,0.0,0.0,0.0,0.0,0.0,0.0,0.0,0.0,0.0,0.0,0.0,0.0,0.0,0.0,0.0,0.0,0.0,0.0,0.0,0.0,0.0,0.0,0.0,0.0,0.0,0.0,0.0,0.0,0.0,0.0,0.0,0.0,0.0,0.0,0.0,0.0,0.0,0.0,0.0,0.0,0.0,0.0,0.0,0.0,0.0,0.0,0.0,0.0,0.0,0.0,0.0,0.0,0.0,0.0,0.0,0.0,0.0,0.0,0.0,0.0,0.0,0.0,0.0,0.0,0.0,0.0,0.0,0.0,0.0,0.0,0.0,0.0,0.0,0.0,0.0,0.0,0.0,0.0,0.0,0.0,0.0,0.0,0.0,0.0,0.0,0.0,0.0,0.0,0.0,0.0,0.0,0.0,0.0,0.0,0.0,0.0,0.0,0.0,0.0,0.0,0.0,0.0,0.0,0.0,0.0,0.0,0.0,0.0,0.0,0.0,0.0,0.0,0.0,0.0,0.0,0.0,0.0,0.0,0.0,0.0,0.0,0.0,0.0,0.0,0.0,0.0,0.0,0.0,0.0,0.0,0.0,0.0,0.0,0.0,0.0,0.0,0.0,0.0,0.0,0.0,0.0,0.0,0.0,0.0,0.0,0.0,0.0,0.0,0.0,0.0,0.0,0.0,0.0,0.0,0.0,0.0,0.0,0.0,0.0,0.0,0.0,0.0,0.0,0.0,0.0,0.0,0.0,0.0,0.0,0.0,0.0,0.0,0.0,0.0,0.0,0.0,0.0,0.0,0.0,0.0,0.0,0.0,0.0,0.0,0.0,0.0,0.0,0.0,0.0,0.0,0.0,0.0,0.0,0.0,0.0,0.0,0.0,0.0,0.0,0.0,0.0,0.0,0.0,0.0,0.0,0.0,0.0,0.0,0.0,0.0,0.0,0.0,0.0,0.0,0.0,0.0,0.0,0.0,0.0,0.0,0.0,0.0,0.0,0.0,0.0,0.0,0.0,0.0,0.0,0.0,0.0,0.0,0.0,0.0,0.0,0.0,0.0,0.0,0.0,0.0,0.0,0.0,0.0,0.0,0.0,0.0,0.0,0.0,0.0,0.0,0.0,0.0,0.0,0.0,0.0,0.0,0.0,0.0,0.0,0.0,0.0,0.0,0.0,0.0,0.0,0.0,0.0,0.0,0.0,0.0,0.0,0.0,0.0,0.0,0.0,0.0,0.0,0.0,0.0,0.0,0.0,0.0,0.0,0.0,0.0,0.0,0.0,0.0,0.0,0.0,0.0,0.0,0.0,0.0,0.0,0.0,0.0,0.0,0.0,0.0,0.0,0.0,0.0,0.0,0.0,0.0,0.0,0.0,0.0,0.0,0.0,0.0,0.0,0.0,0.0,0.0,0.0,0.0,0.0,0.0,0.0,0.0,0.0,0.0,0.0,0.0,0.0,0.0,0.0,0.0,0.0,0.0,0.0,0.0,0.0,0.0,0.0,0.0,0.0,0.0,0.0,0.0,0.0,0.0,0.0,0.0,0.0,0.0,0.0,0.0,0.0,0.0,0.0,0.0,0.0,0.0,0.0,0.0,0.0,0.0,0.0,0.0,0.0,0.0,0.0,0.0,0.0,0.0,0.0,0.0,0.0,0.0,0.0,0.0,0.0,0.0,0.0,0.0,0.0,0.0,0.0,0.0,0.0,0.0,0.0,0.0,0.0,0.0,0.0,0.0,0.0,0.0,0.0,0.0,0.0,0.0,0.0,0.0,0.0,0.0,0.0,0.0,0.0,0.0,0.0,0.0,0.0,0.0,0.0,0.0,0.0,0.0,0.0,0.0,0.0,0.0,0.0,0.0,0.0,0.0,0.0,0.0,0.0,0.0,0.0,0.0,0.0,0.0,0.0,0.0,0.0,0.0,0.0,0.0,0.0,0.0,0.0,0.0,0.0,0.0,0.0,0.0,0.0,0.0,0.0,0.0,0.0,0.0,0.0,0.0,0.0,0.0,0.0,0.0,0.0,0.0,0.0,0.0,0.0,0.0,0.0,0.0,0.0,0.0,0.0,0.0,0.0,0.0,0.0,0.0,0.0,0.0,0.0,0.0,0.0,0.0,0.0,0.0,0.0,0.0,0.0,0.0,0.0,0.0,0.0,0.0,0.0,0.0,0.0,0.0,0.0,0.0,0.0,0.0,0.0,0.0,0.0,0.0,0.0,0.0,0.0,0.0,0.0,0.0,0.0,0.0,0.0,0.0,0.0,0.0,0.0,0.0,0.0,0.0,0.0,0.0,0.0,0.0,0.0,0.0,0.0,0.0,0.0,0.0,0.0,0.0,0.0,0.0,0.0,0.0,0.0,0.0,0.0,0.0,0.0,0.0,0.0,0.0,0.0,0.0,0.0,0.0,0.0,0.0,0.0,0.0,0.0,0.0,0.0,0.0,0.0,0.0,0.0,0.0,0.0,0.0,0.0,0.0,0.0,0.0,0.0,0.0,0.0,0.0,0.0,0.0,0.0,0.0,0.0,0.0,0.0,0.0,0.0,0.0,0.0,0.0,0.0,0.0,0.0,0.0,0.0,0.0,0.0,0.0,0.0,0.0,0.0,0.0,0.0,0.0,0.0,0.0,0.0,0.0,0.0,0.0,0.0,0.0,0.0,0.0,0.0,0.0,0.0,0.0,0.0,0.0,0.0,0.0,0.0,0.0,0.0,0.0,0.0,0.0,0.0,0.0,0.0,0.0,0.0,0.0,0.0,0.0,0.0,0.0,0.0,0.0,0.0,0.0,0.0,0.0,0.0,0.0,0.0,0.0,0.0,0.0,0.0,0.0,0.0,0.0,0.0,0.0,0.0,0.0,0.0,0.0,0.0,0.0,0.0,0.0,0.0,0.0,0.0,0.0,0.0,0.0,0.0,0.0,0.0,0.0,0.0,0.0,0.0,0.0,0.0,0.0,0.0,0.0,0.0,0.0,0.0,0.0,0.0,0.0,0.0,0.0,0.0,0.0,0.0,0.0,0.0,0.0,0.0,0.0,0.0,0.0,0.0,0.0,0.0,0.0,0.0,0.0,0.0,0.0,0.0,0.0,0.0,0.0,0.0,0.0,0.0,0.0,0.0,0.0,0.0,0.0,0.0,0.0,0.0,0.0,0.0,0.0,0.0,0.0,0.0,0.0,0.0,0.0,0.0,0.0,0.0,0.0,0.0,0.0,0.0,0.0,0.0,0.0,0.0,0.0,0.0,0.0,0.0,0.0,0.0,0.0,0.0,0.0,0.0,0.0,0.0,0.0,0.0,0.0,0.0,0.0,0.0,0.0,0.0,0.0,0.0,0.0,0.0,0.0,0.0,0.0,0.0,0.0,0.0,0.0,0.0,0.0,0.0,0.0,0.0,0.0,0.0,0.0,0.0,0.0,0.0,0.0,0.0,0.0,0.0,0.0,0.0,0.0,0.0,0.0,0.0,0.0,0.0,0.0,0.0,0.0,0.0,0.0,0.0,0.0,0.0,0.0,0.0,0.0,0.0,0.0,0.0,0.0,0.0,0.0,0.0,0.0,0.0,0.0,0.0,0.0,0.0,0.0,0.0,0.0,0.0,0.0,0.0,0.0,0.0,0.0,0.0,0.0,0.0,0.0,0.0,0.0,0.0,0.0,0.0,0.0,0.0,0.0,0.0,0.0,0.0,0.0,0.0,0.0,0.0,0.0,0.0,0.0,0.0,0.0,0.0,0.0,0.0,0.0,0.0,0.0,0.0,0.0,0.0,0.0,0.0,0.0,0.0,0.0,0.0,0.0,0.0,0.0,0.0,0.0,0.0,0.0,0.0,0.0,6.2805,6.2805,0.0,0.0,0.0,0.0,0.0,0.0,0.0,0.0,0.0,0.0,0.0,0.0,0.0,0.0,0.0,0.0,0.0,0.0,0.0,0.0,0.0,0.0,0.0,0.0,0.0,0.0,0.0,0.0,0.0,0.0,0.0,0.0,0.0,0.0,6.8118,6.8083,6.8083,6.8083,6.8083,6.8083,6.8083,6.8083,6.8083,6.8083,0.0,0.0,0.0,0.0,0.0,0.0,0.0,0.0,0.0,0.0,0.0,0.0,0.0,0.0,0.0,0.0,0.0,0.0,0.0,0.0,0.0,0.0,0.0,0.0,0.0,0.0,0.0,0.0,0.0,0.0,0.0,0.0,0.0,0.0,0.0,0.0,0.0,0.0,0.0,0.0,0.0,0.0,0.0,0.0,0.0,0.0,0.0,0.0,0.0,0.0,0.0,0.0,0.0,0.0,0.0,0.0,0.0,0.0,0.0,0.0,0.0,0.0,0.0,0.0,0.0,0.0,0.0,0.0,0.0,0.0,6.2805,6.2805,0.0,0.0,0.0,0.0,0.0,0.0,0.0,0.0,0.0,0.0,0.0,0.0,0.0,0.0,0.0,0.0,0.0,0.0,0.0,0.0,0.0,0.0,0.0,7.2671,7.2671,7.2671,7.2084,7.1705,0.0,0.0,0.0,0.0,0.0,6.9153,6.8532,6.8359,6.829,6.829,6.8152,6.8083,6.8083,6.8083,6.8083,6.8083,6.8083,0.0,0.0,0.0,0.0,0.0,0.0,0.0,0.0,0.0,0.0,0.0,0.0,0.0,0.0,0.0,0.0,0.0,0.0,0.0,0.0,0.0,0.0,0.0,0.0,0.0,0.0,0.0,0.0,0.0,0.0,0.0,0.0,0.0,0.0,0.0,0.0,0.0,0.0,0.0,0.0,0.0,0.0,0.0,0.0,0.0,0.0,0.0,0.0,0.0,0.0,0.0,0.0,0.0,0.0,0.0,0.0,0.0,0.0,0.0,0.0,0.0,0.0,0.0,6.2805,6.2805,6.2805,6.2805,6.2805,6.2805,6.2805,6.2805,6.2805,6.2805,0.0,0.0,0.0,0.0,0.0,0.0,0.0,0.0,0.0,0.0,0.0,0.0,0.0,0.0,0.0,0.0,0.0,0.0,0.0,0.0,0.0,7.2671,7.2671,7.2671,7.2567,7.2533,7.2533,7.1774,7.1291,7.1187,7.0601,7.0187,7.0084,6.9463,6.9118,6.9118,6.8428,6.8083,6.8083,6.8083,6.8083,6.8083,6.8083,6.8083,6.8083,0.0,0.0,0.0,0.0,0.0,0.0,0.0,0.0,0.0,0.0,0.0,0.0,0.0,0.0,0.0,0.0,0.0,0.0,0.0,0.0,0.0,0.0,0.0,0.0,0.0,0.0,0.0,0.0,0.0,0.0,0.0,0.0,0.0,0.0,0.0,0.0,0.0,0.0,0.0,0.0,0.0,6.16,6.1768,0.0,0.0,0.0,0.0,0.0,0.0,0.0,0.0,0.0,0.0,0.0,0.0,0.0,6.2654,6.2654,6.2755,6.2805,6.2805,6.2805,6.2805,6.2805,6.2805,6.2805,6.2805,6.2805,0.0,6.2805,6.2805,0.0,0.0,0.0,0.0,0.0,0.0,0.0,0.0,0.0,0.0,0.0,0.0,0.0,0.0,0.0,0.0,0.0,0.0,0.0,0.0,0.0,7.2671,7.2671,7.2671,7.2671,7.2671,7.2671,7.236,7.1946,7.1498,7.1187,7.0808,7.0394,7.0049,6.9911,6.9911,6.9118,6.8773,6.8739,6.829,6.8083,6.8083,6.8083,6.8083,6.8083,6.8083,0.0,0.0,0.0,0.0,0.0,0.0,0.0,0.0,0.0,0.0,0.0,0.0,0.0,0.0,0.0,0.0,0.0,0.0,0.0,0.0,0.0,0.0,0.0,0.0,0.0,0.0,0.0,0.0,0.0,0.0,0.0,0.0,0.0,0.0,0.0,0.0,0.0,0.0,0.0,6.0722,6.0843,6.114,6.1315,6.1544,0.0,0.0,0.0,0.0,0.0,0.0,0.0,0.0,0.0,6.2397,6.2449,6.25,6.25,6.3042,6.335,6.335,6.3929,6.4237,6.4237,6.4237,6.4237,6.4237,6.4237,6.4237,6.4127,6.3209,6.2805,6.2805,0.0,0.0,0.0,0.0,6.2805,6.2805,0.0,0.0,0.0,0.0,0.0,0.0,0.0,0.0,0.0,0.0,0.0,0.0,7.2671,7.2671,7.2671,7.2671,7.2671,7.2671,7.2671,7.2671,7.2429,7.1808,7.1808,7.1532,7.0981,7.0774,7.0567,7.0394,6.9842,6.9566,6.9532,6.8773,6.8394,6.8394,6.8187,6.8083,6.8083,6.8083,6.8083,6.8083,0.0,0.0,0.0,0.0,0.0,0.0,0.0,0.0,0.0,0.0,0.0,0.0,0.0,0.0,0.0,0.0,0.0,0.0,0.0,0.0,0.0,0.0,0.0,0.0,0.0,0.0,0.0,0.0,0.0,0.0,0.0,0.0,0.0,0.0,0.0,0.0,0.0,6.0107,6.0135,6.0635,6.0782,6.0962,0.0,0.0,0.0,0.0,0.0,0.0,6.1914,6.2078,6.2241,6.2458,6.2566,6.2728,6.291,6.3653,6.4051,6.414,6.4867,6.5249,6.5301,6.5301,6.5301,6.5301,6.5301,6.5301,6.5228,6.398,6.3466,6.3466,6.3466,6.3466,6.3466,6.3466,6.3466,6.3466,0.0,0.0,0.0,0.0,0.0,0.0,0.0,0.0,0.0,0.0,0.0,7.2671,7.2671,7.2671,7.2671,7.2671,7.2671,7.2671,7.2671,7.2671,7.2671,7.2602,7.2602,7.2602,7.2567,7.1843,7.1084,7.0394,7.036,7.0325,7.0325,6.9566,6.9222,6.9187,6.8428,6.8083,6.8083,6.8083,6.8083,6.8083,6.8083,0.0,0.0,0.0,0.0,0.0,0.0,0.0,0.0,0.0,0.0,0.0,0.0,0.0,0.0,0.0,0.0,0.0,0.0,0.0,0.0,0.0,0.0,0.0,0.0,0.0,0.0,0.0,0.0,0.0,0.0,0.0,0.0,0.0,0.0,0.0,0.0,0.0,0.0,6.0396,6.036,0.0,0.0,0.0,0.0,6.135,6.143,6.1408,6.1152,6.1408,6.1882,6.2462,6.2903,6.3546,6.4251,6.4621,6.4785,6.4945,6.4981,6.5108,6.5301,6.5301,6.5301,6.5301,6.5301,6.5301,6.5301,6.5228,6.5191,6.5191,6.5191,6.5191,6.5191,6.5191,6.5191,6.5191,0.0,0.0,0.0,0.0,0.0,0.0,0.0,0.0,7.2671,7.2671,7.2671,7.2671,7.2671,7.2671,7.2671,7.2671,7.2671,7.2671,7.2671,7.2671,7.2671,7.2671,7.2671,7.2671,7.2671,7.2395,7.2119,7.1843,7.136,7.1118,7.1084,7.0325,6.9739,6.9256,6.898,6.8566,6.8083,6.8083,6.8083,6.8083,6.8083,6.8083,0.0,0.0,0.0,0.0,0.0,0.0,0.0,0.0,0.0,0.0,0.0,0.0,0.0,0.0,0.0,0.0,0.0,0.0,0.0,0.0,0.0,0.0,0.0,0.0,0.0,0.0,0.0,0.0,0.0,0.0,0.0,0.0,0.0,0.0,0.0,0.0,0.0,5.9818,5.9849,0.0,6.0227,6.045,6.0512,6.0512,6.1183,6.1651,6.1686,6.2546,6.3154,6.3382,6.3675,6.3899,6.4188,6.496,6.544,6.5678,6.6281,6.6699,6.6843,6.6843,6.6843,6.6843,6.6843,6.6843,6.6843,6.6843,6.6219,6.5301,6.5301,6.5301,6.5301,6.5301,6.5301,6.5301,0.0,0.0,0.0,0.0,0.0,0.0,0.0,0.0,7.2586,7.2586,7.2671,7.2671,7.2671,7.2671,7.2671,7.2671,7.2671,7.2671,7.2671,7.2671,7.2671,7.2671,7.2671,7.2671,7.2671,7.2671,7.2671,7.2671,7.2153,7.1877,7.1877,7.1118,7.0498,7.0015,6.9497,6.898,6.8463,6.8221,6.8083,6.8083,6.8083,6.8083,6.8083,0.0,0.0,0.0,0.0,0.0,0.0,0.0,0.0,0.0,0.0,0.0,0.0,0.0,0.0,0.0,0.0,0.0,0.0,0.0,0.0,0.0,0.0,0.0,0.0,0.0,0.0,0.0,0.0,0.0,0.0,0.0,0.0,0.0,0.0,0.0,5.9944,6.0319,6.0319,6.0352,6.0485,6.0618,6.0683,6.0683,6.1401,6.1905,6.2068,6.3004,6.3678,6.3964,6.4232,6.4554,6.4806,6.5524,6.6069,6.6408,6.7067,6.7524,6.7687,6.7687,6.7687,6.7687,6.7687,6.7687,6.7687,6.7687,6.7063,6.6109,6.6109,6.6109,6.6109,6.6109,6.6109,6.6109,0.0,0.0,0.0,0.0,0.0,0.0,7.1985,7.2159,7.2331,7.2331,7.2501,7.2671,7.2671,7.2671,7.2671,7.2671,7.2671,7.2671,7.2671,7.2671,7.2671,7.2671,7.2671,7.2671,7.2671,7.2671,7.2671,7.2671,7.2671,7.2671,7.2671,7.1877,7.1498,7.1429,6.998,6.9325,6.9222,6.8463,6.8118,6.8083,6.8083,6.8083,6.8083,0.0,0.0,0.0,0.0,0.0,0.0,0.0,0.0,0.0,0.0,0.0,0.0,0.0,0.0,0.0,0.0,0.0,0.0,0.0,0.0,0.0,0.0,0.0,0.0,0.0,0.0,0.0,0.0,0.0,0.0,0.0,0.0,0.0,6.1535,6.1465,6.1465,6.1849,6.171,6.171,6.1849,6.1849,6.1849,6.1849,6.202,6.2156,6.2156,6.2687,6.3335,6.4114,6.4662,6.5366,6.6269,6.6391,6.675,6.721,6.721,6.7378,6.7687,6.7687,6.7687,6.7687,6.7687,6.7687,6.7687,6.7687,6.7687,6.7687,6.7687,6.7687,6.7687,6.7687,6.7687,6.7687,0.0,0.0,0.0,0.0,0.0,0.0,7.1985,7.2159,7.2331,7.2331,7.2501,7.2671,7.2671,7.2671,7.2671,7.2671,7.2671,7.2671,7.2671,7.2671,7.2671,7.2671,7.2671,7.2671,7.2671,7.2671,7.2671,7.2671,7.2671,7.2671,7.2671,7.2464,7.205,7.1463,7.1084,7.0291,6.9256,6.9049,6.8635,6.8083,6.8083,6.8083,6.8083,0.0,0.0,0.0,0.0,0.0,0.0,0.0,0.0,0.0,0.0,0.0,0.0,0.0,0.0,0.0,0.0,0.0,0.0,0.0,0.0,0.0,0.0,0.0,0.0,0.0,0.0,0.0,0.0,0.0,0.0,0.0,6.2871,6.2492,6.1532,6.1289,6.1289,6.1465,6.1394,6.1394,6.1465,6.1465,6.1465,6.1465,6.2231,6.2822,6.296,6.3992,6.468,6.4964,6.5226,6.5426,6.5704,6.6021,6.6355,6.6831,6.7061,6.7378,6.7687,6.7687,6.7687,6.7687,6.7687,6.7687,6.7687,6.7687,6.7687,6.7687,6.7687,6.7687,6.7687,6.7687,6.7687,6.7687,0.0,0.0,0.0,0.0,0.0,0.0,7.1756,7.1985,7.2159,7.2159,7.2501,7.2671,7.2671,7.2671,7.2671,7.2671,7.2671,7.2671,7.2671,7.2671,7.2671,7.2671,7.2671,7.2671,7.2671,7.2671,7.2671,7.2671,7.2671,7.2671,7.2671,7.2671,7.2429,7.1981,7.1636,7.1015,7.0153,6.9532,6.9015,6.8566,6.8221,6.8083,6.8083,6.8083,6.8083,6.8083,6.8083,6.8083,6.8083,6.8083,0.0,0.0,0.0,0.0,0.0,0.0,0.0,0.0,0.0,0.0,0.0,0.0,0.0,0.0,0.0,0.0,0.0,0.0,0.0,0.0,0.0,0.0,0.0,0.0,6.36,6.3289,6.2393,6.2255,6.2255,6.2255,6.2255,6.2255,6.2255,6.2255,6.2255,6.2255,6.2957,6.3413,6.3625,6.4529,6.5046,6.5149,6.5247,6.5379,6.551,6.6025,6.655,6.7102,6.7819,6.8288,6.866,6.8715,6.8715,6.8715,6.8715,6.8715,6.8715,6.8715,6.8715,6.8641,0.0,0.0,0.0,0.0,6.7687,6.7687,0.0,0.0,0.0,0.0,0.0,0.0,7.1312,7.1634,7.1985,7.1985,7.2416,7.2671,7.2671,7.2671,7.2671,7.2671,7.2671,7.2671,7.2671,7.2671,7.2671,7.2671,7.2671,7.2671,7.2671,7.2671,7.2671,7.2671,7.2671,7.2671,7.2671,7.2671,7.2671,7.2636,7.1946,7.1567,7.1394,7.0084,6.9497,6.9325,6.8566,6.8187,6.8083,6.8083,6.8083,6.8083,6.8083,6.8083,6.8083,6.8083,0.0,0.0,0.0,0.0,0.0,0.0,0.0,0.0,0.0,0.0,0.0,0.0,0.0,0.0,0.0,0.0,0.0,0.0,0.0,0.0,0.0,0.0,0.0,0.0,6.36,6.36,6.36,6.36,6.36,6.36,6.36,6.36,6.36,6.36,6.36,6.36,6.3816,6.4104,6.4248,6.4673,0.0,0.0,0.0,6.5329,6.5561,6.6337,6.7088,6.7688,6.8875,6.95,6.9884,7.0054,7.011,7.011,7.011,7.011,7.011,7.011,7.011,6.9963,6.8531,6.7944,6.7944,6.7944,6.7944,6.7944,0.0,0.0,0.0,0.0,0.0,0.0,7.1413,7.1546,7.181,7.1985,7.2245,7.2501,7.2671,7.2671,7.2671,7.2671,7.2671,7.2671,7.2671,7.2671,7.2671,7.2671,7.2671,7.2671,7.2671,7.2671,7.2671,7.2671,7.2671,7.2671,7.2671,7.2671,7.2671,7.2671,7.2533,7.2084,7.1463,7.1187,7.0705,7.0118,6.936,6.867,6.8083,6.8083,6.8083,6.8083,6.8083,6.8083,6.8083,6.8083,6.8083,6.8083,6.8083,6.8083,0.0,0.0,0.0,0.0,0.0,0.0,0.0,0.0,0.0,0.0,0.0,0.0,0.0,0.0,0.0,0.0,0.0,0.0,0.0,6.36,6.36,6.36,6.36,6.36,6.36,6.36,6.36,6.36,6.36,6.36,6.36,6.36,6.43,6.4793,6.4793,6.5569,6.6063,6.6136,6.6136,6.6136,6.6209,6.6884,6.7371,6.7807,6.8723,0.0,6.9675,6.9961,7.011,7.011,7.011,7.011,7.011,7.011,7.011,7.0073,6.9743,6.9633,6.9633,6.9633,6.9633,6.9633,0.0,0.0,0.0,0.0,0.0,0.0,7.1954,7.1999,7.2042,7.1844,7.2038,7.2331,7.2501,7.2586,7.2671,7.2671,7.2671,7.2671,7.2671,7.2671,7.2671,7.2671,7.2671,7.2671,7.2671,7.2671,7.2671,7.2671,7.2671,7.2671,7.2671,7.2671,7.2671,7.2671,7.2671,7.2464,7.205,7.167,7.1291,7.0877,7.0118,6.936,6.8635,6.8256,6.8083,6.8083,6.8083,6.8083,6.8083,6.8083,6.8083,6.8083,6.8083,6.8083,6.8083,0.0,0.0,0.0,0.0,0.0,0.0,0.0,0.0,0.0,0.0,0.0,0.0,0.0,0.0,6.4408,0.0,0.0,6.3864,6.3669,6.36,6.36,6.36,6.391,6.4014,6.3634,6.391,6.4152,6.4152,6.4496,6.4738,6.4738,6.5158,6.5441,6.559,6.6011,6.6294,6.6442,6.6294,6.6294,6.6442,6.7193,6.7728,6.8115,6.9317,7.0112,7.0422,7.0843,7.1113,7.1207,7.1228,7.1284,7.1284,7.1284,7.1284,7.1284,7.1284,7.0807,7.011,7.011,7.011,7.011,0.0,0.0,0.0,0.0,0.0,0.0,0.0,7.2644,7.2428,7.1906,7.2053,7.2124,7.2245,7.2416,7.2586,7.2586,7.2671,7.2671,7.2671,7.2671,7.2671,7.2671,7.2671,7.2671,7.2671,7.2671,7.2671,7.2671,7.2671,7.2671,7.2671,7.2671,7.2671,7.2671,7.2671,7.2671,7.2636,7.1981,7.1705,7.167,7.0912,7.0256,6.9601,6.867,6.8221,6.8083,6.8083,6.8083,6.8083,6.8083,6.8083,6.8083,6.8083,6.8083,6.8083,6.8083,6.8083,0.0,0.0,0.0,0.0,0.0,0.0,0.0,0.0,0.0,6.6807,6.6221,6.5979,6.5669,6.5048,6.4945,6.4738,6.4117,6.4048,6.4048,6.4048,6.4565,6.4703,6.4117,6.4565,6.4945,6.4945,6.5497,6.5876,6.5876,6.6014,6.6159,6.6277,6.6415,6.656,6.6711,6.656,6.656,6.6711,6.7561,6.8138,6.8539,6.988,7.0745,7.1204,7.1707,7.2048,7.2299,7.2438,7.2496,7.2496,7.2496,7.2496,7.2496,7.2496,7.1725,7.055,7.055,7.055,7.055,0.0,0.0,0.0,0.0,0.0,0.0,0.0,0.0,7.2451,7.253,7.2008,7.1776,7.1985,7.2072,7.2159,7.2331,7.2586,7.2671,7.2671,7.2671,7.2671,7.2671,7.2671,7.2671,7.2671,7.2671,7.2671,7.2671,7.2671,7.2671,7.2671,7.2671,7.2671,7.2671,7.2671,7.2671,7.2671,7.2567,7.2533,7.2464,7.167,7.1325,7.1084,6.967,6.8704,6.8083,6.8083,6.8083,6.8083,6.8083,6.8083,6.8083,6.8083,6.8083,6.8083,6.8083,6.8083,6.8083,6.8083,6.8083,6.8083,6.8083,6.8118,6.8083,0.0,0.0,6.698,6.6876,6.6359,6.5842,6.5773,6.5738,6.5738,6.5635,6.5635,6.5635,6.5635,6.5704,6.5738,6.5635,6.5704,6.5738,6.5738,6.5842,6.5876,6.5876,6.6497,6.6876,6.6876,6.7497,6.792,6.792,6.792,6.792,6.792,6.8223,6.8566,6.8943,6.9564,7.0303,7.1045,7.1557,7.1927,7.2299,7.2438,7.2496,7.2496,7.2496,7.2496,7.2496,7.2496,7.2386,7.2239,7.2239,7.2239,7.2239,0.0,0.0,0.0,0.0,0.0,0.0,0.0,0.0,0.0,7.2587,7.2361,7.2076,7.1844,7.1898,7.2072,7.2331,7.2416,7.2501,7.2671,7.2671,7.2877,7.3291,7.3326,7.3533,7.3981,7.3981,7.3774,7.3326,7.3326,7.3084,7.2671,7.2671,7.2671,7.2671,7.2671,7.2671,7.2671,7.2671,7.2671,7.2636,7.2326,7.1912,7.1429,7.0808,7.0084,6.9325,6.8428,6.8083,0.0,6.8083,6.8083,6.8083,6.8083,6.8083,6.8083,6.8083,6.8083,6.8083,6.8083,6.8083,0.0,0.0,6.8083,6.8083,6.8083,6.7842,6.7635,6.7635,6.7394,6.7049,6.66,6.6531,6.6393,0.0,6.5876,6.5876,6.5876,6.6255,6.6531,6.6531,6.6911,6.7014,6.6566,6.6911,6.7187,6.7187,6.7463,6.7635,6.7635,6.7911,6.8083,6.8083,6.8083,6.8083,6.8083,6.8319,6.8474,6.8628,6.9196,6.9706,7.0236,7.0943,7.1682,7.2299,7.2438,7.2496,7.2496,7.2496,7.2496,7.2496,7.2496,7.2496,7.2496,7.2496,7.2496,7.2496,0.0,0.0,0.0,0.0,0.0,0.0,0.0,0.0,0.0,0.0,7.2983,7.2666,7.1919,7.1825,7.1985,7.2038,7.2245,7.2485,7.2896,7.2981,7.3326,7.405,7.4085,7.4361,7.4912,7.4947,7.4671,7.4085,7.4085,7.3705,7.2981,7.2981,7.2877,7.2671,7.2671,7.2671,7.2671,7.2671,7.2671,7.2671,7.2671,7.2326,7.1808,7.1567,7.1153,7.0532,6.9187,6.8601,6.8428,6.8428,6.829,6.8083,6.8083,6.8083,6.8083,6.8083,6.8083,6.8083,6.8083,0.0,0.0,6.8083,6.8083,6.8083,6.8083,6.8083,6.8083,6.8083,6.8083,6.7945,6.7394,6.729,6.7118,6.6566,6.6497,6.6497,6.6497,6.6945,6.729,6.729,6.7773,6.7876,6.7359,6.7773,6.8083,6.8083,6.8083,6.8083,6.8083,6.8083,6.8083,6.8083,6.8083,6.8083,6.8083,6.8241,6.8319,6.8397,6.8932,6.9305,6.9598,7.0611,7.1494,7.2204,7.238,7.2438,7.2496,7.2496,7.2496,7.2496,7.2496,7.2496,7.2496,7.2496,7.2496,7.2496,0.0,0.0,0.0,0.0,0.0,0.0,0.0,0.0,0.0,0.0,0.0,0.0,0.0,7.1953,7.16,7.16,7.2038,7.264,7.3395,7.3688,7.4085,7.4843,7.4912,7.4912,7.4947,7.4947,7.4912,7.4912,7.4912,7.4499,7.374,7.374,7.336,7.2671,7.2671,7.2671,7.2671,7.2671,7.2671,7.2671,7.2671,7.2671,7.2567,7.1774,7.1498,7.136,7.0601,6.9842,6.9256,6.9256,6.8739,6.8083,6.8083,6.8083,6.8083,6.8083,6.8083,6.8083,6.8083,0.0,6.8083,6.8083,6.8083,6.8083,6.8083,6.8083,6.8083,6.8083,6.8083,6.8083,6.8049,6.8049,6.8049,6.8049,6.8014,6.8014,6.8014,6.8049,6.8049,6.8049,6.8083,6.8083,0.0,6.8083,6.8083,6.8083,6.8083,6.8083,6.8083,6.8083,6.8083,6.8083,6.8083,6.8083,6.8083,6.8083,6.8162,6.8397,6.8628,6.9008,6.967,7.0745,7.1458,7.1988,7.2204,7.2416,7.2496,7.2496,7.2496,7.2496,7.2496,7.2496,7.2496,7.2496,7.2496,7.2496,0.0,0.0,0.0,0.0,0.0,0.0,0.0,0.0,0.0,0.0,0.0,0.0,0.0,0.0,0.0,0.0,7.331,7.3591,7.4219,7.4306,7.4738,7.5671,7.5706,7.5947,7.643,7.6464,7.6223,7.5706,7.5706,7.5326,7.4533,7.4016,7.3636,7.3395,7.2912,7.2671,7.2671,7.2671,7.2671,7.2671,7.2671,7.2671,7.2636,7.2395,7.2291,7.2257,0.0,7.1084,7.0015,7.0015,6.9497,6.8877,6.8877,6.8532,6.8083,6.8083,6.8083,6.8083,6.8083,0.0,6.8083,6.8083,6.8083,6.8083,6.8083,6.8083,6.8083,6.8083,6.8083,6.8083,6.8083,6.8083,6.8083,6.8083,6.8083,6.8083,6.8083,6.8083,6.8083,6.8083,6.8083,0.0,0.0,0.0,6.8083,6.8083,6.8083,6.8083,6.8083,6.8083,6.8083,6.8083,6.8083,6.8083,6.8083,6.8083,6.8162,6.8162,6.8397,6.8857,6.9598,7.02,7.0878,7.1458,7.1842,7.2024,7.2167,7.2321,7.2358,7.2358,7.2358,7.2263,7.2167,7.2084,7.1964,7.1866,0.0,0.0,0.0,0.0,0.0,0.0,0.0,0.0,0.0,0.0,0.0,0.0,0.0,0.0,0.0,0.0,0.0,7.4196,7.4706,7.4919,7.5406,7.6286,7.641,7.674,7.7223,7.7223,7.6982,7.6499,7.6499,7.612,7.5361,7.4843,7.4464,7.4154,7.3395,7.3084,7.305,7.2774,7.2671,7.2671,7.2671,7.2671,7.2671,7.2671,7.2671,0.0,7.2671,7.205,7.1153,7.0877,7.0291,6.967,6.967,6.9153,6.8463,6.8187,6.8083,6.8083,6.8083,6.8083,6.8083,6.8083,6.8083,6.8083,6.8083,6.8083,6.8187,6.8463,6.8532,6.8601,6.8877,6.8911,6.8911,6.8911,6.8911,6.8911,6.8911,6.8911,6.8911,6.8911,6.8911,6.8911,0.0,0.0,0.0,6.8152,6.8083,6.8083,6.8083,6.8359,6.8532,6.8532,6.8773,6.8808,6.8532,6.8532,6.8438,6.8241,6.8319,6.8781,6.9525,6.9778,7.027,7.0943,7.124,7.1494,7.1707,7.1866,7.1964,7.2024,7.2024,7.1866,7.1744,7.162,7.1431,7.1304,0.0,0.0,0.0,0.0,0.0,0.0,0.0,0.0,0.0,0.0,0.0,0.0,0.0,0.0,0.0,0.0,0.0,0.0,7.5,7.5493,7.6072,7.6759,7.7009,7.7223,7.7223,7.7223,7.7223,7.7223,7.7223,7.6844,7.6189,7.612,7.5706,7.4947,7.4154,7.3774,7.374,7.2981,7.2671,7.2671,7.2671,7.2671,7.2671,7.2671,7.2671,7.2671,7.2671,7.2671,7.2567,7.1808,7.105,7.0429,7.0394,6.9911,6.9187,6.8428,6.8221,6.8221,6.8221,6.8221,6.8221,6.8221,6.8221,6.8221,6.8221,6.8221,6.8428,6.9187,6.9325,6.9566,0.0,0.0,7.0394,7.0394,7.0394,7.0394,7.0394,7.0394,7.0394,0.0,0.0,0.0,0.0,0.0,0.0,6.8325,6.8221,6.8221,6.8221,6.8911,6.9325,6.9325,7.0015,7.0049,6.9325,6.9325,6.9025,6.8501,6.8501,6.8809,6.9337,6.9558,6.9955,7.041,7.0615,7.0847,7.1139,7.1139,7.1304,7.1431,7.1431,7.1368,7.1139,7.1139,7.0943,7.0678,0.0,0.0,0.0,0.0,0.0,0.0,0.0,0.0,0.0,0.0,0.0,0.0,0.0,0.0,0.0,0.0,0.0,0.0,7.5816,7.6095,7.6474,7.6793,7.7009,7.7223,7.7223,7.7223,7.7223,7.7223,7.7223,7.712,7.6913,7.6361,7.6016,7.574,7.4395,7.3774,7.374,7.2981,7.2671,7.2671,7.2671,7.2671,7.2671,7.2671,7.2671,7.2671,7.2671,7.2671,7.2636,7.2429,7.1843,7.1118,7.0567,7.0256,7.0049,6.9842,0.0,6.9808,6.9808,6.9808,6.9808,6.9808,6.9808,6.9808,6.9808,6.9808,6.9842,7.0049,6.9955,6.9942,0.0,0.0,0.0,7.0182,7.0312,0.0,7.0394,7.0394,0.0,7.0394,0.0,7.0394,7.0394,7.0394,0.0,0.0,6.9808,6.9808,6.9808,6.998,7.0118,7.0118,7.0291,7.0291,7.0118,7.0118,7.0096,6.9889,6.9889,7.0049,7.0332,7.0566,7.0558,7.0409,7.0627,7.0594,7.0407,7.0507,7.0745,7.0878,7.0878,7.0678,7.0407,7.027,7.0026,6.9635,0.0,0.0,0.0,0.0,0.0,0.0,0.0,0.0,0.0,0.0,0.0,0.0,0.0,0.0,0.0,0.0,0.0,0.0,0.0,7.6216,7.6402,7.6645,7.6918,7.7099,7.7223,7.7223,7.7223,7.7223,7.7223,7.7223,7.7223,7.6809,7.6602,7.6533,7.4981,7.4292,7.4223,7.3119,7.2671,0.0,0.0,7.2671,7.2671,7.2671,7.2671,7.2671,7.2671,7.2671,7.2671,0.0,0.0,7.1877,7.1118,7.0877,7.0808,7.0463,0.0,7.0394,7.0394,7.0394,7.0394,7.0394,7.0394,7.0394,7.0394,7.0394,7.0498,7.0643,7.0663,7.0599,7.0857,7.101,0.0,0.0,0.0,0.0,7.1394,7.1394,7.1394,0.0,7.1394,0.0,7.1394,7.1394,7.1394,0.0,7.0774,7.0394,7.0394,7.0705,7.0877,7.0877,7.1222,7.1222,7.0877,7.0532,7.0394,7.0394,7.0394,7.0557,7.0684,7.0843,7.0758,7.0651,7.0804,7.0785,7.0623,7.0378,7.0416,7.0523,7.0203,6.992,6.9635,6.9525,6.9305,6.9008,0.0,0.0,0.0,0.0,0.0,0.0,0.0,0.0,0.0,0.0,0.0,0.0,0.0,0.0,0.0,0.0,0.0,0.0,0.0,0.0,7.6216,7.6402,7.6645,7.6918,7.7133,7.7223,7.7223,7.7223,7.7223,7.7223,7.7223,7.7223,7.7223,7.7154,7.5602,7.4947,7.4843,7.3326,7.2671,7.2671,7.2671,7.2671,7.2671,0.0,7.2671,7.2671,7.2671,7.2671,7.2671,0.0,7.2671,7.2567,7.1877,7.1636,7.1532,7.0877,7.0705,7.0705,7.0705,7.0705,7.0705,7.0705,7.0705,7.0705,7.0705,7.0705,7.0795,7.1232,7.1285,7.1405,7.1883,7.2159,7.2245,7.2245,0.0,7.2671,7.2671,7.2671,7.2671,7.2671,7.2671,7.2671,7.2671,7.2671,7.2671,7.2671,7.1429,7.0705,7.0705,7.1291,7.1636,7.1636,7.2326,7.2326,7.167,7.1015,7.0705,7.0705,7.0705,7.0786,7.0995,7.0995,7.1006,7.1097,7.1097,7.1106,7.1202,7.0539,7.0336,7.0459,6.9793,6.9363,6.9212,6.9107,6.892,6.8767,0.0,0.0,0.0,0.0,0.0,0.0,0.0,0.0,0.0,0.0,7.5709,0.0,0.0,0.0,0.0,0.0,0.0,0.0,0.0,0.0,0.0,7.6216,7.6553,7.6793,7.6918,7.7133,7.7223,7.7223,7.7223,7.7223,7.7223,7.7223,7.7223,7.7154,7.5602,7.4947,7.4843,7.3326,7.2671,7.2671,7.2671,7.2671,7.2671,7.2671,0.0,0.0,7.2671,7.2671,7.2671,7.2671,7.2671,7.2671,7.2533,7.2464,7.2464,7.2326,7.2291,7.2291,7.2291,7.2291,7.2291,7.2291,7.2291,7.2291,7.2291,7.2088,0.0,7.209,7.178,7.1552,7.1654,7.1898,7.2072,7.2072,7.2416,7.2671,7.2671,7.2671,7.2671,0.0,0.0,0.0,7.2671,7.2671,0.0,0.0,7.2429,7.2291,7.2291,7.2395,7.2464,7.2464,7.2602,7.2602,7.2464,7.2326,7.2291,7.2291,7.2291,7.2291,7.2375,7.2375,7.1995,7.1373,7.1373,7.1191,7.0764,7.0625,7.0714,7.0872,7.0732,7.0619,7.0313,6.9688,6.9367,6.914,0.0,0.0,0.0,0.0,0.0,0.0,0.0,0.0,0.0,7.5709,7.5709,7.5709,0.0,0.0,0.0,0.0,0.0,0.0,0.0,0.0,0.0,0.0,7.6275,7.6553,7.6793,7.6918,7.7009,7.7223,0.0,7.7223,7.7223,7.7223,7.7223,7.7154,7.5602,7.4947,7.4843,7.3326,7.2671,7.2671,7.2671,7.2671,7.2671,7.2671,0.0,0.0,0.0,7.2671,7.2671,7.2671,7.2671,7.2671,7.2671,7.2671,7.2671,7.2671,7.2671,7.2671,7.2671,7.2671,7.2671,7.2671,7.2671,7.2671,7.2501,0.0,0.0,7.1951,7.1776,7.16,7.1457,7.1634,7.181,7.1985,7.2245,7.2501,7.2671,7.2671,0.0,7.2671,7.2671,7.2671,0.0,7.2671,7.2671,7.2671,7.2671,7.2671,7.2671,7.2671,7.2671,7.2671,7.2671,7.2671,7.2671,7.2671,7.2671,7.2671,7.2671,7.2671,7.2671,7.2671,7.2464,7.2119,7.2119,7.1995,7.1698,7.1283,7.1191,7.1238,7.0857,7.0603,7.0488,7.0142,6.9923,6.9808,0.0,0.0,0.0,0.0,0.0,0.0,0.0,7.5709,7.5709,7.5709,7.5709,7.5709,7.5709,7.5709,7.5709,0.0,0.0,0.0,0.0,0.0,0.0,0.0,0.0,0.0,7.6645,0.0,0.0,7.7099,7.7223,0.0,0.0,0.0,0.0,0.0,7.5602,7.4947,7.4843,7.3326,7.2671,0.0,0.0,7.2671,7.2671,0.0,0.0,0.0,0.0,0.0,7.2586,7.2586,7.2586,7.2586,7.2671,7.2671,7.2671,7.2671,7.2671,7.2671,7.2671,7.2671,7.2671,7.2671,7.2671,7.2586,7.2331,7.2245,7.2124,7.1688,7.16,7.1457,7.1312,7.1457,7.1688,0.0,7.2159,7.2416,7.2586,7.2671,7.2671,0.0,7.2671,0.0,7.2671,7.2671,0.0,7.2671,7.2671,7.2671,7.2671,7.2671,7.2671,7.2671,7.2671,7.2671,7.2671,7.2671,7.2671,7.2671,7.2671,7.2671,7.2671,7.2671,7.2671,7.2671,7.2671,7.2671,7.2636,7.2015,7.1739,7.1705,7.1118,7.0877,7.0843,7.067,7.0636,7.0601,0.0,0.0,0.0,0.0,0.0,0.0,0.0,7.5709,7.5709,7.5709,7.5709,7.5709,7.5709,7.5709,7.5709,0.0,0.0,0.0,0.0,0.0,0.0,0.0,0.0,0.0,0.0,0.0,0.0,7.6793,7.7099,0.0,0.0,0.0,0.0,0.0,0.0,7.4947,7.4843,7.3326,0.0,0.0,0.0,0.0,0.0,0.0,0.0,0.0,0.0,7.2331,7.2331,0.0,0.0,7.2416,7.2586,7.2671,7.2671,7.2671,0.0,0.0,7.2671,7.2671,7.2671,7.2671,7.2671,7.2586,7.2331,7.2159,7.1985,7.1688,7.1457,7.1312,7.1312,7.1457,7.16,7.16,7.2038,7.2331,7.2331,7.2586,7.2671,7.2671,0.0,0.0,7.2671,7.2671,7.2671,7.2671,7.2671,7.2671,7.2671,7.2671,7.2671,7.2671,7.2671,7.2671,7.2671,7.2671,7.2671,7.2671,7.2671,7.2671,7.2671,7.2671,7.2671,7.2671,7.2671,7.2671,7.2671,7.2602,7.2567,7.2567,7.2498,7.2464,7.2395,7.167,7.1394,7.1291,0.0,0.0,0.0,0.0,0.0,0.0,0.0,7.5709,7.5709,7.5709,7.5709,7.5709,7.5709,7.5709,7.5709,0.0,0.0,0.0,0.0,0.0,0.0,0.0,0.0,0.0,0.0,0.0,7.6553,7.6793,7.6736,0.0,0.0,0.0,0.0,0.0,0.0,7.4497,7.4188,7.3119,0.0,0.0,0.0,0.0,0.0,0.0,0.0,0.0,0.0,0.0,7.2331,7.2159,0.0,0.0,7.2245,7.2331,0.0,0.0,7.2671,7.2671,7.2671,7.2671,7.2671,7.2671,7.2671,7.2586,7.2245,7.2072,7.1898,7.1457,7.1401,7.1312,7.1312,7.1401,7.1457,7.16,7.1776,7.1951,7.2072,7.2331,7.2501,7.2501,7.2586,0.0,0.0,0.0,7.2671,7.2671,7.2671,7.2671,7.2671,7.2671,7.2671,7.2671,7.2671,7.2671,7.2671,7.2671,7.2671,7.2671,7.2671,7.2671,7.2671,7.2671,7.2671,7.2671,7.2671,7.2671,7.2671,7.2671,7.2671,7.2671,7.2671,7.2671,7.2636,7.2326,7.2188,7.2153,0.0,0.0,0.0,0.0,0.0,7.598,7.5743,7.5709,7.5709,7.5709,7.5709,7.5709,7.5709,7.5709,7.5709,7.5709,0.0,0.0,0.0,0.0,0.0,0.0,0.0,0.0,0.0,0.0,7.6275,7.6645,7.6587,7.6587,0.0,0.0,7.5971,7.5571,0.0,0.0,0.0,0.0,0.0,0.0,0.0,0.0,0.0,0.0,0.0,0.0,0.0,0.0,0.0,0.0,0.0,0.0,0.0,7.2072,7.2245,7.2501,7.2671,7.2671,7.2671,7.2671,7.2671,7.2671,7.2671,7.2501,7.2072,7.1898,7.181,7.1401,7.1312,7.1312,7.1312,7.1312,7.1401,7.1457,7.1512,7.1688,7.1898,7.2159,7.2331,0.0,0.0,0.0,0.0,7.2671,7.2671,7.2671,7.2671,7.2671,7.2671,7.2671,7.2671,7.2671,7.2671,7.2671,7.2671,7.2671,7.2671,7.2671,7.2671,7.2671,7.2671,7.2671,7.2671,7.2671,7.2671,7.2671,7.2671,7.2671,7.2671,7.2671,7.2671,7.2671,7.2671,7.2671,7.2671,7.2671,0.0,0.0,0.0,0.0,0.0,0.0,0.0,7.5709,7.5709,7.5709,7.5709,7.5709,7.5709,7.5709,7.5709,7.5709,0.0,0.0,0.0,0.0,0.0,0.0,0.0,0.0,0.0,0.0,0.0,7.6122,7.6402,7.6495,7.6495,7.5709,7.5367,7.5299,0.0,0.0,0.0,0.0,0.0,0.0,0.0,0.0,7.2331,0.0,0.0,0.0,0.0,0.0,0.0,0.0,0.0,0.0,0.0,7.1985,7.2072,7.2245,7.2501,7.2671,7.2671,7.2671,7.2671,7.2671,7.2501,7.2245,7.2072,7.1776,7.1512,7.1312,7.1312,7.1312,7.1312,7.1312,7.1312,7.1312,7.1457,7.16,7.16,7.2038,7.2331,0.0,0.0,0.0,7.2671,7.2671,7.2671,7.2671,7.2671,7.2671,7.2671,7.2671,7.2671,7.2671,7.2671,7.2671,7.2671,7.2671,7.2671,7.2671,7.2671,7.2671,7.2671,7.2671,7.2671,7.2671,7.2671,7.2671,7.2671,7.2671,7.2671,7.2671,7.2671,7.2671,7.2671,7.2671,7.2671,7.2671,0.0,0.0,0.0,0.0,0.0,0.0,0.0,7.6048,7.5709,7.5709,7.5709,7.5709,7.5709,7.5709,7.5709,7.5709,0.0,0.0,0.0,0.0,0.0,0.0,0.0,0.0,0.0,0.0,0.0,7.6122,7.5518,7.534,7.5433,7.4558,7.3946,7.3527,7.3016,7.2717,0.0,0.0,0.0,0.0,0.0,7.2245,7.2331,0.0,0.0,0.0,0.0,0.0,0.0,0.0,0.0,0.0,0.0,0.0,0.0,7.1776,7.2124,7.2416,7.2416,7.2586,7.2671,7.2501,7.2331,7.2245,7.1776,7.1688,7.1512,7.1312,7.1312,7.1312,7.1312,7.1312,7.1312,7.1312,7.1401,7.1367,7.1367,0.0,0.0,0.0,0.0,7.2671,0.0,0.0,7.2671,7.2671,7.2671,7.2671,7.2671,7.2671,7.2671,7.2671,7.2671,7.2671,7.2671,7.2671,7.2671,7.2671,7.2671,7.2671,7.2671,7.2671,7.2671,7.2671,7.2671,7.2671,7.2671,7.2671,7.2671,7.2671,7.2671,7.2671,7.2671,7.2671,7.2671,7.2671,0.0,0.0,0.0,0.0,0.0,0.0,0.0,7.6217,7.5709,7.5709,7.5709,7.5709,7.5709,7.5709,7.5709,7.5709,0.0,0.0,0.0,0.0,0.0,0.0,0.0,0.0,0.0,0.0,7.5669,7.5492,7.4924,7.4551,7.4432,7.3501,7.2925,7.2542,7.2271,7.2076,0.0,0.0,0.0,0.0,7.1985,7.1985,7.2038,0.0,0.0,0.0,0.0,0.0,0.0,0.0,0.0,0.0,0.0,0.0,0.0,0.0,7.1776,7.2038,7.2159,7.2331,7.2416,7.2245,7.2159,7.1951,7.1688,7.1512,7.1457,7.1312,7.1312,7.1312,7.1312,7.1312,7.1312,7.1312,7.1312,7.1312,7.1367,0.0,0.0,0.0,0.0,0.0,0.0,7.2671,7.2671,7.2671,7.2671,7.2671,7.2671,7.2671,7.2671,7.2671,7.2671,7.2671,7.2671,7.2671,7.2671,7.2671,7.2671,7.2671,7.2671,7.2671,7.2671,7.2671,7.2671,7.2671,0.0,7.2671,7.2671,7.2671,7.2671,7.2671,7.2671,7.2671,7.2671,7.2671,0.0,0.0,0.0,0.0,0.0,0.0,0.0,0.0,0.0,7.5709,7.5709,7.5709,7.5709,7.5709,7.5709,7.5709,0.0,0.0,0.0,0.0,0.0,0.0,0.0,0.0,0.0,7.5608,7.527,7.4525,7.4492,7.4086,7.3409,7.2665,7.2326,7.2293,7.1616,7.1367,0.0,0.0,0.0,0.0,7.181,7.181,0.0,0.0,0.0,0.0,0.0,0.0,0.0,0.0,0.0,0.0,0.0,0.0,0.0,0.0,0.0,0.0,0.0,7.1985,7.1985,7.1985,7.1776,7.16,7.16,7.1457,0.0,0.0,7.1312,7.1312,7.1312,7.1312,7.1312,7.1312,7.1312,7.1401,7.16,7.181,0.0,0.0,0.0,0.0,7.2671,7.2671,7.2671,7.2671,7.2671,7.2671,7.2671,7.2671,7.2671,7.2671,7.2671,7.2671,7.2671,7.2671,7.2671,7.2671,7.2671,7.2671,7.2671,7.2671,7.2671,7.2671,7.2671,7.2671,7.2671,7.2671,7.2671,7.2671,7.2671,7.2671,7.2671,7.2671,7.2671,7.2671,0.0,0.0,0.0,0.0,0.0,0.0,0.0,0.0,0.0,0.0,7.5709,7.5709,7.5709,7.5709,7.5709,0.0,0.0,0.0,0.0,0.0,0.0,0.0,0.0,0.0,0.0,7.4864,7.4492,7.3747,7.3206,7.2834,7.2631,7.1921,7.1582,7.1548,7.1379,0.0,0.0,0.0,0.0,0.0,7.1491,7.1546,0.0,0.0,0.0,0.0,7.16,7.1457,0.0,0.0,0.0,0.0,0.0,0.0,0.0,0.0,7.1312,7.1367,7.1491,0.0,7.1985,7.1776,7.1688,7.1512,0.0,7.1312,0.0,0.0,0.0,0.0,0.0,7.1312,7.1312,7.1312,7.1312,7.1401,7.16,0.0,0.0,0.0,0.0,0.0,7.2671,7.2671,7.2671,7.2671,7.2671,7.2671,7.2671,7.2671,7.2671,7.2671,7.2671,7.2671,7.2671,7.2671,7.2671,7.2671,7.2671,7.2671,7.2671,7.2671,7.2671,7.2671,7.2671,7.2671,7.2671,7.2671,7.2671,7.2671,7.2671,7.2671,7.2671,7.2671,7.2671,7.2671,0.0,0.0,0.0,0.0,0.0,0.0,0.0,0.0,0.0,0.0,0.0,0.0,0.0,0.0,0.0,0.0,0.0,0.0,0.0,0.0,0.0,0.0,0.0,0.0,7.4627,7.4627,7.4086,7.3003,7.2597,7.2225,7.1887,7.1515,7.1312,7.1312,7.1312,0.0,0.0,0.0,0.0,7.1312,7.1312,0.0,0.0,0.0,0.0,0.0,7.1457,7.1367,0.0,7.1312,7.1312,7.1312,0.0,0.0,0.0,0.0,7.1312,7.1312,7.1312,7.1491,7.1634,7.1457,7.1457,7.1457,7.1312,0.0,0.0,0.0,0.0,0.0,0.0,0.0,0.0,7.1312,7.1401,7.1546,0.0,0.0,0.0,0.0,0.0,7.2671,0.0,7.2671,7.2671,7.2671,7.2671,7.2671,7.2671,7.2671,7.2671,7.2671,7.2671,7.2671,7.2671,7.2671,7.2671,7.2671,7.2671,7.2671,7.2671,7.2671,7.2671,7.2671,7.2671,7.2671,7.2671,7.2671,7.2671,7.2671,7.2671,7.2671,7.2671,7.2671,7.2671,7.2671,0.0,0.0,0.0,0.0,0.0,0.0,0.0,0.0,0.0,0.0,0.0,0.0,0.0,0.0,0.0,0.0,0.0,0.0,0.0,0.0,0.0,0.0,0.0,7.5303,7.4458,7.4424,7.3713,7.2225,7.2225,7.1921,7.1312,7.1312,7.1312,7.1312,7.1312,7.1312,0.0,0.0,7.1312,7.1312,7.1312,0.0,0.0,0.0,0.0,0.0,0.0,0.0,0.0,7.1312,7.1312,7.1312,7.1312,0.0,0.0,0.0,0.0,0.0,7.1312,7.1312,7.1312,7.1312,7.1312,7.1312,7.1312,0.0,0.0,0.0,0.0,0.0,0.0,0.0,0.0,0.0,0.0,0.0,0.0,0.0,0.0,0.0,0.0,0.0,7.2671,7.2671,7.2671,7.2671,7.2671,7.2671,7.2671,7.2671,7.2671,7.2671,7.2671,7.2671,7.2671,7.2671,7.2671,7.2671,7.2671,7.2671,7.2671,7.2671,7.2671,7.2671,7.2671,7.2671,7.2671,7.2671,7.2671,7.2671,7.2671,7.2671,7.2671,7.2671,7.2671,7.2671,0.0,0.0,0.0,0.0,0.0,0.0,0.0,0.0,0.0,0.0,0.0,0.0,0.0,0.0,0.0,0.0,0.0,0.0,0.0,0.0,0.0,0.0,7.5709,7.5067,7.368,7.3646,7.2935,7.1481,7.1481,7.1413,7.1312,7.1312,7.1312,7.1312,7.1312,7.1312,7.1312,7.1312,7.1312,7.1312,7.1312,0.0,0.0,0.0,0.0,0.0,0.0,0.0,0.0,7.1312,7.1312,7.1312,7.1312,0.0,0.0,0.0,0.0,0.0,7.1312,7.1457,7.1512,7.1312,7.1312,7.1312,7.1312,0.0,0.0,0.0,0.0,0.0,0.0,0.0,0.0,0.0,0.0,0.0,0.0,0.0,0.0,0.0,0.0,7.2671,7.2671,7.2671,7.2671,7.2671,7.2671,7.2671,7.2671,7.2671,7.2671,7.2671,7.2671,7.2671,7.2671,7.2671,7.2671,7.2671,7.2671,7.2671,7.2671,7.2671,7.2671,7.2671,7.2671,7.2671,7.2671,7.2671,7.2671,7.2671,7.2671,7.2671,7.2671,7.2671,7.2671,7.2671,0.0,0.0,0.0,0.0,0.0,0.0,0.0,0.0,0.0,0.0,0.0,0.0,0.0,0.0,0.0,0.0,0.0,0.0,0.0,0.0,0.0,7.5709,7.5709,7.4999,7.351,7.3477,7.2766,7.1312,7.1312,7.1312,7.1312,7.1312,7.1312,7.1312,7.1312,7.1312,7.1312,7.1312,7.1312,7.1312,0.0,0.0,0.0,0.0,0.0,0.0,0.0,0.0,0.0,0.0,7.1312,7.1312,7.1312,0.0,0.0,0.0,0.0,0.0,7.1312,7.1457,7.16,7.1457,7.1546,7.1668,0.0,0.0,0.0,0.0,0.0,0.0,0.0,0.0,0.0,0.0,0.0,0.0,0.0,0.0,7.2671,0.0,0.0,7.2671,7.2671,7.2671,7.2671,7.2671,7.2671,7.2671,7.2671,7.2671,7.2671,7.2671,7.2671,7.2671,7.2671,7.2671,7.2671,7.2671,7.2671,7.2671,7.2671,7.2671,7.2671,7.2671,7.2671,7.2671,7.2671,7.2671,7.2671,7.2671,7.2671,7.2671,7.2671,7.2671,7.2671,7.2671,0.0,0.0,0.0,0.0,0.0,0.0,0.0,0.0,0.0,0.0,0.0,0.0,0.0,0.0,0.0,0.0,0.0,0.0,0.0,0.0,7.5709,7.5709,7.5709,7.4999,7.351,7.3477,7.2766,7.1312,7.1312,7.1312,7.1312,7.1312,7.1312,7.1312,7.1312,7.1312,7.1312,7.1312,7.1312,7.1312,0.0,0.0,0.0,0.0,0.0,0.0,0.0,0.0,0.0,0.0,0.0,0.0,0.0,0.0,0.0,7.1312,7.1312,7.1312,7.1312,7.1457,7.16,7.1688,0.0,0.0,0.0,0.0,0.0,0.0,0.0,0.0,0.0,0.0,0.0,0.0,0.0,0.0,0.0,7.2671,7.2671,7.2671,7.2671,7.2671,7.2671,7.2671,7.2671,7.2671,7.2671,7.2671,7.2671,7.2671,7.2671,7.2671,7.2671,7.2671,7.2671,7.2671,7.2671,7.2671,7.2671,7.2671,7.2671,7.2671,7.2671,7.2671,7.2671,7.2671,7.2671,7.2671,7.2671,7.2671,7.2671,7.2671,7.2671,7.2671,7.2671,7.2671,0.0,0.0,0.0,0.0,0.0,0.0,0.0,0.0,0.0,0.0,0.0,0.0,0.0,0.0,0.0,0.0,0.0,0.0,0.0,0.0,7.5709,7.5709,7.5709,7.4999,7.351,7.3477,7.2766,7.1312,7.1312,7.1312,7.1312,7.1312,7.1312,7.1312,7.1312,7.1312,7.1312,7.1312,7.1312,7.1312,7.1312,0.0,0.0,0.0,0.0,0.0,0.0,0.0,0.0,0.0,0.0,0.0,0.0,0.0,7.1312,7.1312,7.1312,7.1312,7.1312,7.1457,7.1688,7.1898,0.0,0.0,0.0,0.0,0.0,0.0,0.0,0.0,0.0,0.0,0.0,0.0,0.0,0.0,7.2671,0.0,7.2671,7.2671,7.2671,7.2671,7.2671,7.2671,7.2671,7.2671,7.2671,7.2671,7.2671,7.2671,7.2671,7.2671,7.2671,7.2671,7.2671,7.2671,7.2671,7.2671,7.2671,7.2671,7.2671,7.2671,7.2671,7.2671,7.2671,7.2671,7.2671,7.2671,7.2671,7.2671,7.2671,7.2671,7.2671,7.2671,7.2671,7.2671,0.0,0.0,0.0,0.0,0.0,0.0,0.0,0.0,0.0,0.0,0.0,0.0,0.0,0.0,0.0,0.0,0.0,0.0,0.0,0.0,7.5709,7.5709,7.5709,7.5236,7.4221,7.3713,7.2766,7.1312,7.1312,7.1312,7.1312,7.1312,7.1312,7.1312,7.1312,7.1312,0.0,7.1312,7.1312,7.1312,7.1312,7.1312,0.0,0.0,0.0,0.0,0.0,0.0,0.0,0.0,7.1312,7.1312,7.1312,7.1312,7.1312,7.1312,7.1312,7.1312,7.1457,7.1634,7.1898,7.2159,0.0,0.0,0.0,0.0,0.0,0.0,0.0,0.0,0.0,0.0,0.0,0.0,0.0,7.2671,7.2671,7.2671,7.2671,7.2671,7.2671,7.2671,7.2671,7.2671,7.2671,7.2671,7.2671,7.2671,7.2671,7.2671,7.2671,7.2671,7.2671,7.2671,7.2671,7.2671,7.2671,7.2671,7.2671,7.2671,7.2671,7.2671,7.2671,7.2671,7.2671,7.2671,7.2671,7.2671,7.2671,7.2671,7.2671,7.2671,7.2671,7.2671,7.2671,7.2671,0.0,0.0,0.0,0.0,0.0,0.0,0.0,0.0,0.0,0.0,0.0,0.0,0.0,0.0,0.0,0.0,0.0,0.0,7.5709,7.5709,7.5709,7.5709,7.5709,7.5337,7.4627,7.4119,7.3138,7.165,7.1413,7.1312,7.1312,7.1312,7.1312,7.1312,7.1312,0.0,0.0,0.0,7.1312,7.1312,7.1312,7.1312,0.0,0.0,0.0,0.0,0.0,0.0,0.0,0.0,7.1312,7.1312,7.1312,7.1312,7.1312,7.1312,7.1312,7.1457,7.1512,7.181,7.2072,7.2245,0.0,0.0,0.0,0.0,0.0,0.0,0.0,0.0,0.0,0.0,0.0,0.0,7.2671,7.2671,7.2671,7.2671,7.2671,7.2671,7.2671,7.2671,7.2671,7.2671,7.2671,7.2671,7.2671,7.2671,7.2671,7.2671,7.2671,7.2671,7.2671,7.2671,7.2671,7.2671,7.2671,7.2671,7.2671,7.2671,7.2671,7.2671,7.2671,7.2671,7.2671,7.2671,7.2671,7.2671,7.2671,7.2671,7.2671,7.2671,7.2671,7.2671,7.2671,7.2671,0.0,0.0,0.0,0.0,0.0,0.0,0.0,0.0,0.0,0.0,0.0,0.0,0.0,0.0,0.0,0.0,0.0,0.0,7.5709,7.5709,7.5709,7.5709,7.5709,7.5371,7.4627,7.4627,7.3883,7.2394,7.1684,7.1312,7.1312,7.1312,7.1312,7.1312,7.1312,0.0,0.0,0.0,7.1312,7.1312,7.1312,7.1312,7.1312,0.0,0.0,0.0,0.0,0.0,0.0,0.0,7.1312,7.1312,7.1312,7.1312,7.1312,7.1312,7.1457,7.16,7.16,7.181,7.2072,0.0,0.0,0.0,0.0,0.0,0.0,0.0,0.0,0.0,0.0,0.0,0.0,0.0,7.2671,7.2671,7.2705,7.2705,7.2705,7.2705,7.2705,7.2705,7.2705,7.2705,7.2705,7.2705,7.2705,7.2705,7.2705,7.2705,7.2705,7.2705,7.2671,7.2671,7.2671,7.2671,7.2671,7.2671,7.2671,7.2671,7.2671,7.2671,7.2671,7.2671,7.2671,7.2671,7.2671,7.2671,7.2671,7.2671,7.2671,7.2671,7.2671,7.2671,7.2671,7.2671,0.0,0.0,0.0,0.0,0.0,0.0,0.0,0.0,0.0,0.0,0.0,0.0,0.0,0.0,0.0,0.0,0.0,0.0,7.5709,7.5709,7.5709,7.5709,7.5709,7.5608,7.5371,7.4864,7.3883,7.2394,7.1684,7.1312,7.1312,7.1312,7.1312,7.1312,7.1312,0.0,0.0,0.0,7.1785,7.1345,7.1853,7.1751,7.1312,0.0,0.0,0.0,0.0,0.0,0.0,0.0,0.0,0.0,7.1312,7.1312,7.1312,7.1457,7.1512,7.1688,7.1951,0.0,0.0,0.0,0.0,0.0,0.0,0.0,0.0,0.0,0.0,0.0,0.0,0.0,0.0,7.2671,7.2671,7.2843,7.3395,7.3464,7.3671,7.4188,7.4257,7.4257,7.4257,7.4257,7.4257,7.4257,7.4257,7.4257,7.4257,7.374,7.3464,7.3464,7.2946,7.2671,7.2671,7.2671,7.2671,7.2671,7.2671,7.2671,7.2671,7.2671,7.2671,7.2671,7.2671,7.2671,7.2671,7.2671,7.2671,7.2671,7.2671,7.2671,7.2671,7.2671,7.2671,7.2671,0.0,0.0,0.0,0.0,0.0,0.0,0.0,0.0,0.0,0.0,7.916,7.8314,0.0,0.0,0.0,0.0,0.0,0.0,0.0,7.5709,7.5709,7.5709,7.5709,7.5709,7.5709,7.4999,7.4153,7.3274,7.2259,7.1616,7.1312,7.1312,7.1312,7.1312,7.1312,7.1312,0.0,0.0,7.1718,7.1345,7.1785,7.1718,7.1312,0.0,0.0,0.0,0.0,0.0,0.0,0.0,0.0,0.0,7.1312,7.1312,7.1312,7.1512,7.1688,7.1864,7.2245,0.0,0.0,0.0,0.0,0.0,0.0,0.0,0.0,0.0,0.0,0.0,0.0,0.0,0.0,7.2671,7.2912,7.3257,7.374,7.405,7.4395,7.4878,7.4947,7.4947,7.4947,7.4947,7.4947,7.4947,7.4947,7.4947,7.4947,7.4499,7.4257,7.4257,7.3498,7.3119,7.3119,7.2843,7.2671,7.2671,7.2671,7.2671,7.2671,7.2671,7.2671,7.2671,7.2671,7.2671,7.2671,7.2671,7.2671,7.2671,7.2671,7.2671,7.2671,7.2671,7.2671,7.2671,0.0,0.0,8.0209,8.0209,0.0,0.0,0.0,0.0,0.0,0.0,7.9566,7.8822,0.0,0.0,0.0,0.0,0.0,0.0,0.0,0.0,7.5709,7.5709,7.5709,7.5709,7.5709,7.5033,7.4695,7.4627,7.3138,7.2056,7.1413,7.1345,7.1312,7.1312,7.1312,7.1312,0.0,7.1379,7.1379,7.1312,7.1379,7.1379,7.1312,7.1312,0.0,0.0,0.0,0.0,0.0,0.0,0.0,0.0,7.1312,7.1312,7.1312,7.16,7.181,7.2072,0.0,0.0,0.0,0.0,0.0,0.0,0.0,0.0,0.0,0.0,0.0,0.0,0.0,7.2671,7.2671,7.2671,7.3291,7.3809,7.3878,7.4568,7.505,7.5119,7.5154,7.5154,7.5154,7.5154,7.5154,7.5154,7.5154,7.5154,7.5154,7.5085,7.505,7.505,7.4292,7.3878,7.3878,7.3222,7.2877,7.2877,7.2809,7.2774,7.2774,7.2705,7.2671,7.2671,7.2671,7.2671,7.2671,7.2671,7.2671,7.2671,7.2671,7.2671,7.2671,7.2671,7.2671,7.2671,0.0,0.0,8.0209,8.0209,0.0,0.0,0.0,0.0,0.0,0.0,0.0,0.0,0.0,0.0,0.0,0.0,0.0,0.0,0.0,0.0,7.5709,7.5709,7.5709,7.5709,7.5709,7.554,7.5202,7.4627,7.3138,7.2326,7.2157,7.1582,7.1312,7.1312,7.1312,7.1312,7.1345,7.1921,7.1853,7.1379,7.1921,7.1819,7.1312,7.1312,7.1312,0.0,0.0,0.0,0.0,0.0,0.0,0.0,7.1312,7.1312,7.1401,7.181,7.1985,7.2072,0.0,0.0,0.0,0.0,0.0,0.0,0.0,0.0,0.0,0.0,0.0,0.0,7.2671,7.2671,7.2671,7.2671,7.3291,7.3981,7.4602,7.5361,7.6085,7.6671,7.674,7.674,7.674,7.674,7.674,7.674,7.674,7.674,7.674,7.6189,7.5844,7.5844,7.5085,7.4671,7.4671,7.4533,7.4464,7.443,7.3843,7.3533,7.3533,7.2946,7.2671,7.2671,7.2671,7.2671,7.2671,7.2671,7.2671,7.2671,7.2671,7.2671,7.2671,7.2671,7.2671,7.2671,0.0,0.0,0.0,0.0,0.0,0.0,0.0,0.0,0.0,0.0,0.0,0.0,0.0,0.0,0.0,0.0,0.0,0.0,0.0,0.0,7.5709,7.5709,7.5709,7.5709,7.5709,7.5709,7.5506,7.5134,7.4018,7.3274,0.0,0.0,7.2157,7.1853,7.1853,7.165,7.1345,7.1718,7.165,7.1345,7.1718,7.165,7.1312,7.1312,7.1312,7.1312,7.1312,0.0,0.0,0.0,0.0,0.0,0.0,0.0,7.1401,7.1722,7.1898,7.2072,0.0,0.0,0.0,0.0,0.0,0.0,0.0,0.0,0.0,0.0,0.0,7.2671,7.2671,7.2671,7.2809,7.3153,7.3843,7.4602,7.5395,7.6154,7.6775,7.7189,7.7223,7.7223,7.7223,7.7223,7.7223,7.7223,7.7223,7.7223,7.7223,7.6844,7.6637,7.6637,7.5913,7.5499,7.5499,7.5119,7.4947,7.4947,7.4533,7.4326,7.4292,7.3188,7.2671,7.2671,7.2671,7.2671,7.2671,7.2671,7.2671,7.2671,7.2671,7.2671,7.2671,7.2671,7.2671,7.2671,0.0,0.0,0.0,0.0,0.0,0.0,0.0,0.0,0.0,0.0,0.0,0.0,0.0,0.0,0.0,0.0,0.0,0.0,0.0,0.0,0.0,7.5709,7.5709,7.5709,7.5709,7.5709,7.5709,7.5709,7.51,0.0,0.0,0.0,0.0,7.2597,7.2597,7.2259,7.1684,7.1548,7.1582,7.1684,7.1548,7.1582,7.1684,7.1684,7.1616,7.1515,7.1515,7.1413,7.1312,7.1312,0.0,0.0,0.0,0.0,7.1312,7.1512,7.1776,7.1985,0.0,0.0,0.0,0.0,0.0,0.0,0.0,0.0,0.0,0.0,7.2774,7.2705,7.2843,7.2877,7.3119,7.3843,7.4602,7.5326,7.6016,7.674,7.7223,7.7223,7.7223,7.7223,7.7223,7.7223,7.7223,7.7223,7.7223,7.7223,7.7223,7.7223,7.7223,7.7223,7.6637,7.6292,7.6292,7.5637,7.5326,7.5326,7.5188,7.505,7.4878,7.3636,7.305,7.305,7.305,7.305,7.305,7.305,7.305,7.305,7.305,7.305,7.305,7.2912,7.2877,7.2843,0.0,0.0,0.0,0.0,0.0,0.0,0.0,0.0,0.0,0.0,8.0209,7.9938,0.0,0.0,0.0,0.0,0.0,0.0,0.0,0.0,0.0,7.5709,7.5709,7.5709,7.5709,7.5709,7.5709,7.5709,0.0,0.0,0.0,0.0,0.0,7.3341,0.0,0.0,7.3138,7.2529,7.2631,7.3138,7.2496,7.2631,7.3206,7.3206,7.28,7.2259,7.2259,7.1853,7.1312,7.1312,7.1312,0.0,0.0,0.0,7.1312,7.1512,7.16,0.0,0.0,0.0,0.0,0.0,0.0,0.0,0.0,0.0,0.0,0.0,7.3119,7.2877,7.3533,7.3636,7.3878,7.4636,7.543,7.5982,7.6085,7.674,7.7223,7.7223,7.7223,7.7223,7.7223,7.7223,7.7223,7.7223,7.7223,7.7223,7.7223,7.7223,7.7223,7.7223,7.712,7.7085,7.7085,7.6982,7.6913,7.6913,7.6258,7.5602,7.4912,7.474,7.4636,7.4636,7.4636,7.4636,7.4636,7.4636,7.4636,7.4636,7.4636,7.4636,7.4568,7.3878,7.3636,7.3533,0.0,0.0,0.0,0.0,0.0,0.0,0.0,0.0,0.0,0.0,0.0,8.0073,0.0,0.0,0.0,7.8213,7.7367,7.6555,7.5743,7.5709,0.0,7.5709,7.5709,7.5709,7.5709,7.5709,7.5709,7.5709,0.0,0.0,0.0,7.5033,7.4492,0.0,0.0,0.0,0.0,7.3138,7.3206,7.3443,7.3138,7.3298,7.3695,7.3695,7.3492,7.322,7.322,7.2925,7.2529,7.2529,7.2529,7.2529,7.2529,0.0,0.0,0.0,7.1851,0.0,0.0,0.0,0.0,0.0,0.0,0.0,0.0,0.0,7.443,7.443,7.4154,7.405,7.4361,7.443,7.4671,7.5464,7.5878,7.6258,7.6671,7.7016,7.7223,7.7223,7.7223,7.7223,7.7223,7.7223,7.7223,7.7223,7.7223,7.7223,7.7223,7.7223,7.7223,7.7223,7.7223,7.7223,7.7223,7.7223,7.7223,7.7223,7.6878,7.6533,7.6223,7.6223,7.574,7.4947,7.4947,7.4947,7.4947,7.4947,7.4947,7.4947,7.4947,7.4947,7.4878,7.4568,7.443,7.4395,0.0,0.0,0.0,0.0,0.0,0.0,0.0,0.0,0.0,0.0,0.0,0.0,0.0,0.0,0.0,0.0,7.8111,7.7063,7.6082,7.6014,0.0,0.0,0.0,7.5709,7.5709,7.5709,7.5709,0.0,0.0,0.0,7.5709,7.5912,7.5709,0.0,7.4965,0.0,0.0,0.0,0.0,7.4018,7.3942,7.4068,7.4456,7.4548,7.4446,7.4275,7.4184,0.0,0.0,0.0,0.0,7.3477,7.3477,7.3105,0.0,0.0,0.0,0.0,0.0,0.0,0.0,0.0,0.0,0.0,0.0,0.0,7.5223,0.0,7.5361,7.5499,7.5499,7.5361,7.5499,7.6258,7.6395,7.6602,7.7154,7.7223,7.7223,7.7223,7.7223,7.7223,7.7223,7.7223,7.7223,7.7223,7.7223,7.7223,7.7223,7.7223,7.7223,7.7223,7.7223,7.7223,7.7223,7.7223,7.7223,7.7223,7.7223,7.7223,7.7223,7.7223,7.6602,7.5499,7.5499,7.5499,7.5499,7.5499,7.5499,7.5499,7.5499,7.5499,7.5499,7.5292,7.5223,7.5223,0.0,0.0,0.0,0.0,0.0,0.0,0.0,0.0,0.0,0.0,0.0,0.0,0.0,8.0175,7.987,7.916,7.9058,7.8382,7.6927,7.6826,7.6487,7.5743,7.5709,0.0,7.5709,7.5709,0.0,0.0,0.0,0.0,7.5709,7.6487,7.6826,7.6758,7.598,7.5608,7.554,0.0,0.0,0.0,7.5111,7.5374,7.5986,7.63,7.5914,7.5299,0.0,0.0,0.0,0.0,0.0,0.0,0.0,7.3443,7.3443,0.0,0.0,0.0,0.0,0.0,0.0,0.0,0.0,0.0,0.0,0.0,7.6051,7.6051,7.6602,7.712,7.712,7.6533,7.6292,7.7051,7.7154,7.7189,7.7223,7.7223,7.7223,7.7223,7.7223,7.7223,7.7223,7.7223,7.7223,7.7223,7.7223,7.7223,7.7223,7.7223,7.7223,7.7223,7.7223,7.7223,7.7223,7.7223,7.7223,7.7223,7.7223,7.7223,7.7223,7.7223,7.7189,7.712,7.712,7.712,7.712,7.712,7.712,7.712,7.712,7.712,7.7016,7.6326,7.6051,7.5947,0.0,0.0,0.0,0.0,0.0,0.0,0.0,0.0,0.0,0.0,0.0,0.0,0.0,8.0209,8.0073,7.9837,7.9397,7.8686,7.7671,7.7604,7.7266,7.6487,7.6454,7.6217,7.5709,7.5709,0.0,0.0,0.0,7.5709,7.5709,7.598,7.6115,7.6149,7.6352,7.6454,7.642,7.5642,0.0,0.0,0.0,7.5977,7.6402,0.0,0.0,0.0,0.0,0.0,0.0,0.0,0.0,0.0,0.0,0.0,0.0,0.0,0.0,0.0,0.0,0.0,0.0,7.5664,7.5948,7.6094,7.6094,7.6513,7.6844,7.6844,7.7051,7.7223,7.7223,7.7016,7.6913,7.7189,7.7223,7.7223,7.7223,7.7223,7.7223,7.7223,7.7223,7.7223,7.7223,7.7223,7.7223,7.7223,7.7223,7.7223,7.7223,7.7223,7.7223,7.7223,7.7223,7.7223,7.7223,7.7223,7.7223,7.7223,7.7223,7.7223,7.7223,7.7223,7.7223,7.7223,7.7223,7.7223,7.7223,7.7223,7.7223,7.7223,7.7223,7.7223,7.7189,7.6913,7.6844,7.6775,0.0,0.0,0.0,0.0,0.0,8.0209,0.0,0.0,0.0,0.0,0.0,0.0,0.0,0.0,8.0209,8.0209,7.9769,7.916,7.8416,7.8348,7.8044,7.7299,7.7266,7.6893,7.6115,7.6082,0.0,0.0,0.0,0.0,0.0,0.0,7.6082,7.6115,7.6657,7.6758,0.0,0.0,0.0,7.5709,0.0,0.0,7.6495,0.0,0.0,0.0,0.0,0.0,0.0,0.0,0.0,0.0,0.0,0.0,0.0,0.0,0.0,0.0,7.5018,0.0,0.0,0.0,7.6553,7.6736,7.6793,7.6918,7.7099,7.7223,7.7223,7.7223,7.7223,7.7223,7.7223,7.7223,7.7223,7.7223,7.7223,7.7223,7.7223,7.7223,7.7223,7.7223,7.7223,7.7223,7.7223,7.7223,7.7223,7.7223,7.7223,7.7223,7.7223,7.7223,7.7223,7.7223,7.7223,7.7223,7.7223,7.7223,7.7223,7.7223,7.7223,7.7223,7.7223,7.7223,7.7223,7.7223,7.7223,7.7223,7.7223,7.7223,7.7223,7.7223,7.7223,7.7223,7.7223,7.7223,0.0,8.0209,8.0209,8.0209,8.0209,8.0209,8.0209,0.0,0.0,0.0,0.0,0.0,0.0,0.0,0.0,8.0209,8.0209,7.9904,7.9194,7.916,7.8822,7.8044,7.801,7.7671,7.6961,7.6927,7.6555,0.0,0.0,0.0,0.0,0.0,7.6893,0.0,7.6893,7.6487,7.5777,0.0,7.5743,7.5743,0.0,7.6563,7.6656,0.0,0.0,0.0,7.6987,7.6862,0.0,0.0,0.0,0.0,0.0,0.0,0.0,0.0,0.0,0.0,0.0,0.0,0.0,0.0,7.6309,7.6587,7.6702,7.6793,7.6918,7.7133,7.7223,7.7223,7.7223,7.7223,7.7223,7.7223,7.7223,7.7223,7.7223,7.7223,7.7223,7.7223,7.7223,7.7223,7.7223,7.7223,7.7223,7.7223,7.7223,7.7223,7.7223,7.7223,7.7223,7.7223,7.7223,7.7223,7.7223,7.7223,7.7223,7.7223,7.7223,7.7223,7.7223,7.7223,7.7223,7.7223,7.7223,7.7223,7.7223,7.7223,7.7223,7.7223,7.7223,7.7223,7.7223,7.7223,7.7223,7.7223,8.1156,8.0547,8.0209,8.0209,8.0209,8.0209,0.0,0.0,0.0,0.0,0.0,0.0,0.0,0.0,8.0209,8.0209,8.0209,8.0107,7.9904,7.9904,7.9566,7.8822,7.8822,7.845,7.7705,7.7671,7.7333,7.6555,0.0,0.0,0.0,0.0,0.0,0.0,7.6893,7.7063,7.7333,7.6792,0.0,0.0,7.7672,7.8066,0.0,0.0,0.0,0.0,0.0,7.8753,0.0,0.0,7.7594,7.7306,0.0,0.0,0.0,0.0,0.0,0.0,7.5709,0.0,0.0,0.0,0.0,0.0,7.6587,7.6736,7.6918,7.7133,7.7223,7.7223,7.7223,7.7223,7.7223,7.7223,7.7223,7.7223,7.7223,7.7223,7.7223,7.7223,7.7223,7.7223,7.7223,7.7223,7.7223,7.7223,7.7223,7.7223,7.7223,7.7223,7.7223,7.7223,7.7223,7.7223,7.7223,7.7223,7.7223,7.7223,7.7223,7.7223,7.7223,7.7223,7.7223,7.7223,7.7223,7.7223,7.7223,7.7223,7.7223,7.7223,7.7223,7.7223,7.7223,7.7223,7.7223,7.7223,8.1494,8.0953,8.0547,8.0242,8.0209,8.0209,0.0,0.0,0.0,0.0,0.0,0.0,0.0,0.0,0.0,8.0209,8.0209,8.0209,8.0209,8.0209,8.0006,7.96,7.9566,7.9228,7.8483,7.845,7.8111,7.7367,0.0,0.0,0.0,0.0,0.0,0.0,7.7367,7.7604,0.0,0.0,0.0,0.0,7.8354,0.0,0.0,7.9314,7.95,0.0,0.0,0.0,7.9431,7.8798,7.8534,0.0,0.0,0.0,0.0,0.0,0.0,0.0,0.0,0.0,0.0,7.5709,0.0,0.0,7.6309,7.6461,7.6736,7.7009,7.7133,7.7223,7.7223,7.7223,7.7223,7.7223,7.7223,7.7223,7.7223,7.7223,7.7223,7.7223,7.7223,7.7223,7.7223,7.7223,7.7223,7.7223,7.7223,7.7223,7.7223,7.7223,7.7223,7.7223,7.7223,7.7223,7.7223,7.7223,7.7223,7.7223,7.7223,7.7223,7.7223,7.7223,7.7396,7.7706,7.7706,7.7913,7.8189,7.8189,7.7982,7.7706,7.7706,7.7706,7.7672,7.7327,7.7223,7.7223,0.0,8.146,8.119,8.0445,8.031,8.0276,0.0,0.0,0.0,0.0,0.0,0.0,0.0,0.0,0.0,0.0,8.0209,8.0209,8.0209,8.0209,8.0209,8.0209,8.0209,7.9904,7.9261,7.9228,7.8855,7.8111,0.0,0.0,0.0,0.0,0.0,7.8111,7.8111,7.8145,0.0,0.0,0.0,7.8311,7.8763,7.8955,0.0,0.0,7.9776,0.0,7.9776,7.9776,7.9741,7.9672,7.9349,0.0,0.0,0.0,0.0,0.0,7.6454,0.0,0.0,0.0,0.0,7.5709,7.5709,0.0,7.6028,7.6309,7.6495,7.6702,7.6918,7.7133,7.7133,7.7133,7.7133,7.7133,7.7133,7.7133,7.7223,7.7223,7.7223,7.7223,7.7223,7.7223,7.7223,7.7223,7.7223,7.7223,7.7292,7.7361,7.7361,7.743,7.7465,7.7465,7.7465,7.7465,7.7465,7.7465,7.7465,7.7465,7.7465,7.7465,7.7465,7.7465,7.7879,7.8534,7.8534,7.8913,7.9534,7.9603,7.9189,7.8534,7.8534,7.8534,7.843,7.7741,7.7465,7.7465,8.3118,8.2577,8.1968,8.119,8.1088,0.0,0.0,0.0,0.0,0.0,0.0,0.0,0.0,0.0,0.0,8.0209,8.0209,8.0209,8.0209,8.0209,0.0,8.0209,8.0209,8.0141,8.0006,8.0006,7.9634,7.8889,0.0,0.0,0.0,0.0,0.0,7.8889,7.8889,7.9228,0.0,0.0,0.0,7.9869,8.0365,0.0,8.0947,8.1267,8.1362,8.1362,8.1362,8.1362,8.1259,8.0603,7.9796,7.9093,0.0,0.0,0.0,7.8162,0.0,0.0,0.0,0.0,0.0,7.5709,7.5709,0.0,7.6028,7.6122,7.6216,7.6495,7.6587,7.6679,7.6679,7.6679,7.6679,7.6828,7.6918,7.6918,7.7133,7.7223,7.7223,7.7223,7.7223,7.7223,7.7223,7.7223,7.7223,7.7223,7.781,7.8189,7.8189,7.8741,7.9051,7.9051,7.9051,7.9051,7.9051,7.9051,7.9051,7.9051,7.9051,7.9051,7.9051,7.9051,7.9155,7.9293,7.9293,7.9396,7.9569,8.0155,7.9982,7.9293,7.9293,7.9293,7.9293,7.912,7.9051,7.9051,8.3558,8.3186,8.2712,8.1968,0.0,0.0,0.0,0.0,0.0,0.0,0.0,0.0,0.0,0.0,0.0,8.1291,8.0953,8.075,8.075,8.0412,0.0,8.0209,8.0209,8.0209,8.0209,8.0209,8.0006,7.9667,0.0,0.0,0.0,0.0,0.0,0.0,7.9667,7.987,0.0,0.0,8.0309,8.041,8.0808,0.0,8.12,8.162,8.181,8.181,8.181,8.181,8.1741,8.1328,8.0854,0.0,0.0,7.9891,7.9392,0.0,7.84,7.7788,0.0,0.0,0.0,7.6284,7.598,0.0,0.0,7.5994,7.6122,7.6309,7.6402,7.6495,7.6495,7.6495,7.6495,7.6645,7.6702,7.6793,7.7009,7.7133,7.7223,7.7223,7.7223,7.7223,7.7223,7.7223,7.7396,7.7775,7.8189,7.8568,7.8948,7.9327,7.95,7.95,7.95,7.95,7.95,7.95,7.95,7.95,7.95,7.95,7.95,7.95,7.9707,8.0051,8.0051,8.0293,8.0672,8.1052,8.0983,8.0603,8.0224,8.0051,8.0017,7.9638,7.95,7.95,8.3828,8.3693,8.349,8.2746,0.0,0.0,0.0,0.0,0.0,0.0,0.0,0.0,0.0,0.0,0.0,0.0,8.1866,8.1494,0.0,0.0,0.0,8.0412,8.0276,8.0209,8.0209,8.0209,8.0209,8.0209,8.0209,0.0,0.0,8.0209,0.0,0.0,8.0209,0.0,0.0,0.0,0.0,8.0714,0.0,8.1244,8.1102,8.162,8.181,8.181,8.181,8.181,8.181,8.181,8.181,8.181,8.1524,8.1077,0.0,0.0,0.0,0.0,0.0,0.0,0.0,7.7096,7.6521,7.5912,0.0,0.0,0.0,7.6028,7.6216,7.6309,7.6309,7.6309,7.6402,7.6402,7.6553,7.6702,7.6702,7.6918,7.7133,7.7223,7.7223,7.7223,7.7223,7.7223,7.7534,7.8361,7.8534,7.8948,7.9672,7.9879,7.9948,7.9948,7.9948,7.9948,7.9948,7.9948,7.9948,7.9948,7.9948,7.9948,7.9948,7.9948,8.0293,8.0845,8.0845,8.1224,8.181,8.181,8.181,8.1741,8.1086,8.0845,8.0776,8.0155,7.9948,7.9948,8.4505,8.4505,8.4268,8.349,0.0,0.0,0.0,8.2408,0.0,0.0,0.0,0.0,0.0,0.0,0.0,0.0,0.0,0.0,8.2272,0.0,0.0,0.0,8.0547,8.0209,8.0209,8.0209,8.0209,8.0209,8.0209,8.0209,8.0209,8.0209,8.0209,0.0,8.0209,0.0,0.0,0.0,8.1156,0.0,8.2208,8.2101,0.0,8.1715,8.181,8.181,8.181,8.181,8.181,0.0,8.181,8.181,0.0,8.1741,8.1482,8.0966,0.0,0.0,0.0,7.845,7.7874,7.7874,7.7299,7.6758,7.6758,0.0,7.5709,7.5709,0.0,7.5805,7.5805,0.0,0.0,7.6122,7.6122,7.6309,7.6495,7.6587,7.6771,7.7133,7.7223,7.7223,7.7223,7.7223,7.7534,7.8361,7.9017,7.9707,8.0465,8.1155,8.1535,8.1535,8.1535,8.1535,8.1535,8.1535,8.1535,8.1535,8.1535,8.1535,8.1535,8.1535,8.1569,8.1672,8.1672,8.1707,8.181,8.181,8.181,8.181,8.1707,8.1672,8.1672,8.1569,8.1535,8.1535,8.464,8.464,8.4539,8.42,0.0,0.0,8.3727,8.3693,8.3693,0.0,0.0,0.0,0.0,0.0,0.0,0.0,0.0,0.0,0.0,0.0,0.0,0.0,0.0,0.0,0.0,8.1494,8.1494,8.1494,8.1494,8.1494,8.1494,8.1494,8.1494,0.0,8.1494,0.0,8.1494,0.0,0.0,0.0,0.0,0.0,0.0,8.2761,8.299,8.3087,8.3087,8.3087,8.3087,8.3087,8.3087,8.3018,8.2569,8.2431,8.2267,8.1434,8.0863,8.0429,8.0035,7.9293,7.8653,7.8653,7.8077,7.7536,7.7536,7.6961,7.6386,7.6386,0.0,0.0,0.0,0.0,0.0,0.0,7.6028,7.6122,7.6216,7.6402,7.6587,7.6771,7.6918,7.7009,7.7223,7.7223,7.7741,7.8948,7.9327,8.0051,8.1224,8.1638,8.181,8.181,8.181,8.181,8.181,8.181,8.181,8.181,8.181,8.181,8.181,8.181,8.181,8.181,8.181,8.181,8.181,8.181,8.181,8.181,8.181,8.181,8.181,8.181,8.181,8.181,8.464,0.0,0.0,0.0,0.0,0.0,8.464,8.464,0.0,0.0,0.0,0.0,8.464,8.464,0.0,0.0,0.0,8.3795,0.0,0.0,8.2712,0.0,0.0,0.0,0.0,0.0,8.2408,8.2408,8.2408,8.2408,8.2408,8.2408,8.2408,8.2408,0.0,8.2408,8.2408,0.0,0.0,8.2746,8.3123,8.3432,8.367,8.3663,8.3822,8.4018,8.4018,8.4018,8.4018,8.4018,8.4018,8.3914,8.3397,8.3225,8.299,8.228,8.1743,8.1312,8.1115,8.0272,7.9497,7.9497,7.8955,7.828,7.828,7.7739,7.7198,7.7198,7.6589,0.0,0.0,0.0,7.5709,7.5709,0.0,7.5994,7.5994,7.6216,7.6309,7.6495,7.6645,7.6828,7.7043,7.7306,7.7995,7.9431,7.9707,8.0396,8.1741,8.181,8.181,8.181,8.181,8.181,8.181,8.181,8.181,8.181,8.181,8.181,8.181,8.181,8.181,8.181,8.181,8.181,8.181,8.181,8.181,8.181,8.181,8.181,8.181,8.181,8.181,8.181,8.464,8.464,0.0,0.0,0.0,0.0,0.0,0.0,0.0,0.0,0.0,0.0,0.0,0.0,0.0,0.0,0.0,8.4573,8.4573,0.0,8.3456,0.0,0.0,0.0,0.0,0.0,0.0,8.2408,8.2408,8.2408,8.2408,8.2408,8.2408,8.2408,8.2408,8.2408,8.2475,8.3152,8.3456,8.3524,8.4268,8.4785,8.493,8.4274,8.4018,8.4018,8.4018,8.4018,8.4018,8.4018,8.4018,8.4018,8.3983,8.3983,8.3886,8.3655,8.3041,8.236,8.2163,8.1319,8.0576,8.0576,7.9799,7.9058,7.9058,7.8483,7.7942,7.7942,7.7367,7.686,7.686,7.6217,7.5709,7.5709,7.5709,0.0,0.0,7.5709,7.5899,7.6402,7.6495,7.6587,7.6793,7.748,7.8362,7.9465,8.0189,8.0948,8.1776,8.181,8.181,8.181,8.181,8.181,8.181,8.181,8.181,8.181,8.181,8.181,8.181,8.181,8.181,8.181,8.181,8.181,8.181,8.181,8.181,8.181,8.181,8.181,8.181,8.181,8.181,8.181,8.464,0.0,0.0,0.0,0.0,0.0,0.0,8.464,0.0,0.0,0.0,0.0,0.0,0.0,8.464,0.0,0.0,8.464,8.464,8.4877,0.0,0.0,0.0,8.4403,0.0,0.0,0.0,0.0,0.0,0.0,8.3862,8.3862,8.3862,8.3896,0.0,8.464,0.0,0.0,0.0,0.0,0.0,8.6418,8.6496,8.5583,8.5236,8.5336,8.5436,8.5535,8.5535,8.5535,8.5535,8.5432,8.4949,8.4811,8.4708,8.4058,8.3517,8.3247,8.3114,8.2402,8.1623,8.1623,8.0879,8.0137,8.0137,7.9361,7.872,7.872,7.8145,7.7638,7.7638,7.7401,7.7063,7.6555,7.6487,7.6318,0.0,7.5709,7.5805,7.5899,7.6122,7.6368,7.6793,7.7514,7.8396,7.9465,8.0189,8.0983,8.1776,8.181,8.181,8.181,8.181,8.181,8.181,8.181,8.181,8.181,8.181,8.181,8.181,8.181,8.181,8.181,8.181,8.181,8.181,8.181,8.181,8.181,8.181,8.181,8.181,8.181,8.181,8.181,8.464,8.464,8.464,0.0,0.0,0.0,0.0,0.0,0.0,0.0,8.464,0.0,8.464,0.0,8.5046,0.0,8.5283,8.5452,8.5452,8.5892,0.0,8.5452,8.5926,0.0,0.0,0.0,0.0,0.0,0.0,8.5452,8.5452,8.5452,8.5452,8.5452,0.0,8.6196,8.623,0.0,8.6907,0.0,0.0,8.7199,8.7098,8.6537,8.6303,8.6268,8.6196,8.6194,8.6294,8.6294,8.6294,8.6225,8.5742,8.5604,8.5501,8.4984,8.454,8.4136,8.4136,8.3453,8.2573,8.2573,8.2033,8.1424,8.1152,8.061,8.0103,7.9865,7.9186,7.8676,7.8676,7.8341,7.8036,7.7561,7.7363,7.7029,0.0,7.6115,7.6014,7.5743,7.5805,7.6284,7.7022,7.7834,7.8681,7.9844,8.0603,8.1259,8.1776,8.181,8.181,8.181,8.181,8.181,8.181,8.181,8.181,8.181,8.181,8.181,8.181,8.181,8.181,8.181,8.181,8.181,8.181,8.2086,8.219,8.2224,8.25,8.2604,8.2569,8.2293,8.2362,8.2604,8.464,8.464,8.464,8.464,8.464,0.0,0.0,0.0,8.464,0.0,8.4674,8.4708,8.4742,8.5418,8.5824,8.5824,8.6501,0.0,8.6907,8.6941,0.0,0.0,8.6941,8.6941,8.6907,0.0,0.0,0.0,0.0,0.0,8.6907,8.6907,8.6907,8.6907,8.6941,0.0,8.6974,8.7008,8.7008,8.7008,8.7008,8.7008,8.7008,8.7267,8.7219,8.692,8.6268,8.6196,8.6432,8.6432,8.6432,8.6432,8.6432,8.6432,8.6432,8.6363,8.5846,8.5294,8.5259,8.4476,8.3659,8.3659,8.3426,8.302,8.2303,8.2132,8.1961,8.1244,8.0526,8.0014,7.998,7.9206,7.8502,7.8434,7.8206,7.7739,7.7063,7.6961,7.6657,7.5912,7.5811,7.6272,7.752,7.8306,7.9248,8.0475,8.1362,8.181,8.181,8.181,8.181,8.181,8.181,8.181,8.181,8.181,8.181,8.181,8.181,8.181,8.181,8.1845,8.1845,8.1845,8.1879,8.1914,8.1948,8.2673,8.2949,8.3018,8.3742,8.4018,8.3983,8.3225,8.3397,8.4018,8.464,8.464,8.464,8.464,8.464,8.464,0.0,0.0,0.0,0.0,8.5486,8.5689,8.6264,8.6501,8.6636,8.6636,8.6805,0.0,0.0,0.0,0.0,8.6941,8.7448,8.7482,8.6941,8.6907,0.0,8.6907,0.0,0.0,8.6907,8.6907,8.6907,8.6941,8.7482,8.7719,8.7753,8.8294,8.8531,8.8531,8.8531,8.8531,8.8463,8.8032,8.7912,8.7965,8.7604,8.7779,8.8019,8.8019,8.8019,8.8019,8.8019,8.8019,8.7881,8.7294,8.6984,8.6742,8.6191,8.5367,8.4781,8.4781,8.4136,8.3457,8.3251,8.3018,8.285,8.2679,8.2474,8.2166,8.162,8.138,8.0672,7.9386,7.8545,7.7908,7.7739,7.7705,7.7638,7.7435,7.7401,7.7426,7.7622,7.8784,7.983,8.051,8.1362,8.181,8.181,8.181,8.181,8.181,8.181,8.181,8.181,8.181,8.181,8.181,8.181,8.181,8.181,8.2362,8.2638,8.2673,8.3225,8.3466,8.3466,8.3638,8.3742,8.3742,8.3949,8.4363,8.4811,8.4018,8.3845,8.4018,8.464,8.464,8.464,8.464,8.464,8.4742,8.508,0.0,0.0,8.6163,8.6264,0.0,8.6873,8.7211,8.738,8.738,8.7685,0.0,8.7854,0.0,0.0,8.7888,8.826,8.8294,8.7854,8.7854,0.0,8.7854,0.0,0.0,8.7854,8.7854,8.7854,8.7888,8.8294,8.8463,8.8497,8.8903,8.9072,8.9072,8.9072,8.9072,0.0,8.8632,8.8685,8.8871,8.8721,8.86,8.8364,8.8364,8.8468,8.8605,8.8605,8.8605,8.8501,8.8053,8.7915,8.7846,8.7432,8.6742,8.6156,8.6156,8.547,8.4717,8.4407,8.4205,8.4002,8.3659,8.3491,8.3388,8.2977,8.2874,8.23,8.0842,8.0198,7.959,7.8944,7.8842,7.8642,7.8206,7.8477,7.8608,7.8456,7.9365,8.0207,8.1121,8.1535,8.181,8.181,8.181,8.181,8.181,8.181,8.1948,8.2293,8.2293,8.2431,8.2776,8.2776,8.2776,8.2776,8.319,8.3397,8.3397,8.3845,8.4018,8.4052,8.4397,8.4535,8.457,8.488,8.5294,8.5639,8.519,8.5018,8.5018,8.464,8.464,8.464,8.464,8.464,0.0,0.0,8.5689,0.0,8.667,0.0,8.6839,8.7042,8.7617,8.8023,8.8125,0.0,8.9072,8.9072,8.9072,8.9072,8.9072,8.9072,8.9072,8.9072,8.9072,8.9072,0.0,0.0,0.0,8.9072,8.9072,8.9072,8.9072,8.9072,8.9072,8.9072,8.9072,8.9072,8.9072,8.9072,8.9072,8.9072,8.9072,8.9184,8.9407,8.9517,8.9028,8.8431,8.8431,8.8639,8.8881,8.8881,8.8881,8.8881,8.8777,8.8743,8.8708,8.8639,8.8088,8.757,8.757,8.7018,8.6294,8.5639,8.5397,8.5156,8.4466,8.4328,8.4294,8.419,8.3891,8.3285,8.2436,8.2235,8.179,8.0492,8.0287,7.9917,7.9007,7.9484,0.0,7.9658,7.9917,8.0481,8.1646,8.1715,8.1715,8.1715,8.1879,8.1948,8.1948,8.2052,8.2397,8.3052,8.3052,8.3362,8.4018,8.4018,8.4018,8.4018,8.4121,8.4156,8.4156,8.4259,8.4328,8.4363,8.5052,8.5328,8.5397,8.6053,8.6294,8.6294,8.6294,8.6294,8.6294,0.0,0.0,0.0,0.0,0.0,8.4877,8.5655,8.5249,8.5114,8.5892,8.5993,8.6467,8.7685,8.7922,8.8226,8.8835,8.9004,0.0,0.0,0.0,0.0,8.9072,8.9072,8.9072,8.9072,8.9072,8.9072,0.0,0.0,0.0,8.9072,8.9072,8.9072,8.9072,8.9072,8.9072,8.9072,8.9072,8.9072,8.9072,8.9072,8.9072,8.9072,8.9072,8.9072,8.9184,8.9407,8.9676,9.001,9.001,9.0222,9.0433,9.0433,9.0433,9.0295,8.9674,8.9502,8.9364,8.8777,8.8501,8.8398,8.8398,8.7812,8.7191,8.7053,8.6536,8.6087,8.5949,8.5915,8.5708,8.5121,8.4235,8.3556,8.332,8.3086,8.2918,8.2645,8.261,8.2337,8.1521,8.1521,8.1384,8.077,8.0603,8.0672,8.1102,8.1297,8.149,8.149,8.2267,8.2707,8.2707,8.3328,8.3707,8.3811,8.3811,8.388,8.4018,8.4018,8.4018,8.4018,8.4708,8.4984,8.5018,8.5639,8.5915,8.5915,8.6053,8.6122,8.6122,8.626,8.6294,8.6294,8.6294,8.6294,8.6294,0.0,0.0,0.0,0.0,0.0,0.0,0.0,8.579,8.6095,8.6839,8.7245,8.7753,8.8497,8.8564,8.87,8.9038,8.9072,8.9072,8.9072,8.9072,8.9072,8.9072,8.9072,8.9072,8.9072,8.9072,8.9072,8.9072,8.9072,8.9072,8.9072,8.9072,8.9072,8.9072,8.9072,8.9072,8.9072,8.9072,8.9072,8.9072,8.9072,8.9072,8.9072,8.9072,8.9072,8.9072,8.9184,8.9662,9.0207,9.0315,9.0601,9.0812,9.0812,9.0812,9.0743,9.0364,9.026,9.0192,8.9847,8.9467,8.9157,8.9157,8.8605,8.8019,8.8019,8.7743,8.7363,8.6949,8.688,8.6674,8.5915,8.5367,8.4889,8.4476,8.4308,8.4071,8.3659,8.359,8.3453,8.2912,8.2878,8.2741,8.2166,8.1933,8.1526,8.1073,8.12,8.1565,8.1943,8.2514,8.3087,8.3466,8.3811,8.4225,8.4639,8.4639,8.4811,8.519,8.519,8.519,8.5225,8.5604,8.5777,8.5777,8.6156,8.6294,8.6294,8.6294,8.6294,8.6294,8.6294,8.6294,8.6294,8.6294,8.6294,8.6294,0.0,8.552,0.0,0.0,8.5621,0.0,8.6027,8.667,8.7279,8.7719,8.826,8.8666,8.8835,8.8869,8.8903,8.9072,8.9072,8.9072,8.9072,8.9072,8.9072,8.9072,8.9072,8.9072,8.9072,8.9072,8.9072,8.9072,8.9072,8.9072,8.9072,8.9072,8.9072,8.9072,8.9072,8.9072,8.9072,8.9072,8.9072,8.9072,8.9072,8.9072,8.9072,8.9072,8.9072,8.9072,8.9184,8.9551,8.999,9.0315,9.0601,9.0812,9.0812,9.0812,9.0812,9.0812,9.0812,9.0812,9.0812,9.0398,8.995,8.995,8.9398,8.8812,8.8812,8.8708,8.8433,8.7812,8.7674,8.7432,8.6674,8.6536,8.6294,8.5535,8.5432,8.5225,8.4604,8.4501,8.4334,8.3964,8.3964,8.3796,8.3326,8.309,8.2512,8.1452,8.1679,8.2017,8.26,8.3099,8.3673,8.4259,8.4432,8.4811,8.5432,8.5432,8.5742,8.6294,8.6294,8.6294,8.6294,8.6294,8.6294,8.6294,8.6294,8.6294,8.6294,8.6294,8.6294,8.6294,8.6294,8.6294,8.6294,8.6294,8.6294,8.6294,0.0,0.0,0.0,0.0,0.0,8.6805,8.6805,8.7414,8.7685,8.7076,8.7076,8.738,8.8023,8.8091,8.8361,8.9038,8.9072,8.9072,8.9072,8.9072,8.9072,8.9072,8.9072,8.9072,8.9072,8.9072,8.9072,8.9072,8.9072,8.9072,8.9072,8.9072,8.9072,8.9072,8.9072,8.9072,8.9072,8.9072,8.9072,8.9072,8.9072,8.9072,8.9072,8.9072,8.9072,8.9072,8.9407,8.9662,8.999,9.0315,9.0601,9.0812,9.0812,9.0812,9.0812,9.0812,9.0812,9.0812,9.0812,9.0743,9.0709,9.0709,9.0157,8.9605,8.9605,8.9088,8.857,8.8501,8.8501,8.8226,8.7467,8.7294,8.7053,8.6329,8.6191,8.6191,8.6087,8.6087,8.5846,8.5156,8.5087,8.4712,8.3659,8.3292,8.3022,8.2683,8.2886,8.302,8.3089,8.4274,8.5018,8.5087,8.5742,8.6122,8.6191,8.6191,8.6225,8.6294,8.6294,8.6294,8.6294,8.6294,8.6294,8.6294,8.6294,8.6294,8.6294,8.6294,8.6294,8.6294,8.6294,8.6294,8.6294,8.6294,8.6294,8.6294,0.0,0.0,0.0,0.0,0.0,8.755,8.755,8.8192,8.8531,8.826,8.8226,8.8328,8.8632,8.8632,8.8767,8.9038,8.9072,8.9072,8.9072,8.9072,8.9072,8.9072,8.9072,8.9072,8.9072,8.9072,8.9072,8.9072,8.9072,8.9072,8.9072,8.9072,8.9072,8.9072,8.9072,8.9072,8.9072,8.9072,8.9072,8.9072,8.9072,8.9072,8.9072,8.9072,8.9072,8.9072,8.9184,8.9407,8.9771,9.0099,9.0422,9.0812,9.0812,9.0812,9.0812,9.0812,9.0812,9.0812,9.0812,9.0812,9.0812,9.0812,9.0571,9.0364,9.0364,9.0123,8.9778,8.9364,8.8915,8.8501,8.8191,8.8122,8.7881,8.7087,8.6984,8.6811,8.6363,8.6294,8.6191,8.5915,8.5846,8.5742,8.5198,8.4964,8.466,8.4455,8.3602,8.3396,8.3874,8.472,8.5397,8.5846,8.6156,8.6294,8.6294,8.6294,8.6294,8.6294,8.6294,8.6294,8.6294,8.6294,8.6294,8.6294,8.6294,8.6294,8.6294,8.6294,8.6294,8.6294,8.6294,8.6294,8.6294,8.6294,8.6294,8.6294,8.8328,8.7888,8.755,8.755,8.7989,8.8328,8.8328,8.8767,8.9072,8.9072,8.9072,8.9072,8.9072,8.9072,8.9072,8.9072,8.9072,8.9072,8.9072,8.9072,8.9072,8.9072,8.9072,8.9072,8.9072,8.9072,8.9072,8.9072,8.9072,8.9072,8.9072,8.9072,8.9072,8.9072,8.9072,8.9072,8.9072,8.9072,8.9072,8.9072,8.9072,8.9072,8.9072,8.9072,8.9072,8.9072,8.9072,8.9295,8.9517,8.9771,9.0173,9.0707,9.0812,9.0812,9.0812,9.0812,9.0812,9.0812,9.0812,9.0812,9.0812,9.0812,9.0812,9.0812,9.0812,9.0812,9.0674,9.0123,8.9605,8.9191,8.895,8.8915,8.8674,8.7881,8.7743,8.757,8.7053,8.6984,8.688,8.6674,8.6639,8.6536,8.6329,8.6093,8.5788,8.5583,8.4591,8.4215,8.466,8.5201,8.5777,8.6294,8.6294,8.6294,8.6294,8.6294,8.6294,8.6294,8.6294,8.6294,8.6294,8.6294,8.6294,8.6294,8.6294,8.6294,8.6294,8.6294,8.6294,8.6294,8.6294,8.6294,8.6294,8.6294,8.6294,8.6294,8.9072,8.9072,8.9038,8.9038,8.9072,8.9072,8.9072,8.9072,8.9072,8.9072,8.9072,8.9072,8.9072,8.9072,8.9072,8.9072,8.9072,8.9072,8.9072,8.9072,8.9072,8.9072,8.9072,8.9072,8.9072,8.9072,8.9072,8.9072,8.9072,8.9072,8.9072,8.9072,8.9072,8.9072,8.9072,8.9072,8.9072,8.9072,8.9072,8.9072,8.9072,8.9072,8.9072,8.9072,8.9072,8.9072,8.9072,8.9295,8.9517,8.9517,8.9847,9.0388,9.0707,9.0812,9.0812,9.0812,9.0812,9.0812,9.0812,9.0812,9.0812,9.0812,9.0812,9.0812,9.0812,9.0812,9.0812,9.0812,9.0778,9.0571,8.9812,8.9674,8.9433,8.8708,8.857,8.857,8.857,8.857,8.8295,8.7501,8.7398,8.7122,8.6363,8.6093,8.589,8.589,8.5856,8.5754,8.548,8.5992,8.6294,8.6294,8.6294,8.6294,8.6294,8.6294,8.6294,8.6294,8.6294,8.6294,8.6294,8.6294,8.6294,8.6294,8.6294,8.6294,8.6294,8.6294,8.6294,8.6294,8.6294,8.6294,8.6294,8.6294,8.6294,8.6294,9.0594,9.0188,8.985,8.985,8.941,8.9072,8.9072,8.9072,8.9072,8.9072,8.9072,8.9072,8.9072,8.9072,8.9072,8.9072,8.9072,8.9072,8.9072,8.9072,8.9072,8.9072,8.9072,8.9072,8.9072,8.9072,8.9072,8.9072,8.9072,8.9072,8.9072,8.9072,8.9072,8.9072,8.9072,8.9072,8.9072,8.9072,8.9376,8.985,8.985,9.0154,9.0594,9.0594,9.0594,9.0594,9.0594,9.0708,9.064,9.0357,9.0521,9.0857,9.0559,9.0601,9.0812,9.0812,9.0812,9.0812,9.0812,9.0812,9.0812,9.0812,9.0812,9.0812,9.0812,9.0812,9.0812,9.0812,9.0812,9.0743,9.0502,9.0467,9.0226,8.9467,8.9364,8.9157,8.8674,8.8605,8.8501,8.826,8.8226,8.8122,8.7881,8.7262,8.685,8.6646,8.6368,8.6093,8.5788,8.6093,8.6294,8.6294,8.6294,8.6294,8.6294,8.6294,8.6294,8.6294,8.6294,8.6294,8.6294,8.6294,8.6294,8.6294,8.6294,8.6294,8.6329,8.6846,8.7053,8.7122,8.7639,8.7881,8.7881,8.7881,8.7881,8.7881,9.1305,9.0932,9.0628,9.0628,9.0222,8.9918,8.9918,8.9918,8.9918,8.9918,8.9918,8.9816,8.9545,8.9512,8.9376,8.9106,8.9072,8.9072,8.9072,8.9072,8.9072,8.9072,8.9072,8.9072,8.9072,8.9072,8.9072,8.9072,8.9072,8.9072,8.9106,8.9376,8.9512,8.9512,8.9782,8.9918,8.9918,8.9918,9.0188,9.0628,9.0628,9.0899,9.1305,9.1305,9.1305,9.1305,9.1305,9.1305,9.1237,9.1025,9.1081,9.128,9.0639,9.0726,9.1086,9.0881,9.0812,9.0812,9.0812,9.0812,9.0812,9.0812,9.0812,9.0812,9.0812,9.0812,9.0812,9.0812,9.0812,9.0812,9.0812,9.0812,9.0674,9.0192,9.0123,8.995,8.9502,8.9433,8.9329,8.9053,8.9019,8.8915,8.8639,8.8157,8.7744,8.7642,8.7331,8.7055,8.6953,8.6504,8.6294,8.6294,8.657,8.6708,8.6708,8.6708,8.6708,8.6708,8.6432,8.6467,8.6708,8.6708,8.688,8.7156,8.7156,8.7156,8.7191,8.7674,8.7846,8.7915,8.8398,8.8605,8.8605,8.8605,8.8605,8.8605,9.144,9.1406,9.1372,9.1372,9.1338,9.1305,9.1305,9.1305,9.1305,9.1305,9.1305,9.1034,9.0357,9.029,9.0019,8.9309,8.914,8.9072,8.9072,8.9072,8.9072,8.9072,8.914,8.9173,8.9173,8.9207,8.9241,8.9241,8.9241,8.9241,8.9241,8.9951,9.029,9.0324,9.1,9.1305,9.1305,9.1305,9.1338,9.1372,9.1372,9.1406,9.144,9.144,9.144,9.144,9.144,9.144,9.144,9.1406,9.1602,9.1727,9.1013,9.1186,9.1417,9.0948,9.0812,9.0812,9.0812,9.0812,9.0812,9.0812,9.0812,9.0812,9.0812,9.0812,9.0812,9.0812,9.0812,9.0812,9.0812,9.0812,9.0812,9.0812,9.0812,9.0812,9.0812,9.0812,9.0571,8.9881,8.9778,8.9502,8.8812,8.8708,8.8674,8.8674,8.8639,8.8605,8.8605,8.7225,8.6467,8.6467,8.7122,8.7501,8.7501,8.7501,8.7501,8.7501,8.6811,8.6811,8.7501,8.7501,8.7881,8.8605,8.8605,8.8605,8.8605,8.8639,8.8674,8.8674,8.8743,8.8743,8.8743,8.8743,8.8743,8.8743,9.303,9.2556,9.215,9.215,9.1677,9.1305,9.1305,9.1305,9.1305,9.1305,9.1305,9.1237,9.1068,9.1034,9.0966,9.0797,8.9748,8.9072,8.9072,8.9072,8.9072,8.9072,8.9647,8.9951,8.9951,9.0493,9.0763,9.0763,9.0763,9.0763,9.0763,9.0966,9.1034,9.1034,9.1203,9.1305,9.1305,9.1305,9.1609,9.215,9.215,9.2522,9.303,9.303,9.303,9.303,9.303,9.303,9.2962,9.2353,9.2415,9.2509,9.1761,9.1748,9.1809,9.0799,9.0601,9.0812,9.0812,9.0812,9.0812,9.0812,9.0812,9.0812,9.0812,9.0812,9.0812,9.0812,9.0812,9.0812,9.0812,9.0812,9.0812,9.0812,9.0812,9.0812,9.0812,9.0812,9.0743,9.0571,9.0536,9.0467,9.0295,8.9778,8.9433,8.9433,8.8915,8.8605,8.8605,8.826,8.8053,8.8053,8.8226,8.8329,8.8329,8.8329,8.8329,8.8295,8.8122,8.8157,8.8329,8.8329,8.8433,8.8605,8.8605,8.8605,8.8639,8.9191,8.9433,8.9502,9.0054,9.0295,9.0295,9.0295,9.0295,9.0295,9.3335,9.3115,9.2962,9.2962,9.2624,9.2353,9.2353,9.2353,9.2353,9.2353,9.2353,9.2218,9.1846,9.1812,9.1677,9.1338,9.056,9.0087,9.0087,9.0087,9.0087,9.0087,9.0493,9.0696,9.0696,9.1102,9.1305,9.1305,9.1305,9.1305,9.1305,9.1643,9.1812,9.1812,9.2184,9.2353,9.2353,9.2353,9.259,9.2962,9.2962,9.3199,9.3571,9.3571,9.3571,9.3571,9.3571,9.3571,9.3503,9.3098,9.3079,9.306,9.2314,9.2305,9.2294,9.1357,9.1069,9.1117,9.1117,9.0948,9.0812,9.0812,9.0812,9.0812,9.0812,9.0812,9.0812,9.0812,9.0812,9.0812,9.0812,9.0812,9.0812,9.0812,9.0812,9.0812,9.0812,9.0812,9.0812,9.0812,9.0812,9.0812,9.0812,9.0433,9.0192,9.0192,8.9847,8.9605,8.9605,8.9605,8.9295,8.8605,8.8915,8.9088,8.9088,8.9088,8.8915,8.8605,8.8605,8.8777,8.9088,8.9088,8.9295,8.9605,8.9605,8.9605,8.964,9.0054,9.0192,9.026,9.064,9.0812,9.0812,9.0812,9.0812,9.0812,9.3279,9.3553,9.3909,9.3909,9.3842,9.3774,9.3774,9.3673,9.3571,9.3571,9.3571,9.3334,9.2658,9.259,9.2353,9.1711,9.1643,9.1541,9.1305,9.1305,9.1305,9.1305,9.1406,9.1474,9.1474,9.1575,9.1643,9.1643,9.1643,9.1643,9.1643,9.2286,9.259,9.2624,9.33,9.3571,9.3571,9.3571,9.3571,9.3571,9.3571,9.3571,9.3571,9.3571,9.3571,9.3571,9.3571,9.3571,9.3571,9.3571,9.3571,9.347,9.2793,9.274,9.2836,9.2305,9.1894,9.172,9.1726,9.1358,9.0985,9.0985,9.0881,9.0812,9.0812,9.0812,9.0812,9.0812,9.0812,9.0812,9.0812,9.0812,9.0812,9.0812,9.0812,9.0812,9.0812,9.0812,9.0812,9.0812,9.0812,9.0812,9.0812,9.0812,9.0812,9.0812,9.0812,9.0812,9.0812,9.0812,9.0226,8.8984,8.9536,8.9881,8.9881,8.9881,8.9536,8.8915,8.8915,8.926,8.9881,8.9881,9.0226,9.0812,9.0812,9.0812,9.0812,9.0812,9.0812,9.0812,9.0812,9.0812,9.0812,9.0812,9.0812,9.0812,9.4015,9.4546,9.5069,9.5069,9.4804,9.4552,9.4552,9.3977,9.3571,9.3571,9.3571,9.3537,9.3402,9.3402,9.3368,9.3233,9.3233,9.2692,9.1372,9.1305,9.1305,9.1305,9.1913,9.2252,9.2252,9.2895,9.3233,9.3233,9.3233,9.3233,9.3233,9.3334,9.3402,9.3402,9.3537,9.3571,9.3571,9.3571,9.3571,9.3571,9.3571,9.3571,9.3571,9.3571,9.3571,9.3571,9.3571,9.3571,9.3571,9.3571,9.3571,9.3571,9.3436,9.3402,9.3519,9.3384,9.304,9.2634,9.2578,9.2184,9.1813,9.1813,9.1295,9.0812,9.0812,9.0812,9.0812,9.0812,9.0812,9.0812,9.0812,9.0812,9.0812,9.0812,9.0812,9.0812,9.0812,9.0812,9.0812,9.0812,9.0812,9.0812,9.0812,9.0812,9.0812,9.0812,9.0812,9.0812,9.0812,9.0812,9.0709,9.0467,9.0571,9.064,9.064,9.064,9.0571,9.0467,9.0467,9.0536,9.064,9.064,9.0709,9.0812,9.0812,9.0812,9.0812,9.0812,9.0812,9.0812,9.0812,9.0812,9.0812,9.0812,9.0812,9.0812,9.3588,9.4256,9.4881,9.5284,9.5136,9.5055,9.5296,9.4992,9.4755,9.4755,9.4755,9.462,9.4248,9.418,9.4011,9.3605,9.3571,9.33,9.259,9.2522,9.2522,9.2522,9.2861,9.3064,9.3064,9.3402,9.3571,9.3571,9.3571,9.3571,9.3571,9.3571,9.3808,9.418,9.418,9.4417,9.4755,9.4755,9.4755,9.4789,9.4789,9.4552,9.418,9.418,9.3943,9.3571,9.3571,9.3571,9.3571,9.3571,9.3571,9.3571,9.3571,9.3571,9.3571,9.3571,9.3297,9.2861,9.2783,9.2522,9.2287,9.2088,9.1709,9.133,9.0916,9.0812,9.0812,9.0812,9.0812,9.0812,9.0812,9.0812,9.0812,9.0812,9.0812,9.0812,9.0812,9.0812,9.0812,9.0812,9.0812,9.0812,9.0812,9.0812,9.0812,9.0812,9.0812,9.0812,9.0812,9.0812,9.0812,9.0812,9.0812,9.0812,9.0812,9.0812,9.0812,9.0812,9.0812,9.0812,9.0812,9.0812,9.0812,9.0812,9.0812,9.0812,9.0812,9.0812,9.0812,9.0812,9.0812,9.0812,9.0812,9.0812,9.0812,9.0812,9.3204,9.3825,9.4629,9.5293,9.5407,9.5553,9.5919,9.5905,9.5804,9.5804,9.5804,9.5567,9.5026,9.4958,9.4721,9.4146,9.4079,9.4079,9.4079,9.4079,9.3943,9.3605,9.3571,9.3571,9.3571,9.3571,9.3673,9.3842,9.3842,9.3943,9.4079,9.4079,9.4417,9.4958,9.4958,9.5263,9.5804,9.5804,9.5804,9.5804,9.5804,9.5466,9.4958,9.4958,9.4586,9.4079,9.3909,9.3842,9.3808,9.3639,9.3571,9.3571,9.3571,9.3571,9.3571,9.3571,9.3282,9.3053,9.304,9.2955,9.29,9.2533,9.2399,9.2054,9.1261,9.1088,9.1019,9.0847,9.0812,9.0812,9.0812,9.0812,9.0812,9.0812,9.0812,9.0812,9.0812,9.0812,9.0812,9.0812,9.0812,9.0812,9.0812,9.0812,9.0812,9.0812,9.0812,9.0812,9.0812,9.0812,9.0812,9.0812,9.0812,9.0812,9.0812,9.0812,9.0812,9.0812,9.0812,9.0812,9.0812,9.0812,9.0812,9.0812,9.0812,9.0812,9.0812,9.0812,9.0812,9.0812,9.0812,9.0812,9.0812,9.0812,9.0812,9.0812,9.3655,9.4306,9.4945,9.5836,9.5883,9.5954,9.6327,9.6,9.5804,9.5804,9.5804,9.577,9.5702,9.5702,9.5702,9.5635,9.5635,9.5635,9.5635,9.5635,9.5026,9.3639,9.3571,9.3571,9.3571,9.3571,9.3909,9.462,9.462,9.4958,9.5635,9.5635,9.5669,9.5702,9.5702,9.5736,9.5804,9.5804,9.5804,9.5804,9.5804,9.577,9.5702,9.5702,9.5669,9.5533,9.4857,9.462,9.4518,9.3808,9.3571,9.3571,9.3571,9.3571,9.3571,9.3571,9.3537,9.3587,9.3869,9.3782,9.3683,9.3649,9.3319,9.2813,9.2088,9.1916,9.1709,9.095,9.0812,9.0812,9.0812,9.0812,9.0812,9.0812,9.0812,9.0812,9.0812,9.0812,9.0812,9.0812,9.0812,9.0812,9.0812,9.0812,9.0812,9.0812,9.0812,9.0812,9.0812,9.0812,9.0812,9.0812,9.0812,9.0812,9.0812,9.0812,9.0812,9.0812,9.0812,9.0812,9.0812,9.0812,9.0812,9.0812,9.0812,9.0812,9.0812,9.0812,9.0812,9.0812,9.0812,9.0812,9.0812,9.0812,9.0812,9.0812,9.3369,9.3785,9.4605,9.5739,9.603,9.6217,9.6943,9.6956,9.6911,9.7157,9.7157,9.6988,9.6514,9.648,9.6277,9.5838,9.5804,9.5804,9.5804,9.5804,9.5533,9.4992,9.4958,9.4958,9.4958,9.4958,9.5093,9.5364,9.5364,9.5533,9.5804,9.5804,9.6041,9.648,9.648,9.6717,9.7157,9.7157,9.7157,9.7157,9.7157,9.6886,9.648,9.648,9.6176,9.577,9.5466,9.5364,9.5263,9.4518,9.4282,9.4214,9.374,9.3571,9.3571,9.3571,9.3571,9.3571,9.3689,9.3951,9.4179,9.3923,9.3801,9.3641,9.2847,9.2675,9.2468,9.1709,9.1537,9.1399,9.0916,9.0812,9.0812,9.0812,9.0812,9.0812,9.0812,9.0812,9.0812,9.0812,9.0812,9.0812,9.0812,9.0812,9.0812,9.0812,9.0812,9.0812,9.0812,9.0812,9.0812,9.0812,9.0812,9.0812,9.0812,9.0812,9.0812,9.0812,9.0812,9.0812,9.0812,9.0812,9.0812,9.0812,9.0812,9.0812,9.0812,9.0812,9.0812,9.0812,9.0812,9.0812,9.0812,9.0812,9.0812,9.0812,9.2666,9.3089,9.3679,9.5041,9.5441,9.5968,9.7,9.7346,9.763,9.8003,9.8003,9.78,9.7292,9.7225,9.7022,9.6514,9.648,9.648,9.648,9.648,9.6277,9.5804,9.5804,9.5804,9.5804,9.5804,9.5905,9.6142,9.6142,9.6244,9.648,9.648,9.6751,9.7225,9.7225,9.7529,9.8003,9.8003,9.8003,9.8003,9.8003,9.7698,9.7225,9.7225,9.692,9.6447,9.621,9.6142,9.6041,9.5296,9.506,9.4958,9.4451,9.4112,9.3876,9.3639,9.3571,9.3571,9.3571,9.4039,9.4363,9.4077,9.4275,9.429,9.3641,9.3468,9.3261,9.2502,9.233,9.2157,9.164,9.133,9.1192,9.1192,9.095,9.0812,9.0812,9.0812,9.0812,9.0812,9.0812,9.0812,9.0812,9.0812,9.0812,9.0812,9.0812,9.0812,9.0812,9.0812,9.0812,9.0812,9.0812,9.0812,9.0812,9.0812,9.0812,9.0812,9.0812,9.0812,9.0812,9.0812,9.0812,9.0812,9.0812,9.0812,9.0812,9.0812,9.0812,9.0812,9.0812,9.0812,9.0812,9.0812,9.0812,9.0812,9.1953,9.2097,9.2382,9.354,9.4301,9.5243,9.6359,9.7127,9.763,9.8003,9.8003,9.8003,9.8003,9.8003,9.8003,9.8003,9.8003,9.8003,9.8003,9.8037,9.736,9.5905,9.5838,9.5838,9.5838,9.5838,9.6176,9.692,9.692,9.7292,9.8037,9.8037,9.8037,9.8037,9.8037,9.8037,9.8037,9.8037,9.8037,9.8037,9.8037,9.8037,9.8003,9.8003,9.8003,9.7901,9.7157,9.6886,9.6785,9.6041,9.5804,9.5804,9.5804,9.5296,9.4552,9.3808,9.3605,9.3605,9.3571,9.4039,9.45,9.45,9.4693,9.4825,9.4468,9.4296,9.4054,9.3261,9.3123,9.3123,9.3089,9.2502,9.1985,9.1985,9.133,9.0812,9.0812,9.0812,9.0812,9.0812,9.0812,9.0812,9.0812,9.0812,9.0812,9.0812,9.0812,9.0812,9.0812,9.0812,9.0812,9.0812,9.0812,9.0812,9.0812,9.0812,9.0812,9.0812,9.0812,9.0812,9.0812,9.0812,9.0812,9.0812,9.0812,9.0812,9.0812,9.0812,9.0812,9.0812,9.0812,9.0812,9.0812,9.0812,9.0812,9.0812,9.1953,9.1809,9.2097,9.3229,9.3785,9.4469,9.5541,9.6326,9.7,9.763,9.7879,9.8003,9.8003,9.8003,9.8003,9.8003,9.8003,9.824,9.8747,9.9254,9.9356,9.8916,9.8375,9.8104,9.8104,9.8645,9.9018,9.9221,9.9221,9.9356,9.9559,9.9559,9.9559,9.9559,9.9559,9.9559,9.9559,9.9559,9.9559,9.9559,9.9559,9.9254,9.8781,9.8781,9.8442,9.7969,9.7766,9.7664,9.7563,9.6819,9.6548,9.648,9.5939,9.5635,9.533,9.4586,9.4383,9.4248,9.374,9.3923,9.427,9.4385,9.4841,9.522,9.5089,9.5055,9.4848,9.4089,9.3916,9.3744,9.3192,9.2916,9.2778,9.2778,9.2571,9.2226,9.1709,9.164,9.1433,9.0881,9.0812,9.0812,9.0812,9.0812,9.0812,9.0812,9.0812,9.0812,9.0812,9.0812,9.0812,9.0812,9.0812,9.0812,9.0812,9.0812,9.0812,9.0812,9.0812,9.0812,9.0812,9.0812,9.0812,9.0812,9.0812,9.0812,9.0812,9.0812,9.0812,9.0812,9.0812,9.0812,9.0812,9.0812,9.0812,9.0812,9.1904,9.1696,9.1809,9.2666,9.3229,9.402,9.5369,9.6234,9.7117,9.822,9.8507,9.8757,9.8882,9.8882,9.8882,9.8882,9.8882,9.9085,9.9525,9.9965,10.0235,10.0235,10.01,9.9863,9.9559,9.9999,10.0235,10.0235,10.0235,10.0235,10.0235,10.0235,10.0235,10.0235,10.0235,10.0235,10.0235,10.0235,10.0235,10.0235,10.0235,9.9931,9.9559,9.9559,9.9254,9.8848,9.8544,9.8442,9.8307,9.7563,9.7326,9.7191,9.6447,9.6244,9.6074,9.5364,9.4924,9.462,9.4146,9.4009,9.4121,9.4385,9.4806,9.5254,9.54,9.54,9.5262,9.4813,9.471,9.4572,9.4089,9.3778,9.3572,9.3572,9.3296,9.2951,9.2502,9.2433,9.2261,9.1778,9.1468,9.1261,9.1261,9.0985,9.0812,9.0812,9.0812,9.0812,9.0812,9.0812,9.0812,9.0812,9.0812,9.0812,9.0812,9.0812,9.0812,9.0812,9.0812,9.0812,9.0812,9.0812,9.0812,9.0812,9.0812,9.0812,9.0812,9.0812,9.0812,9.0812,9.0812,9.0812,9.0812,9.0812,9.0812,9.0812,9.1867,9.1741,9.1886,9.2287,9.3,9.3895,9.5617,9.6562,9.7624,9.9369,9.9598,9.9855,10.0235,10.0235,10.0235,10.0235,10.0303,10.0303,10.0303,10.0405,10.0438,10.0438,10.1115,10.1183,10.0438,10.0438,10.0438,10.0438,10.0438,10.0438,10.0438,10.0438,10.0438,10.0438,10.0438,10.0438,10.0438,10.0438,10.0438,10.0438,10.0438,10.0405,10.0303,10.0303,10.0303,10.0134,9.9457,9.9153,9.8984,9.824,9.8003,9.7901,9.7191,9.6988,9.6819,9.6108,9.5432,9.489,9.4823,9.4484,9.4223,9.4488,9.4762,9.4997,9.5254,9.54,9.54,9.54,9.54,9.54,9.54,9.4848,9.4365,9.4365,9.3778,9.3261,9.3227,9.3192,9.3192,9.3123,9.2502,9.2088,9.2088,9.1364,9.0881,9.0812,9.0812,9.0812,9.0812,9.0812,9.0812,9.0812,9.0812,9.0812,9.0812,9.0812,9.0812,9.0812,9.0812,9.0812,9.0812,9.0812,9.0812,9.0812,9.0812,9.0812,9.0812,9.0812,9.0812,9.0812,9.0812,9.0812,9.0812,9.0812,9.0812,9.0812,9.3489,9.3311,9.3458,9.4009,9.4618,9.5077,9.5771,9.6807,9.7822,9.8751,9.9306,9.9855,10.0235,10.0235,10.0235,10.0235,10.0811,10.1115,10.1115,10.169,10.2028,10.2028,10.2198,10.2198,10.2028,10.2028,10.2028,10.2028,10.2028,10.2028,10.2028,10.2028,10.2028,10.2028,10.2028,10.2028,10.2028,10.2028,10.2028,10.2028,10.2028,10.169,10.1115,10.1115,10.0709,10.0202,10.0032,9.9593,9.8984,9.824,9.8003,9.7969,9.78,9.7766,9.7631,9.6853,9.6548,9.6277,9.5702,9.523,9.4855,9.4972,9.4876,9.4997,9.5254,9.54,9.54,9.54,9.54,9.54,9.54,9.5262,9.5158,9.5158,9.502,9.4675,9.4089,9.402,9.3813,9.3158,9.2951,9.2847,9.2847,9.2192,9.1468,9.0847,9.0812,9.0812,9.0812,9.0812,9.0812,9.0812,9.0812,9.0812,9.0812,9.0812,9.0812,9.0812,9.0812,9.0812,9.0812,9.0812,9.0812,9.0812,9.0812,9.0812,9.0812,9.0812,9.0812,9.0812,9.0812,9.0812,9.0812,9.0812,9.0812,9.0812,9.4112,9.4342,9.4633,9.5067,9.5497,9.6019,9.6658,9.7561,9.8514,9.9485,10.0248,10.064,10.1156,10.1318,10.1318,10.1318,10.169,10.1893,10.1893,10.2299,10.2502,10.2502,10.2502,10.2502,10.2502,10.2502,10.2502,10.2502,10.2502,10.2502,10.2502,10.2502,10.2502,10.2502,10.2502,10.2502,10.2502,10.2502,10.2502,10.2502,10.2502,10.2299,10.1893,10.1893,10.169,10.1318,10.0912,10.0303,9.9525,9.8781,9.851,9.8476,9.8104,9.8003,9.7935,9.7529,9.7157,9.6785,9.6413,9.589,9.5332,9.5195,9.502,9.499,9.51,9.5254,9.54,9.54,9.54,9.54,9.54,9.54,9.54,9.54,9.54,9.5262,9.4882,9.4813,9.4675,9.4261,9.3882,9.3503,9.3123,9.2433,9.1813,9.1399,9.1019,9.0812,9.0812,9.0812,9.0812,9.0812,9.0812,9.0812,9.0812,9.0812,9.0812,9.0812,9.0812,9.0812,9.0812,9.0812,9.0812,9.0812,9.0812,9.0812,9.0812,9.0812,9.0812,9.0812,9.0812,9.0812,9.0812,9.0812,9.0812,9.0812,9.4673,9.5162,9.574,9.574,9.642,9.7037,9.7656,9.842,9.9476,10.0583,10.122,10.175,10.2339,10.2502,10.2502,10.2502,10.2502,10.2502,10.2502,10.2502,10.2502,10.2502,10.2502,10.2502,10.2502,10.2502,10.2502,10.2502,10.2502,10.2502,10.2502,10.2502,10.2502,10.2502,10.2502,10.2502,10.2502,10.2502,10.2502,10.2502,10.2502,10.2502,10.2502,10.2502,10.2502,10.2401,10.1792,10.1081,10.0303,9.939,9.9085,9.895,9.824,9.8003,9.8003,9.8003,9.7563,9.7089,9.7089,9.6548,9.5924,9.5519,9.5297,9.504,9.5001,9.51,9.5365,9.54,9.54,9.54,9.54,9.54,9.54,9.54,9.54,9.54,9.54,9.54,9.54,9.54,9.4848,9.4158,9.3365,9.2744,9.233,9.2192,9.1468,9.1019,9.1019,9.0881,9.0812,9.0812,9.0812,9.0812,9.0812,9.0812,9.0812,9.0812,9.0812,9.0812,9.0812,9.0812,9.0812,9.0812,9.0812,9.0812,9.0812,9.0812,9.0812,9.0812,9.0812,9.0812,9.0812,9.0812,9.0812,9.0812,9.604,9.6338,9.6782,9.7221,9.7944,9.8437,9.8535,9.9487,10.0345,10.065,10.1353,10.2045,10.2536,10.2502,10.2502,10.2502,10.2502,10.2502,10.2502,10.2502,10.2502,10.2502,10.2502,10.2502,10.2502,10.2502,10.2502,10.2502,10.2502,10.2502,10.2502,10.2502,10.2502,10.2502,10.2502,10.2502,10.2502,10.2502,10.2502,10.2502,10.2502,10.2502,10.2502,10.2502,10.2502,10.2502,10.2401,10.1893,10.098,9.9559,9.9085,9.895,9.824,9.8003,9.8003,9.8003,9.7935,9.7867,9.7867,9.7292,9.6717,9.6737,9.5841,9.5093,9.5074,9.5024,9.5031,9.54,9.54,9.54,9.54,9.54,9.54,9.54,9.54,9.54,9.54,9.54,9.54,9.54,9.5296,9.4951,9.4192,9.402,9.3675,9.2985,9.2261,9.1847,9.1847,9.1192,9.0812,9.0812,9.0812,9.0812,9.0812,9.0812,9.0812,9.0812,9.0812,9.0812,9.0812,9.0812,9.0812,9.0812,9.0812,9.0812,9.0812,9.0812,9.0812,9.0812,9.0812,9.0812,9.0812,9.0812,9.0812,9.0812,9.6774,9.7364,9.7947,9.8059,9.8917,9.9618,9.9618,10.0275,10.1019,10.1086,10.1651,10.2079,10.2536,10.2502,10.2502,10.2502,10.2502,10.2502,10.2502,10.2502,10.2502,10.2502,10.2502,10.2502,10.2502,10.2502,10.2502,10.2502,10.2502,10.2502,10.2502,10.2502,10.2502,10.2502,10.2502,10.2502,10.2502,10.2502,10.2502,10.2502,10.2502,10.2502,10.2502,10.2502,10.2502,10.2502,10.2502,10.2299,10.1792,10.0777,10.01,9.9593,9.8848,9.8341,9.8003,9.8003,9.8003,9.8003,9.8003,9.7766,9.7428,9.6988,9.65,9.601,9.5807,9.5361,9.5058,9.51,9.5254,9.54,9.54,9.54,9.54,9.54,9.54,9.54,9.54,9.54,9.54,9.54,9.54,9.5262,9.4951,9.4537,9.4123,9.3778,9.3054,9.2433,9.2019,9.164,9.1261,9.0812,9.0812,9.0812,9.0812,9.0812,9.0812,9.0812,9.0812,9.0812,9.0812,9.0812,9.0812,9.0812,9.0812,9.0812,9.0812,9.0812,9.0812,9.0812,9.0812,9.0812,9.0812,9.0812,9.0812,9.0812]},{"header":{"parameterUnit":"m.s-1","parameterCategory":1,"la1":30.6,"la2":28.766,"lo1":-90.7593,"lo2":-88.6598,"dy":0.0162,"dx":0.0183,"nx":116,"ny":114,"refTime":"2024-02-01T06:00:00:Z","depth":0,"parameterNumber":3,"parameterNumberName":"V-component_of_WINDS"},"data":[0.0,0.0,0.0,0.0,0.0,0.0,0.0,0.0,0.0,0.0,0.0,0.0,0.0,0.0,0.0,0.0,0.0,0.0,0.0,0.0,0.0,0.0,0.0,0.0,0.0,0.0,0.0,0.0,0.0,0.0,0.0,0.0,0.0,0.0,0.0,0.0,0.0,0.0,0.0,0.0,0.0,0.0,0.0,0.0,0.0,0.0,0.0,0.0,0.0,0.0,0.0,0.0,0.0,0.0,0.0,0.0,0.0,0.0,0.0,0.0,0.0,0.0,0.0,0.0,0.0,0.0,0.0,0.0,0.0,0.0,0.0,0.0,0.0,0.0,0.0,0.0,0.0,0.0,0.0,0.0,0.0,0.0,0.0,0.0,0.0,0.0,0.0,0.0,0.0,0.0,0.0,0.0,0.0,0.0,0.0,0.0,0.0,0.0,0.0,0.0,0.0,0.0,0.0,0.0,0.0,0.0,0.0,0.0,0.0,0.0,0.0,0.0,0.0,0.0,0.0,0.0,0.0,0.0,0.0,0.0,0.0,0.0,0.0,0.0,0.0,0.0,0.0,0.0,0.0,0.0,0.0,0.0,0.0,0.0,0.0,0.0,0.0,0.0,0.0,0.0,0.0,0.0,0.0,0.0,0.0,0.0,0.0,0.0,0.0,0.0,0.0,0.0,0.0,0.0,0.0,0.0,0.0,0.0,0.0,0.0,0.0,0.0,0.0,0.0,0.0,0.0,0.0,0.0,0.0,0.0,0.0,0.0,0.0,0.0,0.0,0.0,0.0,0.0,0.0,0.0,0.0,0.0,0.0,0.0,0.0,0.0,0.0,0.0,0.0,0.0,0.0,0.0,0.0,0.0,0.0,0.0,0.0,0.0,0.0,0.0,0.0,0.0,0.0,0.0,0.0,0.0,0.0,0.0,0.0,0.0,0.0,0.0,0.0,0.0,0.0,0.0,0.0,0.0,0.0,0.0,0.0,0.0,0.0,0.0,0.0,0.0,0.0,0.0,0.0,0.0,0.0,0.0,0.0,0.0,0.0,0.0,0.0,0.0,0.0,0.0,0.0,0.0,0.0,0.0,0.0,0.0,0.0,0.0,0.0,0.0,0.0,0.0,0.0,0.0,0.0,0.0,0.0,0.0,0.0,0.0,0.0,0.0,0.0,0.0,0.0,0.0,0.0,0.0,0.0,0.0,0.0,0.0,0.0,0.0,0.0,0.0,0.0,0.0,0.0,0.0,0.0,0.0,0.0,0.0,0.0,0.0,0.0,0.0,0.0,0.0,0.0,0.0,0.0,0.0,0.0,0.0,0.0,0.0,0.0,0.0,0.0,0.0,0.0,0.0,0.0,0.0,0.0,0.0,0.0,0.0,0.0,0.0,0.0,0.0,0.0,0.0,0.0,0.0,0.0,0.0,0.0,0.0,0.0,0.0,0.0,0.0,0.0,0.0,0.0,0.0,0.0,0.0,0.0,0.0,0.0,0.0,0.0,0.0,0.0,0.0,0.0,0.0,0.0,0.0,0.0,0.0,0.0,0.0,0.0,0.0,0.0,0.0,0.0,0.0,0.0,0.0,0.0,0.0,0.0,0.0,0.0,0.0,0.0,0.0,0.0,0.0,0.0,0.0,0.0,0.0,0.0,0.0,0.0,0.0,0.0,0.0,0.0,0.0,0.0,0.0,0.0,0.0,0.0,0.0,0.0,0.0,0.0,0.0,0.0,0.0,0.0,0.0,0.0,0.0,0.0,0.0,0.0,0.0,0.0,0.0,0.0,0.0,0.0,0.0,0.0,0.0,0.0,0.0,0.0,0.0,0.0,0.0,0.0,0.0,0.0,0.0,0.0,0.0,0.0,0.0,0.0,0.0,0.0,0.0,0.0,0.0,0.0,0.0,0.0,0.0,0.0,0.0,0.0,0.0,0.0,0.0,0.0,0.0,0.0,0.0,0.0,0.0,0.0,0.0,0.0,0.0,0.0,0.0,0.0,0.0,0.0,0.0,0.0,0.0,0.0,0.0,0.0,0.0,0.0,0.0,0.0,0.0,0.0,0.0,0.0,0.0,0.0,0.0,0.0,0.0,0.0,0.0,0.0,0.0,0.0,0.0,0.0,0.0,0.0,0.0,0.0,0.0,0.0,0.0,0.0,0.0,0.0,0.0,0.0,0.0,0.0,0.0,0.0,0.0,0.0,0.0,0.0,0.0,0.0,0.0,0.0,0.0,0.0,0.0,0.0,0.0,0.0,0.0,0.0,0.0,0.0,0.0,0.0,0.0,0.0,0.0,0.0,0.0,0.0,0.0,0.0,0.0,0.0,0.0,0.0,0.0,0.0,0.0,0.0,0.0,0.0,0.0,0.0,0.0,0.0,0.0,0.0,0.0,0.0,0.0,0.0,0.0,0.0,0.0,0.0,0.0,0.0,0.0,0.0,0.0,0.0,0.0,0.0,0.0,0.0,0.0,0.0,0.0,0.0,0.0,0.0,0.0,0.0,0.0,0.0,0.0,0.0,0.0,0.0,0.0,0.0,0.0,0.0,0.0,0.0,0.0,0.0,0.0,0.0,0.0,0.0,0.0,0.0,0.0,0.0,0.0,0.0,0.0,0.0,0.0,0.0,0.0,0.0,0.0,0.0,0.0,0.0,0.0,0.0,0.0,0.0,0.0,0.0,0.0,0.0,0.0,0.0,0.0,0.0,0.0,0.0,0.0,0.0,0.0,0.0,0.0,0.0,0.0,0.0,0.0,0.0,0.0,0.0,0.0,0.0,0.0,0.0,0.0,0.0,0.0,0.0,0.0,0.0,0.0,0.0,0.0,0.0,0.0,0.0,0.0,0.0,0.0,0.0,0.0,0.0,0.0,0.0,0.0,0.0,0.0,0.0,0.0,0.0,0.0,0.0,0.0,0.0,0.0,0.0,0.0,0.0,0.0,0.0,0.0,0.0,0.0,0.0,0.0,0.0,0.0,0.0,0.0,0.0,0.0,0.0,0.0,0.0,0.0,0.0,0.0,0.0,0.0,0.0,0.0,0.0,0.0,0.0,0.0,0.0,0.0,0.0,0.0,0.0,0.0,0.0,0.0,0.0,0.0,0.0,0.0,0.0,0.0,0.0,0.0,0.0,0.0,0.0,0.0,0.0,0.0,0.0,0.0,0.0,0.0,0.0,0.0,0.0,0.0,0.0,0.0,0.0,0.0,0.0,0.0,0.0,0.0,0.0,0.0,0.0,0.0,0.0,0.0,0.0,0.0,0.0,0.0,0.0,0.0,0.0,0.0,0.0,0.0,0.0,0.0,0.0,0.0,0.0,0.0,0.0,0.0,0.0,0.0,0.0,0.0,0.0,0.0,0.0,0.0,0.0,0.0,0.0,0.0,0.0,0.0,0.0,0.0,0.0,0.0,0.0,0.0,0.0,0.0,0.0,0.0,0.0,0.0,0.0,0.0,0.0,0.0,0.0,0.0,0.0,0.0,0.0,0.0,0.0,0.0,0.0,0.0,0.0,0.0,0.0,0.0,0.0,0.0,0.0,0.0,0.0,0.0,0.0,0.0,0.0,0.0,0.0,0.0,0.0,0.0,0.0,0.0,0.0,0.0,0.0,0.0,0.0,0.0,0.0,0.0,0.0,0.0,0.0,0.0,0.0,0.0,0.0,0.0,0.0,0.0,0.0,0.0,0.0,0.0,0.0,0.0,0.0,0.0,0.0,0.0,0.0,0.0,0.0,0.0,0.0,0.0,0.0,0.0,0.0,0.0,0.0,0.0,0.0,0.0,0.0,0.0,0.0,0.0,0.0,0.0,0.0,0.0,0.0,0.0,0.0,0.0,0.0,0.0,0.0,0.0,0.0,0.0,0.0,0.0,0.0,0.0,0.0,0.0,0.0,0.0,0.0,0.0,0.0,0.0,0.0,0.0,0.0,0.0,0.0,0.0,0.0,0.0,0.0,0.0,0.0,0.0,0.0,0.0,0.0,0.0,0.0,0.0,0.0,0.0,0.0,0.0,0.0,0.0,0.0,0.0,0.0,0.0,0.0,0.0,0.0,0.0,0.0,0.0,0.0,0.0,0.0,0.0,0.0,0.0,0.0,0.0,0.0,0.0,0.0,0.0,0.0,0.0,0.0,0.0,0.0,0.0,0.0,0.0,0.0,0.0,0.0,0.0,0.0,0.0,0.0,0.0,0.0,0.0,0.0,0.0,0.0,0.0,0.0,0.0,0.0,0.0,0.0,0.0,0.0,0.0,0.0,0.0,0.0,0.0,0.0,0.0,0.0,0.0,0.0,0.0,0.0,0.0,0.0,0.0,0.0,0.0,0.0,0.0,0.0,0.0,0.0,0.0,0.0,0.0,0.0,0.0,0.0,0.0,0.0,0.0,0.0,0.0,0.0,0.0,0.0,0.0,0.0,0.0,0.0,0.0,0.0,0.0,0.0,0.0,0.0,0.0,0.0,0.0,0.0,0.0,0.0,0.0,0.0,0.0,0.0,0.0,0.0,0.0,0.0,0.0,0.0,0.0,0.0,0.0,0.0,0.0,0.0,0.0,0.0,0.0,0.0,0.0,0.0,0.0,0.0,0.0,0.0,0.0,0.0,0.0,0.0,0.0,0.0,0.0,0.0,0.0,0.0,0.0,0.0,0.0,0.0,0.0,0.0,0.0,0.0,0.0,0.0,0.0,0.0,0.0,0.0,0.0,0.0,0.0,0.0,0.0,0.0,0.0,0.0,0.0,0.0,0.0,0.0,0.0,0.0,0.0,0.0,0.0,0.0,0.0,0.0,0.0,0.0,0.0,0.0,0.0,0.0,0.0,0.0,0.0,0.0,0.0,0.0,0.0,0.0,0.0,0.0,0.0,0.0,0.0,0.0,0.0,0.0,0.0,0.0,0.0,0.0,0.0,0.0,0.0,0.0,0.0,0.0,0.0,0.0,0.0,0.0,0.0,0.0,0.0,0.0,0.0,0.0,0.0,0.0,0.0,0.0,0.0,0.0,0.0,0.0,0.0,0.0,0.0,0.0,0.0,0.0,0.0,0.0,0.0,0.0,0.0,0.0,0.0,0.0,0.0,0.0,0.0,0.0,0.0,0.0,0.0,0.0,0.0,0.0,0.0,0.0,0.0,0.0,0.0,0.0,0.0,0.0,0.0,0.0,0.0,0.0,0.0,0.0,0.0,0.0,0.0,0.0,0.0,0.0,0.0,0.0,0.0,0.0,0.0,0.0,0.0,0.0,0.0,0.0,0.0,0.0,0.0,0.0,0.0,0.0,0.0,0.0,0.0,0.0,0.0,0.0,0.0,0.0,0.0,0.0,0.0,0.0,0.0,0.0,0.0,0.0,0.0,0.0,0.0,0.0,0.0,0.0,0.0,0.0,0.0,0.0,0.0,0.0,0.0,0.0,0.0,0.0,0.0,0.0,0.0,0.0,0.0,0.0,0.0,0.0,0.0,0.0,0.0,0.0,0.0,0.0,0.0,0.0,0.0,0.0,0.0,0.0,0.0,0.0,0.0,0.0,0.0,0.0,0.0,0.0,0.0,0.0,0.0,0.0,0.0,0.0,0.0,0.0,0.0,0.0,0.0,0.0,0.0,0.0,0.0,0.0,0.0,0.0,0.0,0.0,0.0,0.0,0.0,0.0,0.0,0.0,0.0,0.0,0.0,0.0,0.0,0.0,0.0,0.0,0.0,0.0,0.0,0.0,0.0,0.0,0.0,0.0,0.0,0.0,0.0,0.0,0.0,0.0,0.0,0.0,0.0,0.0,0.0,0.0,0.0,0.0,0.0,0.0,0.0,0.0,0.0,0.0,0.0,0.0,0.0,0.0,0.0,0.0,0.0,0.0,0.0,0.0,0.0,0.0,0.0,0.0,0.0,0.0,0.0,0.0,0.0,0.0,0.0,0.0,0.0,0.0,0.0,0.0,0.0,0.0,0.0,0.0,0.0,0.0,0.0,0.0,0.0,0.0,0.0,0.0,0.0,0.0,0.0,0.0,0.0,0.0,0.0,0.0,0.0,0.0,0.0,0.0,0.0,0.0,0.0,0.0,0.0,0.0,0.0,0.0,0.0,0.0,0.0,0.0,0.0,0.0,0.0,0.0,0.0,0.0,0.0,-2.2859,-2.2859,0.0,0.0,0.0,0.0,0.0,0.0,0.0,0.0,0.0,0.0,0.0,0.0,0.0,0.0,0.0,0.0,0.0,0.0,0.0,0.0,0.0,0.0,0.0,0.0,0.0,0.0,0.0,0.0,0.0,0.0,0.0,0.0,0.0,0.0,-3.6219,-3.6201,-3.6201,-3.6201,-3.6201,-3.6201,-3.6201,-3.6201,-3.6201,-3.6201,0.0,0.0,0.0,0.0,0.0,0.0,0.0,0.0,0.0,0.0,0.0,0.0,0.0,0.0,0.0,0.0,0.0,0.0,0.0,0.0,0.0,0.0,0.0,0.0,0.0,0.0,0.0,0.0,0.0,0.0,0.0,0.0,0.0,0.0,0.0,0.0,0.0,0.0,0.0,0.0,0.0,0.0,0.0,0.0,0.0,0.0,0.0,0.0,0.0,0.0,0.0,0.0,0.0,0.0,0.0,0.0,0.0,0.0,0.0,0.0,0.0,0.0,0.0,0.0,0.0,0.0,0.0,0.0,0.0,0.0,-2.2859,-2.2859,0.0,0.0,0.0,0.0,0.0,0.0,0.0,0.0,0.0,0.0,0.0,0.0,0.0,0.0,0.0,0.0,0.0,0.0,0.0,0.0,0.0,0.0,0.0,-3.864,-3.864,-3.864,-3.8328,-3.8126,0.0,0.0,0.0,0.0,0.0,-3.6769,-3.6439,-3.6347,-3.6311,-3.6311,-3.6237,-3.6201,-3.6201,-3.6201,-3.6201,-3.6201,-3.6201,0.0,0.0,0.0,0.0,0.0,0.0,0.0,0.0,0.0,0.0,0.0,0.0,0.0,0.0,0.0,0.0,0.0,0.0,0.0,0.0,0.0,0.0,0.0,0.0,0.0,0.0,0.0,0.0,0.0,0.0,0.0,0.0,0.0,0.0,0.0,0.0,0.0,0.0,0.0,0.0,0.0,0.0,0.0,0.0,0.0,0.0,0.0,0.0,0.0,0.0,0.0,0.0,0.0,0.0,0.0,0.0,0.0,0.0,0.0,0.0,0.0,0.0,0.0,-2.2859,-2.2859,-2.2859,-2.2859,-2.2859,-2.2859,-2.2859,-2.2859,-2.2859,-2.2859,0.0,0.0,0.0,0.0,0.0,0.0,0.0,0.0,0.0,0.0,0.0,0.0,0.0,0.0,0.0,0.0,0.0,0.0,0.0,0.0,0.0,-3.864,-3.864,-3.864,-3.8585,-3.8566,-3.8566,-3.8163,-3.7906,-3.7851,-3.7539,-3.7319,-3.7264,-3.6934,-3.6751,-3.6751,-3.6384,-3.6201,-3.6201,-3.6201,-3.6201,-3.6201,-3.6201,-3.6201,-3.6201,0.0,0.0,0.0,0.0,0.0,0.0,0.0,0.0,0.0,0.0,0.0,0.0,0.0,0.0,0.0,0.0,0.0,0.0,0.0,0.0,0.0,0.0,0.0,0.0,0.0,0.0,0.0,0.0,0.0,0.0,0.0,0.0,0.0,0.0,0.0,0.0,0.0,0.0,0.0,0.0,0.0,-2.5831,-2.5427,0.0,0.0,0.0,0.0,0.0,0.0,0.0,0.0,0.0,0.0,0.0,0.0,0.0,-2.327,-2.327,-2.2996,-2.2859,-2.2859,-2.2859,-2.2859,-2.2859,-2.2859,-2.2859,-2.2859,-2.2859,0.0,-2.2859,-2.2859,0.0,0.0,0.0,0.0,0.0,0.0,0.0,0.0,0.0,0.0,0.0,0.0,0.0,0.0,0.0,0.0,0.0,0.0,0.0,0.0,0.0,-3.864,-3.864,-3.864,-3.864,-3.864,-3.864,-3.8475,-3.8255,-3.8016,-3.7851,-3.7649,-3.7429,-3.7246,-3.7173,-3.7173,-3.6751,-3.6567,-3.6549,-3.6311,-3.6201,-3.6201,-3.6201,-3.6201,-3.6201,-3.6201,0.0,0.0,0.0,0.0,0.0,0.0,0.0,0.0,0.0,0.0,0.0,0.0,0.0,0.0,0.0,0.0,0.0,0.0,0.0,0.0,0.0,0.0,0.0,0.0,0.0,0.0,0.0,0.0,0.0,0.0,0.0,0.0,0.0,0.0,0.0,0.0,0.0,0.0,0.0,-2.7833,-2.7567,-2.6902,-2.6501,-2.5965,0.0,0.0,0.0,0.0,0.0,0.0,0.0,0.0,0.0,-2.3952,-2.3816,-2.3679,-2.3679,-2.3571,-2.3528,-2.3528,-2.3426,-2.338,-2.338,-2.338,-2.338,-2.338,-2.338,-2.338,-2.334,-2.3006,-2.2859,-2.2859,0.0,0.0,0.0,0.0,-2.2859,-2.2859,0.0,0.0,0.0,0.0,0.0,0.0,0.0,0.0,0.0,0.0,0.0,0.0,-3.864,-3.864,-3.864,-3.864,-3.864,-3.864,-3.864,-3.864,-3.8511,-3.8181,-3.8181,-3.8034,-3.7741,-3.7631,-3.7521,-3.7429,-3.7136,-3.6989,-3.6971,-3.6567,-3.6366,-3.6366,-3.6256,-3.6201,-3.6201,-3.6201,-3.6201,-3.6201,0.0,0.0,0.0,0.0,0.0,0.0,0.0,0.0,0.0,0.0,0.0,0.0,0.0,0.0,0.0,0.0,0.0,0.0,0.0,0.0,0.0,0.0,0.0,0.0,0.0,0.0,0.0,0.0,0.0,0.0,0.0,0.0,0.0,0.0,0.0,0.0,0.0,-2.9316,-2.9168,-2.8114,-2.77,-2.7302,0.0,0.0,0.0,0.0,0.0,0.0,-2.5172,-2.4766,-2.4674,-2.4761,-2.4488,-2.4394,-2.4465,-2.4275,-2.4107,-2.3981,-2.3931,-2.391,-2.3768,-2.3768,-2.3768,-2.3768,-2.3768,-2.3768,-2.3741,-2.3287,-2.31,-2.31,-2.31,-2.31,-2.31,-2.31,-2.31,-2.31,0.0,0.0,0.0,0.0,0.0,0.0,0.0,0.0,0.0,0.0,0.0,-3.864,-3.864,-3.864,-3.864,-3.864,-3.864,-3.864,-3.864,-3.864,-3.864,-3.8603,-3.8603,-3.8603,-3.8585,-3.8199,-3.7796,-3.7429,-3.7411,-3.7393,-3.7393,-3.6989,-3.6806,-3.6787,-3.6384,-3.6201,-3.6201,-3.6201,-3.6201,-3.6201,-3.6201,0.0,0.0,0.0,0.0,0.0,0.0,0.0,0.0,0.0,0.0,0.0,0.0,0.0,0.0,0.0,0.0,0.0,0.0,0.0,0.0,0.0,0.0,0.0,0.0,0.0,0.0,0.0,0.0,0.0,0.0,0.0,0.0,0.0,0.0,0.0,0.0,0.0,0.0,-2.8807,-2.879,0.0,0.0,0.0,0.0,-2.6517,-2.6234,-2.6383,-2.7067,-2.6383,-2.6267,-2.6997,-2.6055,-2.5513,-2.5959,-2.513,-2.4706,-2.4282,-2.4296,-2.4181,-2.3768,-2.3768,-2.3768,-2.3768,-2.3768,-2.3768,-2.3768,-2.3741,-2.3728,-2.3728,-2.3728,-2.3728,-2.3728,-2.3728,-2.3728,-2.3728,0.0,0.0,0.0,0.0,0.0,0.0,0.0,0.0,-3.864,-3.864,-3.864,-3.864,-3.864,-3.864,-3.864,-3.864,-3.864,-3.864,-3.864,-3.864,-3.864,-3.864,-3.864,-3.864,-3.864,-3.8493,-3.8346,-3.8199,-3.7943,-3.7814,-3.7796,-3.7393,-3.7081,-3.6824,-3.6677,-3.6457,-3.6201,-3.6201,-3.6201,-3.6201,-3.6201,-3.6201,0.0,0.0,0.0,0.0,0.0,0.0,0.0,0.0,0.0,0.0,0.0,0.0,0.0,0.0,0.0,0.0,0.0,0.0,0.0,0.0,0.0,0.0,0.0,0.0,0.0,0.0,0.0,0.0,0.0,0.0,0.0,0.0,0.0,0.0,0.0,0.0,0.0,-2.9987,-2.9839,0.0,-2.8888,-2.851,-2.8378,-2.8378,-2.8044,-2.7772,-2.7788,-2.7196,-2.697,-2.7231,-2.6538,-2.6305,-2.6424,-2.6081,-2.5613,-2.4883,-2.4946,-2.4607,-2.4329,-2.4329,-2.4329,-2.4329,-2.4329,-2.4329,-2.4329,-2.4329,-2.4102,-2.3768,-2.3768,-2.3768,-2.3768,-2.3768,-2.3768,-2.3768,0.0,0.0,0.0,0.0,0.0,0.0,0.0,0.0,-3.8798,-3.8798,-3.864,-3.864,-3.864,-3.864,-3.864,-3.864,-3.864,-3.864,-3.864,-3.864,-3.864,-3.864,-3.864,-3.864,-3.864,-3.864,-3.864,-3.864,-3.8365,-3.8218,-3.8218,-3.7814,-3.7484,-3.7228,-3.6952,-3.6677,-3.6402,-3.6274,-3.6201,-3.6201,-3.6201,-3.6201,-3.6201,0.0,0.0,0.0,0.0,0.0,0.0,0.0,0.0,0.0,0.0,0.0,0.0,0.0,0.0,0.0,0.0,0.0,0.0,0.0,0.0,0.0,0.0,0.0,0.0,0.0,0.0,0.0,0.0,0.0,0.0,0.0,0.0,0.0,0.0,0.0,-3.1538,-3.09,-3.09,-3.0751,-3.0487,-3.0223,-3.0091,-3.0091,-2.9781,-2.9362,-2.9108,-2.8381,-2.8019,-2.8145,-2.743,-2.707,-2.7175,-2.6974,-2.6359,-2.5492,-2.5409,-2.5079,-2.4636,-2.4636,-2.4636,-2.4636,-2.4636,-2.4636,-2.4636,-2.4636,-2.4409,-2.4062,-2.4062,-2.4062,-2.4062,-2.4062,-2.4062,-2.4062,0.0,0.0,0.0,0.0,0.0,0.0,-3.9902,-3.9588,-3.9272,-3.9272,-3.8956,-3.864,-3.864,-3.864,-3.864,-3.864,-3.864,-3.864,-3.864,-3.864,-3.864,-3.864,-3.864,-3.864,-3.864,-3.864,-3.864,-3.864,-3.864,-3.864,-3.864,-3.8218,-3.8016,-3.7979,-3.7209,-3.6861,-3.6806,-3.6402,-3.6219,-3.6201,-3.6201,-3.6201,-3.6201,0.0,0.0,0.0,0.0,0.0,0.0,0.0,0.0,0.0,0.0,0.0,0.0,0.0,0.0,0.0,0.0,0.0,0.0,0.0,0.0,0.0,0.0,0.0,0.0,0.0,0.0,0.0,0.0,0.0,0.0,0.0,0.0,0.0,-3.2204,-3.2338,-3.2338,-3.1684,-3.1953,-3.1953,-3.1684,-3.1684,-3.1684,-3.1684,-3.1261,-3.099,-3.099,-2.99,-2.9534,-2.9897,-2.8789,-2.8253,-2.813,-2.784,-2.6969,-2.58,-2.58,-2.5359,-2.4636,-2.4636,-2.4636,-2.4636,-2.4636,-2.4636,-2.4636,-2.4636,-2.4636,-2.4636,-2.4636,-2.4636,-2.4636,-2.4636,-2.4636,-2.4636,0.0,0.0,0.0,0.0,0.0,0.0,-3.9902,-3.9588,-3.9272,-3.9272,-3.8956,-3.864,-3.864,-3.864,-3.864,-3.864,-3.864,-3.864,-3.864,-3.864,-3.864,-3.864,-3.864,-3.864,-3.864,-3.864,-3.864,-3.864,-3.864,-3.864,-3.864,-3.853,-3.831,-3.7998,-3.7796,-3.7374,-3.6824,-3.6714,-3.6494,-3.6201,-3.6201,-3.6201,-3.6201,0.0,0.0,0.0,0.0,0.0,0.0,0.0,0.0,0.0,0.0,0.0,0.0,0.0,0.0,0.0,0.0,0.0,0.0,0.0,0.0,0.0,0.0,0.0,0.0,0.0,0.0,0.0,0.0,0.0,0.0,0.0,-3.3605,-3.3403,-3.2545,-3.2588,-3.2588,-3.2338,-3.2472,-3.2472,-3.2338,-3.2338,-3.2338,-3.2338,-3.2051,-3.1665,-3.1391,-3.0522,-3.0161,-3.0293,-2.9725,-2.9472,-2.9425,-2.8707,-2.7825,-2.6663,-2.6078,-2.5359,-2.4636,-2.4636,-2.4636,-2.4636,-2.4636,-2.4636,-2.4636,-2.4636,-2.4636,-2.4636,-2.4636,-2.4636,-2.4636,-2.4636,-2.4636,-2.4636,0.0,0.0,0.0,0.0,0.0,0.0,-4.0391,-3.9902,-3.9588,-3.9588,-3.8956,-3.864,-3.864,-3.864,-3.864,-3.864,-3.864,-3.864,-3.864,-3.864,-3.864,-3.864,-3.864,-3.864,-3.864,-3.864,-3.864,-3.864,-3.864,-3.864,-3.864,-3.864,-3.8511,-3.8273,-3.8089,-3.7759,-3.7301,-3.6971,-3.6696,-3.6457,-3.6274,-3.6201,-3.6201,-3.6201,-3.6201,-3.6201,-3.6201,-3.6201,-3.6201,-3.6201,0.0,0.0,0.0,0.0,0.0,0.0,0.0,0.0,0.0,0.0,0.0,0.0,0.0,0.0,0.0,0.0,0.0,0.0,0.0,0.0,0.0,0.0,0.0,0.0,-3.3817,-3.3651,-3.3175,-3.3101,-3.3101,-3.3101,-3.3101,-3.3101,-3.3101,-3.3101,-3.3101,-3.3101,-3.2773,-3.2485,-3.2069,-3.1299,-3.0852,-3.0726,-3.0425,-3.014,-2.9855,-2.9569,-2.8764,-2.7452,-2.6714,-2.6043,-2.516,-2.501,-2.501,-2.501,-2.501,-2.501,-2.501,-2.501,-2.501,-2.4983,0.0,0.0,0.0,0.0,-2.4636,-2.4636,0.0,0.0,0.0,0.0,0.0,0.0,-4.1172,-4.0529,-3.9902,-3.9902,-3.9114,-3.864,-3.864,-3.864,-3.864,-3.864,-3.864,-3.864,-3.864,-3.864,-3.864,-3.864,-3.864,-3.864,-3.864,-3.864,-3.864,-3.864,-3.864,-3.864,-3.864,-3.864,-3.864,-3.8621,-3.8255,-3.8053,-3.7961,-3.7264,-3.6952,-3.6861,-3.6457,-3.6256,-3.6201,-3.6201,-3.6201,-3.6201,-3.6201,-3.6201,-3.6201,-3.6201,0.0,0.0,0.0,0.0,0.0,0.0,0.0,0.0,0.0,0.0,0.0,0.0,0.0,0.0,0.0,0.0,0.0,0.0,0.0,0.0,0.0,0.0,0.0,0.0,-3.3817,-3.3817,-3.3817,-3.3817,-3.3817,-3.3817,-3.3817,-3.3817,-3.3817,-3.3817,-3.3817,-3.3817,-3.3575,-3.3193,-3.2913,-3.2245,0.0,0.0,0.0,-3.0985,-3.0398,-3.0582,-2.987,-2.8384,-2.7653,-2.7027,-2.6129,-2.5671,-2.5518,-2.5518,-2.5518,-2.5518,-2.5518,-2.5518,-2.5518,-2.5464,-2.4943,-2.473,-2.473,-2.473,-2.473,-2.473,0.0,0.0,0.0,0.0,0.0,0.0,-4.123,-4.0685,-4.0216,-3.9902,-3.943,-3.8956,-3.864,-3.864,-3.864,-3.864,-3.864,-3.864,-3.864,-3.864,-3.864,-3.864,-3.864,-3.864,-3.864,-3.864,-3.864,-3.864,-3.864,-3.864,-3.864,-3.864,-3.864,-3.864,-3.8566,-3.8328,-3.7998,-3.7851,-3.7594,-3.7283,-3.6879,-3.6512,-3.6201,-3.6201,-3.6201,-3.6201,-3.6201,-3.6201,-3.6201,-3.6201,-3.6201,-3.6201,-3.6201,-3.6201,0.0,0.0,0.0,0.0,0.0,0.0,0.0,0.0,0.0,0.0,0.0,0.0,0.0,0.0,0.0,0.0,0.0,0.0,0.0,-3.3817,-3.3817,-3.3817,-3.3817,-3.3817,-3.3817,-3.3817,-3.3817,-3.3817,-3.3817,-3.3817,-3.3817,-3.3817,-3.383,-3.3729,-3.3729,-3.3589,-3.348,-3.3335,-3.3335,-3.3335,-3.3191,-3.2261,-3.1416,-3.0367,-2.8642,0.0,-2.6572,-2.581,-2.5518,-2.5518,-2.5518,-2.5518,-2.5518,-2.5518,-2.5518,-2.5504,-2.5384,-2.5344,-2.5344,-2.5344,-2.5344,-2.5344,0.0,0.0,0.0,0.0,0.0,0.0,-4.1543,-4.1151,-4.0759,-4.0235,-3.9726,-3.9272,-3.8956,-3.8798,-3.864,-3.864,-3.864,-3.864,-3.864,-3.864,-3.864,-3.864,-3.864,-3.864,-3.864,-3.864,-3.864,-3.864,-3.864,-3.864,-3.864,-3.864,-3.864,-3.864,-3.864,-3.853,-3.831,-3.8108,-3.7906,-3.7686,-3.7283,-3.6879,-3.6494,-3.6292,-3.6201,-3.6201,-3.6201,-3.6201,-3.6201,-3.6201,-3.6201,-3.6201,-3.6201,-3.6201,-3.6201,0.0,0.0,0.0,0.0,0.0,0.0,0.0,0.0,0.0,0.0,0.0,0.0,0.0,0.0,-3.4789,0.0,0.0,-3.4316,-3.3853,-3.3817,-3.3817,-3.3817,-3.3982,-3.4037,-3.3835,-3.3982,-3.411,-3.411,-3.4293,-3.4422,-3.4422,-3.4463,-3.443,-3.4144,-3.4181,-3.4144,-3.3854,-3.4144,-3.4144,-3.3854,-3.3318,-3.2668,-3.1762,-3.014,-2.8862,-2.8096,-2.7017,-2.6411,-2.627,-2.6101,-2.5945,-2.5945,-2.5945,-2.5945,-2.5945,-2.5945,-2.5772,-2.5518,-2.5518,-2.5518,-2.5518,0.0,0.0,0.0,0.0,0.0,0.0,0.0,-4.1519,-4.1187,-4.0683,-3.994,-3.9569,-3.943,-3.9114,-3.8798,-3.8798,-3.864,-3.864,-3.864,-3.864,-3.864,-3.864,-3.864,-3.864,-3.864,-3.864,-3.864,-3.864,-3.864,-3.864,-3.864,-3.864,-3.864,-3.864,-3.864,-3.864,-3.8621,-3.8273,-3.8126,-3.8108,-3.7704,-3.7356,-3.7007,-3.6512,-3.6274,-3.6201,-3.6201,-3.6201,-3.6201,-3.6201,-3.6201,-3.6201,-3.6201,-3.6201,-3.6201,-3.6201,-3.6201,0.0,0.0,0.0,0.0,0.0,0.0,0.0,0.0,0.0,-3.5522,-3.521,-3.5082,-3.4917,-3.4587,-3.4532,-3.4422,-3.4092,-3.4055,-3.4055,-3.4055,-3.433,-3.4403,-3.4092,-3.433,-3.4532,-3.4532,-3.4825,-3.5027,-3.5027,-3.51,-3.4993,-3.4686,-3.4758,-3.4649,-3.4358,-3.4649,-3.4649,-3.4358,-3.4239,-3.3787,-3.2875,-3.1662,-3.0577,-2.9493,-2.8246,-2.7476,-2.7032,-2.6544,-2.6386,-2.6386,-2.6386,-2.6386,-2.6386,-2.6386,-2.6106,-2.5678,-2.5678,-2.5678,-2.5678,0.0,0.0,0.0,0.0,0.0,0.0,0.0,0.0,-4.1619,-4.1245,-4.074,-4.0197,-3.9902,-3.9745,-3.9588,-3.9272,-3.8798,-3.864,-3.864,-3.864,-3.864,-3.864,-3.864,-3.864,-3.864,-3.864,-3.864,-3.864,-3.864,-3.864,-3.864,-3.864,-3.864,-3.864,-3.864,-3.864,-3.864,-3.8585,-3.8566,-3.853,-3.8108,-3.7924,-3.7796,-3.7044,-3.6531,-3.6201,-3.6201,-3.6201,-3.6201,-3.6201,-3.6201,-3.6201,-3.6201,-3.6201,-3.6201,-3.6201,-3.6201,-3.6201,-3.6201,-3.6201,-3.6201,-3.6201,-3.6219,-3.6201,0.0,0.0,-3.5614,-3.5559,-3.5284,-3.5009,-3.4972,-3.4954,-3.4954,-3.4899,-3.4899,-3.4899,-3.4899,-3.4935,-3.4954,-3.4899,-3.4935,-3.4954,-3.4954,-3.5009,-3.5027,-3.5027,-3.5357,-3.5559,-3.5559,-3.5889,-3.5924,-3.5924,-3.5924,-3.5924,-3.5924,-3.5515,-3.4936,-3.4186,-3.2994,-3.1485,-2.9974,-2.873,-2.779,-2.7032,-2.6544,-2.6386,-2.6386,-2.6386,-2.6386,-2.6386,-2.6386,-2.6346,-2.6293,-2.6293,-2.6293,-2.6293,0.0,0.0,0.0,0.0,0.0,0.0,0.0,0.0,0.0,-4.1697,-4.1148,-4.0779,-4.0235,-4.0059,-3.9745,-3.9272,-3.9114,-3.8956,-3.864,-3.864,-3.875,-3.897,-3.8988,-3.9098,-3.9336,-3.9336,-3.9226,-3.8988,-3.8988,-3.886,-3.864,-3.864,-3.864,-3.864,-3.864,-3.864,-3.864,-3.864,-3.864,-3.8621,-3.8456,-3.8236,-3.7979,-3.7649,-3.7264,-3.6861,-3.6384,-3.6201,0.0,-3.6201,-3.6201,-3.6201,-3.6201,-3.6201,-3.6201,-3.6201,-3.6201,-3.6201,-3.6201,-3.6201,0.0,0.0,-3.6201,-3.6201,-3.6201,-3.6072,-3.5962,-3.5962,-3.5834,-3.565,-3.5412,-3.5375,-3.5302,0.0,-3.5027,-3.5027,-3.5027,-3.5229,-3.5375,-3.5375,-3.5577,-3.5632,-3.5394,-3.5577,-3.5724,-3.5724,-3.587,-3.5962,-3.5962,-3.6109,-3.6201,-3.6201,-3.6201,-3.6201,-3.6201,-3.5754,-3.5456,-3.5157,-3.3936,-3.2876,-3.1824,-3.0114,-2.8417,-2.7032,-2.6544,-2.6386,-2.6386,-2.6386,-2.6386,-2.6386,-2.6386,-2.6386,-2.6386,-2.6386,-2.6386,-2.6386,0.0,0.0,0.0,0.0,0.0,0.0,0.0,0.0,0.0,0.0,-4.1713,-4.1322,-4.0897,-4.043,-3.9902,-3.9726,-3.943,-3.9152,-3.8964,-3.8805,-3.8988,-3.9373,-3.9392,-3.9538,-3.9832,-3.985,-3.9703,-3.9392,-3.9392,-3.919,-3.8805,-3.8805,-3.875,-3.864,-3.864,-3.864,-3.864,-3.864,-3.864,-3.864,-3.864,-3.8456,-3.8181,-3.8053,-3.7833,-3.7503,-3.6787,-3.6476,-3.6384,-3.6384,-3.6311,-3.6201,-3.6201,-3.6201,-3.6201,-3.6201,-3.6201,-3.6201,-3.6201,0.0,0.0,-3.6201,-3.6201,-3.6201,-3.6201,-3.6201,-3.6201,-3.6201,-3.6201,-3.6127,-3.5834,-3.5779,-3.5687,-3.5394,-3.5357,-3.5357,-3.5357,-3.5595,-3.5779,-3.5779,-3.6036,-3.6091,-3.5815,-3.6036,-3.6201,-3.6201,-3.6201,-3.6201,-3.6201,-3.6201,-3.6201,-3.6201,-3.6201,-3.6201,-3.6201,-3.5903,-3.5754,-3.5605,-3.4556,-3.3802,-3.3196,-3.0886,-2.8886,-2.7175,-2.6702,-2.6544,-2.6386,-2.6386,-2.6386,-2.6386,-2.6386,-2.6386,-2.6386,-2.6386,-2.6386,-2.6386,0.0,0.0,0.0,0.0,0.0,0.0,0.0,0.0,0.0,0.0,0.0,0.0,0.0,-4.0917,-4.0509,-4.0509,-3.9726,-3.944,-3.985,-3.9387,-3.9392,-3.9795,-3.9832,-3.9832,-3.985,-3.985,-3.9832,-3.9832,-3.9832,-3.9612,-3.9208,-3.9208,-3.9006,-3.864,-3.864,-3.864,-3.864,-3.864,-3.864,-3.864,-3.864,-3.864,-3.8585,-3.8163,-3.8016,-3.7943,-3.7539,-3.7136,-3.6824,-3.6824,-3.6549,-3.6201,-3.6201,-3.6201,-3.6201,-3.6201,-3.6201,-3.6201,-3.6201,0.0,-3.6201,-3.6201,-3.6201,-3.6201,-3.6201,-3.6201,-3.6201,-3.6201,-3.6201,-3.6201,-3.6182,-3.6182,-3.6182,-3.6182,-3.6164,-3.6164,-3.6164,-3.6182,-3.6182,-3.6182,-3.6201,-3.6201,0.0,-3.6201,-3.6201,-3.6201,-3.6201,-3.6201,-3.6201,-3.6201,-3.6201,-3.6201,-3.6201,-3.6201,-3.6201,-3.6201,-3.6052,-3.5605,-3.5157,-3.4406,-3.3044,-3.0577,-2.8871,-2.7633,-2.7175,-2.6716,-2.6386,-2.6386,-2.6386,-2.6386,-2.6386,-2.6386,-2.6386,-2.6386,-2.6386,-2.6386,0.0,0.0,0.0,0.0,0.0,0.0,0.0,0.0,0.0,0.0,0.0,0.0,0.0,0.0,0.0,0.0,-4.1056,-4.0792,-4.0297,-4.0135,-4.0158,-4.0235,-4.0253,-4.0382,-4.0639,-4.0657,-4.0529,-4.0253,-4.0253,-4.0052,-3.963,-3.9355,-3.9153,-3.9025,-3.8768,-3.864,-3.864,-3.864,-3.864,-3.864,-3.864,-3.864,-3.8621,-3.8493,-3.8438,-3.842,0.0,-3.7796,-3.7228,-3.7228,-3.6952,-3.6622,-3.6622,-3.6439,-3.6201,-3.6201,-3.6201,-3.6201,-3.6201,0.0,-3.6201,-3.6201,-3.6201,-3.6201,-3.6201,-3.6201,-3.6201,-3.6201,-3.6201,-3.6201,-3.6201,-3.6201,-3.6201,-3.6201,-3.6201,-3.6201,-3.6201,-3.6201,-3.6201,-3.6201,-3.6201,0.0,0.0,0.0,-3.6201,-3.6201,-3.6201,-3.6201,-3.6201,-3.6201,-3.6201,-3.6201,-3.6201,-3.6201,-3.6201,-3.6201,-3.6052,-3.6052,-3.5605,-3.4707,-3.3196,-3.1807,-3.0268,-2.8871,-2.8118,-2.7647,-2.7162,-2.686,-2.6874,-2.6874,-2.6874,-2.7018,-2.7162,-2.749,-2.7805,-2.7947,0.0,0.0,0.0,0.0,0.0,0.0,0.0,0.0,0.0,0.0,0.0,0.0,0.0,0.0,0.0,0.0,0.0,-4.1552,-4.1197,-4.089,-4.0729,-4.099,-4.0842,-4.0804,-4.106,-4.106,-4.0932,-4.0675,-4.0675,-4.0473,-4.007,-3.9795,-3.9593,-3.9428,-3.9025,-3.886,-3.8841,-3.8695,-3.864,-3.864,-3.864,-3.864,-3.864,-3.864,-3.864,0.0,-3.864,-3.831,-3.7833,-3.7686,-3.7374,-3.7044,-3.7044,-3.6769,-3.6402,-3.6256,-3.6201,-3.6201,-3.6201,-3.6201,-3.6201,-3.6201,-3.6201,-3.6201,-3.6201,-3.6201,-3.6256,-3.6402,-3.6439,-3.6476,-3.6622,-3.6641,-3.6641,-3.6641,-3.6641,-3.6641,-3.6641,-3.6641,-3.6641,-3.6641,-3.6641,-3.6641,0.0,0.0,0.0,-3.6237,-3.6201,-3.6201,-3.6201,-3.6347,-3.6439,-3.6439,-3.6567,-3.6586,-3.6439,-3.6439,-3.6198,-3.5903,-3.5754,-3.4857,-3.3348,-3.2724,-3.1654,-3.0114,-2.9508,-2.8886,-2.8246,-2.7947,-2.7805,-2.7647,-2.7647,-2.7947,-2.8261,-2.8573,-2.9042,-2.9353,0.0,0.0,0.0,0.0,0.0,0.0,0.0,0.0,0.0,0.0,0.0,0.0,0.0,0.0,0.0,0.0,0.0,0.0,-4.2433,-4.1631,-4.1304,-4.1677,-4.1378,-4.106,-4.106,-4.106,-4.106,-4.106,-4.106,-4.0859,-4.051,-4.0473,-4.0253,-3.985,-3.9428,-3.9226,-3.9208,-3.8805,-3.864,-3.864,-3.864,-3.864,-3.864,-3.864,-3.864,-3.864,-3.864,-3.864,-3.8585,-3.8181,-3.7778,-3.7448,-3.7429,-3.7173,-3.6787,-3.6384,-3.6274,-3.6274,-3.6274,-3.6274,-3.6274,-3.6274,-3.6274,-3.6274,-3.6274,-3.6274,-3.6384,-3.6787,-3.6861,-3.6989,0.0,0.0,-3.7429,-3.7429,-3.7429,-3.7429,-3.7429,-3.7429,-3.7429,0.0,0.0,0.0,0.0,0.0,0.0,-3.6329,-3.6274,-3.6274,-3.6274,-3.6641,-3.6861,-3.6861,-3.7228,-3.7246,-3.6861,-3.6861,-3.6509,-3.5659,-3.5659,-3.506,-3.4005,-3.3551,-3.2621,-3.1533,-3.1071,-3.0438,-2.9649,-2.9649,-2.9353,-2.9042,-2.9042,-2.9197,-2.9649,-2.9649,-3.0114,-3.0732,0.0,0.0,0.0,0.0,0.0,0.0,0.0,0.0,0.0,0.0,0.0,0.0,0.0,0.0,0.0,0.0,0.0,0.0,-4.2895,-4.2397,-4.1955,-4.1695,-4.1378,-4.106,-4.106,-4.106,-4.106,-4.106,-4.106,-4.1005,-4.0895,-4.0602,-4.0418,-4.0272,-3.9557,-3.9226,-3.9208,-3.8805,-3.864,-3.864,-3.864,-3.864,-3.864,-3.864,-3.864,-3.864,-3.864,-3.864,-3.8621,-3.8511,-3.8199,-3.7814,-3.7521,-3.7356,-3.7246,-3.7136,0.0,-3.7118,-3.7118,-3.7118,-3.7118,-3.7118,-3.7118,-3.7118,-3.7118,-3.7118,-3.7136,-3.7246,-3.7588,-3.7778,0.0,0.0,0.0,-3.7908,-3.7583,0.0,-3.7429,-3.7429,0.0,-3.7429,0.0,-3.7429,-3.7429,-3.7429,0.0,0.0,-3.7118,-3.7118,-3.7118,-3.7209,-3.7283,-3.7283,-3.7374,-3.7374,-3.7283,-3.7283,-3.7075,-3.6965,-3.6965,-3.666,-3.6029,-3.5568,-3.4796,-3.3583,-3.3122,-3.2358,-3.1347,-3.1024,-3.0577,-3.0268,-3.0268,-3.0732,-3.1347,-3.1654,-3.2283,-3.3028,0.0,0.0,0.0,0.0,0.0,0.0,0.0,0.0,0.0,0.0,0.0,0.0,0.0,0.0,0.0,0.0,0.0,0.0,0.0,-4.2902,-4.2569,-4.2049,-4.1546,-4.121,-4.106,-4.106,-4.106,-4.106,-4.106,-4.106,-4.106,-4.084,-4.073,-4.0694,-3.9868,-3.9502,-3.9465,-3.8878,-3.864,0.0,0.0,-3.864,-3.864,-3.864,-3.864,-3.864,-3.864,-3.864,-3.864,0.0,0.0,-3.8218,-3.7814,-3.7686,-3.7649,-3.7466,0.0,-3.7429,-3.7429,-3.7429,-3.7429,-3.7429,-3.7429,-3.7429,-3.7429,-3.7429,-3.7484,-3.7958,-3.8168,-3.8532,-3.8874,-3.8756,0.0,0.0,0.0,0.0,-3.7961,-3.7961,-3.7961,0.0,-3.7961,0.0,-3.7961,-3.7961,-3.7961,0.0,-3.7631,-3.7429,-3.7429,-3.7594,-3.7686,-3.7686,-3.7869,-3.7869,-3.7686,-3.7503,-3.7429,-3.7429,-3.7429,-3.7122,-3.6796,-3.6487,-3.6053,-3.5225,-3.4917,-3.4333,-3.3496,-3.3192,-3.2649,-3.2325,-3.2178,-3.2419,-3.3028,-3.3348,-3.3802,-3.4406,0.0,0.0,0.0,0.0,0.0,0.0,0.0,0.0,0.0,0.0,0.0,0.0,0.0,0.0,0.0,0.0,0.0,0.0,0.0,0.0,-4.2902,-4.2569,-4.2049,-4.1546,-4.1229,-4.106,-4.106,-4.106,-4.106,-4.106,-4.106,-4.106,-4.106,-4.1024,-4.0198,-3.985,-3.9795,-3.8988,-3.864,-3.864,-3.864,-3.864,-3.864,0.0,-3.864,-3.864,-3.864,-3.864,-3.864,0.0,-3.864,-3.8585,-3.8218,-3.8089,-3.8034,-3.7686,-3.7594,-3.7594,-3.7594,-3.7594,-3.7594,-3.7594,-3.7594,-3.7594,-3.7594,-3.7594,-3.7841,-3.8676,-3.8906,-3.9174,-3.9845,-3.9588,-3.943,-3.943,0.0,-3.864,-3.864,-3.864,-3.864,-3.864,-3.864,-3.864,-3.864,-3.864,-3.864,-3.864,-3.7979,-3.7594,-3.7594,-3.7906,-3.8089,-3.8089,-3.8456,-3.8456,-3.8108,-3.7759,-3.7594,-3.7594,-3.7594,-3.744,-3.6958,-3.6958,-3.6767,-3.6421,-3.6421,-3.623,-3.5694,-3.5362,-3.5068,-3.4556,-3.4229,-3.4394,-3.4696,-3.4644,-3.4928,-3.5228,0.0,0.0,0.0,0.0,0.0,0.0,0.0,0.0,0.0,0.0,-4.3711,0.0,0.0,0.0,0.0,0.0,0.0,0.0,0.0,0.0,0.0,-4.2902,-4.2216,-4.1695,-4.1546,-4.1229,-4.106,-4.106,-4.106,-4.106,-4.106,-4.106,-4.106,-4.1024,-4.0198,-3.985,-3.9795,-3.8988,-3.864,-3.864,-3.864,-3.864,-3.864,-3.864,0.0,0.0,-3.864,-3.864,-3.864,-3.864,-3.864,-3.864,-3.8566,-3.853,-3.853,-3.8456,-3.8438,-3.8438,-3.8438,-3.8438,-3.8438,-3.8438,-3.8438,-3.8438,-3.8438,-3.8734,0.0,-3.9142,-3.9788,-4.0276,-4.0334,-4.0059,-3.9745,-3.9745,-3.9114,-3.864,-3.864,-3.864,-3.864,0.0,0.0,0.0,-3.864,-3.864,0.0,0.0,-3.8511,-3.8438,-3.8438,-3.8493,-3.853,-3.853,-3.8603,-3.8603,-3.853,-3.8456,-3.8438,-3.8438,-3.8438,-3.8438,-3.828,-3.828,-3.8079,-3.775,-3.775,-3.7258,-3.6641,-3.6569,-3.6225,-3.5916,-3.5846,-3.5982,-3.6408,-3.6084,-3.611,-3.6376,0.0,0.0,0.0,0.0,0.0,0.0,0.0,0.0,0.0,-4.3711,-4.3711,-4.3711,0.0,0.0,0.0,0.0,0.0,0.0,0.0,0.0,0.0,0.0,-4.2716,-4.2216,-4.1695,-4.1546,-4.1378,-4.106,0.0,-4.106,-4.106,-4.106,-4.106,-4.1024,-4.0198,-3.985,-3.9795,-3.8988,-3.864,-3.864,-3.864,-3.864,-3.864,-3.864,0.0,0.0,0.0,-3.864,-3.864,-3.864,-3.864,-3.864,-3.864,-3.864,-3.864,-3.864,-3.864,-3.864,-3.864,-3.864,-3.864,-3.864,-3.864,-3.864,-3.8956,0.0,0.0,-3.9883,-4.0197,-4.0509,-4.0841,-4.0529,-4.0216,-3.9902,-3.943,-3.8956,-3.864,-3.864,0.0,-3.864,-3.864,-3.864,0.0,-3.864,-3.864,-3.864,-3.864,-3.864,-3.864,-3.864,-3.864,-3.864,-3.864,-3.864,-3.864,-3.864,-3.864,-3.864,-3.864,-3.864,-3.864,-3.864,-3.853,-3.8346,-3.8346,-3.8079,-3.7722,-3.7504,-3.7258,-3.7084,-3.6886,-3.695,-3.7085,-3.6904,-3.6983,-3.7118,0.0,0.0,0.0,0.0,0.0,0.0,0.0,-4.3711,-4.3711,-4.3711,-4.3711,-4.3711,-4.3711,-4.3711,-4.3711,0.0,0.0,0.0,0.0,0.0,0.0,0.0,0.0,0.0,-4.2049,0.0,0.0,-4.121,-4.106,0.0,0.0,0.0,0.0,0.0,-4.0198,-3.985,-3.9795,-3.8988,-3.864,0.0,0.0,-3.864,-3.864,0.0,0.0,0.0,0.0,0.0,-3.8798,-3.8798,-3.8798,-3.8798,-3.864,-3.864,-3.864,-3.864,-3.864,-3.864,-3.864,-3.864,-3.864,-3.864,-3.864,-3.8798,-3.9272,-3.943,-3.9569,-4.0353,-4.0509,-4.0841,-4.1172,-4.0841,-4.0353,0.0,-3.9588,-3.9114,-3.8798,-3.864,-3.864,0.0,-3.864,0.0,-3.864,-3.864,0.0,-3.864,-3.864,-3.864,-3.864,-3.864,-3.864,-3.864,-3.864,-3.864,-3.864,-3.864,-3.864,-3.864,-3.864,-3.864,-3.864,-3.864,-3.864,-3.864,-3.864,-3.864,-3.8621,-3.8291,-3.8144,-3.8126,-3.7814,-3.7686,-3.7668,-3.7576,-3.7558,-3.7539,0.0,0.0,0.0,0.0,0.0,0.0,0.0,-4.3711,-4.3711,-4.3711,-4.3711,-4.3711,-4.3711,-4.3711,-4.3711,0.0,0.0,0.0,0.0,0.0,0.0,0.0,0.0,0.0,0.0,0.0,0.0,-4.1695,-4.121,0.0,0.0,0.0,0.0,0.0,0.0,-3.985,-3.9795,-3.8988,0.0,0.0,0.0,0.0,0.0,0.0,0.0,0.0,0.0,-3.9272,-3.9272,0.0,0.0,-3.9114,-3.8798,-3.864,-3.864,-3.864,0.0,0.0,-3.864,-3.864,-3.864,-3.864,-3.864,-3.8798,-3.9272,-3.9588,-3.9902,-4.0353,-4.0841,-4.1172,-4.1172,-4.0841,-4.0509,-4.0509,-3.9726,-3.9272,-3.9272,-3.8798,-3.864,-3.864,0.0,0.0,-3.864,-3.864,-3.864,-3.864,-3.864,-3.864,-3.864,-3.864,-3.864,-3.864,-3.864,-3.864,-3.864,-3.864,-3.864,-3.864,-3.864,-3.864,-3.864,-3.864,-3.864,-3.864,-3.864,-3.864,-3.864,-3.8603,-3.8585,-3.8585,-3.8548,-3.853,-3.8493,-3.8108,-3.7961,-3.7906,0.0,0.0,0.0,0.0,0.0,0.0,0.0,-4.3711,-4.3711,-4.3711,-4.3711,-4.3711,-4.3711,-4.3711,-4.3711,0.0,0.0,0.0,0.0,0.0,0.0,0.0,0.0,0.0,0.0,0.0,-4.2216,-4.1695,-4.1882,0.0,0.0,0.0,0.0,0.0,0.0,-4.0029,-3.9447,-3.8878,0.0,0.0,0.0,0.0,0.0,0.0,0.0,0.0,0.0,0.0,-3.9272,-3.9588,0.0,0.0,-3.943,-3.9272,0.0,0.0,-3.864,-3.864,-3.864,-3.864,-3.864,-3.864,-3.864,-3.8798,-3.943,-3.9745,-4.0059,-4.0841,-4.1016,-4.1172,-4.1172,-4.1016,-4.0841,-4.0509,-4.0197,-3.9883,-3.9745,-3.9272,-3.8956,-3.8956,-3.8798,0.0,0.0,0.0,-3.864,-3.864,-3.864,-3.864,-3.864,-3.864,-3.864,-3.864,-3.864,-3.864,-3.864,-3.864,-3.864,-3.864,-3.864,-3.864,-3.864,-3.864,-3.864,-3.864,-3.864,-3.864,-3.864,-3.864,-3.864,-3.864,-3.864,-3.864,-3.8621,-3.8456,-3.8383,-3.8365,0.0,0.0,0.0,0.0,0.0,-4.3867,-4.373,-4.3711,-4.3711,-4.3711,-4.3711,-4.3711,-4.3711,-4.3711,-4.3711,-4.3711,0.0,0.0,0.0,0.0,0.0,0.0,0.0,0.0,0.0,0.0,-4.2716,-4.2049,-4.2235,-4.2235,0.0,0.0,-4.1895,-4.1245,0.0,0.0,0.0,0.0,0.0,0.0,0.0,0.0,0.0,0.0,0.0,0.0,0.0,0.0,0.0,0.0,0.0,0.0,0.0,-3.9745,-3.943,-3.8956,-3.864,-3.864,-3.864,-3.864,-3.864,-3.864,-3.864,-3.8956,-3.9745,-4.0059,-4.0216,-4.1016,-4.1172,-4.1172,-4.1172,-4.1172,-4.1016,-4.0841,-4.0666,-4.0353,-4.0059,-3.9588,-3.9272,0.0,0.0,0.0,0.0,-3.864,-3.864,-3.864,-3.864,-3.864,-3.864,-3.864,-3.864,-3.864,-3.864,-3.864,-3.864,-3.864,-3.864,-3.864,-3.864,-3.864,-3.864,-3.864,-3.864,-3.864,-3.864,-3.864,-3.864,-3.864,-3.864,-3.864,-3.864,-3.864,-3.864,-3.864,-3.864,-3.864,0.0,0.0,0.0,0.0,0.0,0.0,0.0,-4.3711,-4.3711,-4.3711,-4.3711,-4.3711,-4.3711,-4.3711,-4.3711,-4.3711,0.0,0.0,0.0,0.0,0.0,0.0,0.0,0.0,0.0,0.0,0.0,-4.3068,-4.2569,-4.2402,-4.2402,-4.1966,-4.1777,-4.1739,0.0,0.0,0.0,0.0,0.0,0.0,0.0,0.0,-3.9272,0.0,0.0,0.0,0.0,0.0,0.0,0.0,0.0,0.0,0.0,-3.9902,-3.9745,-3.943,-3.8956,-3.864,-3.864,-3.864,-3.864,-3.864,-3.8956,-3.943,-3.9745,-4.0197,-4.0666,-4.1172,-4.1172,-4.1172,-4.1172,-4.1172,-4.1172,-4.1172,-4.0841,-4.0509,-4.0509,-3.9726,-3.9272,0.0,0.0,0.0,-3.864,-3.864,-3.864,-3.864,-3.864,-3.864,-3.864,-3.864,-3.864,-3.864,-3.864,-3.864,-3.864,-3.864,-3.864,-3.864,-3.864,-3.864,-3.864,-3.864,-3.864,-3.864,-3.864,-3.864,-3.864,-3.864,-3.864,-3.864,-3.864,-3.864,-3.864,-3.864,-3.864,-3.864,0.0,0.0,0.0,0.0,0.0,0.0,0.0,-4.3906,-4.3711,-4.3711,-4.3711,-4.3711,-4.3711,-4.3711,-4.3711,-4.3711,0.0,0.0,0.0,0.0,0.0,0.0,0.0,0.0,0.0,0.0,0.0,-4.3068,-4.2944,-4.2625,-4.2461,-4.2183,-4.1837,-4.1388,-4.11,-4.0515,0.0,0.0,0.0,0.0,0.0,-3.943,-3.9272,0.0,0.0,0.0,0.0,0.0,0.0,0.0,0.0,0.0,0.0,0.0,0.0,-4.0197,-3.9569,-3.9114,-3.9114,-3.8798,-3.864,-3.8956,-3.9272,-3.943,-4.0197,-4.0353,-4.0666,-4.1172,-4.1172,-4.1172,-4.1172,-4.1172,-4.1172,-4.1172,-4.1016,-4.0997,-4.0997,0.0,0.0,0.0,0.0,-3.864,0.0,0.0,-3.864,-3.864,-3.864,-3.864,-3.864,-3.864,-3.864,-3.864,-3.864,-3.864,-3.864,-3.864,-3.864,-3.864,-3.864,-3.864,-3.864,-3.864,-3.864,-3.864,-3.864,-3.864,-3.864,-3.864,-3.864,-3.864,-3.864,-3.864,-3.864,-3.864,-3.864,-3.864,0.0,0.0,0.0,0.0,0.0,0.0,0.0,-4.4004,-4.3711,-4.3711,-4.3711,-4.3711,-4.3711,-4.3711,-4.3711,-4.3711,0.0,0.0,0.0,0.0,0.0,0.0,0.0,0.0,0.0,0.0,-4.3468,-4.3147,-4.304,-4.2826,-4.2326,-4.2222,-4.1892,-4.1461,-4.1306,-4.0779,0.0,0.0,0.0,0.0,-3.9902,-3.9902,-3.9726,0.0,0.0,0.0,0.0,0.0,0.0,0.0,0.0,0.0,0.0,0.0,0.0,0.0,-4.0197,-3.9726,-3.9588,-3.9272,-3.9114,-3.943,-3.9588,-3.9883,-4.0353,-4.0666,-4.0841,-4.1172,-4.1172,-4.1172,-4.1172,-4.1172,-4.1172,-4.1172,-4.1172,-4.1172,-4.0997,0.0,0.0,0.0,0.0,0.0,0.0,-3.864,-3.864,-3.864,-3.864,-3.864,-3.864,-3.864,-3.864,-3.864,-3.864,-3.864,-3.864,-3.864,-3.864,-3.864,-3.864,-3.864,-3.864,-3.864,-3.864,-3.864,-3.864,-3.864,0.0,-3.864,-3.864,-3.864,-3.864,-3.864,-3.864,-3.864,-3.864,-3.864,0.0,0.0,0.0,0.0,0.0,0.0,0.0,0.0,0.0,-4.3711,-4.3711,-4.3711,-4.3711,-4.3711,-4.3711,-4.3711,0.0,0.0,0.0,0.0,0.0,0.0,0.0,0.0,0.0,-4.3652,-4.3457,-4.3027,-4.3008,-4.2773,-4.2383,-4.1953,-4.1758,-4.1738,-4.1348,-4.0997,0.0,0.0,0.0,0.0,-4.0216,-4.0216,0.0,0.0,0.0,0.0,0.0,0.0,0.0,0.0,0.0,0.0,0.0,0.0,0.0,0.0,0.0,0.0,0.0,-3.9902,-3.9902,-3.9902,-4.0197,-4.0509,-4.0509,-4.0841,0.0,0.0,-4.1172,-4.1172,-4.1172,-4.1172,-4.1172,-4.1172,-4.1172,-4.1016,-4.0509,-4.0216,0.0,0.0,0.0,0.0,-3.864,-3.864,-3.864,-3.864,-3.864,-3.864,-3.864,-3.864,-3.864,-3.864,-3.864,-3.864,-3.864,-3.864,-3.864,-3.864,-3.864,-3.864,-3.864,-3.864,-3.864,-3.864,-3.864,-3.864,-3.864,-3.864,-3.864,-3.864,-3.864,-3.864,-3.864,-3.864,-3.864,-3.864,0.0,0.0,0.0,0.0,0.0,0.0,0.0,0.0,0.0,0.0,-4.3711,-4.3711,-4.3711,-4.3711,-4.3711,0.0,0.0,0.0,0.0,0.0,0.0,0.0,0.0,0.0,0.0,-4.3223,-4.3008,-4.2578,-4.2266,-4.2051,-4.1933,-4.1523,-4.1328,-4.1308,-4.1211,0.0,0.0,0.0,0.0,0.0,-4.086,-4.0685,0.0,0.0,0.0,0.0,-4.0509,-4.0841,0.0,0.0,0.0,0.0,0.0,0.0,0.0,0.0,-4.1172,-4.0997,-4.086,0.0,-3.9902,-4.0197,-4.0353,-4.0666,0.0,-4.1172,0.0,0.0,0.0,0.0,0.0,-4.1172,-4.1172,-4.1172,-4.1172,-4.1016,-4.0509,0.0,0.0,0.0,0.0,0.0,-3.864,-3.864,-3.864,-3.864,-3.864,-3.864,-3.864,-3.864,-3.864,-3.864,-3.864,-3.864,-3.864,-3.864,-3.864,-3.864,-3.864,-3.864,-3.864,-3.864,-3.864,-3.864,-3.864,-3.864,-3.864,-3.864,-3.864,-3.864,-3.864,-3.864,-3.864,-3.864,-3.864,-3.864,0.0,0.0,0.0,0.0,0.0,0.0,0.0,0.0,0.0,0.0,0.0,0.0,0.0,0.0,0.0,0.0,0.0,0.0,0.0,0.0,0.0,0.0,0.0,0.0,-4.3086,-4.3086,-4.2773,-4.2148,-4.1914,-4.1699,-4.1504,-4.1289,-4.1172,-4.1172,-4.1172,0.0,0.0,0.0,0.0,-4.1172,-4.1172,0.0,0.0,0.0,0.0,0.0,-4.0841,-4.0997,0.0,-4.1172,-4.1172,-4.1172,0.0,0.0,0.0,0.0,-4.1172,-4.1172,-4.1172,-4.086,-4.0529,-4.0841,-4.0841,-4.0841,-4.1172,0.0,0.0,0.0,0.0,0.0,0.0,0.0,0.0,-4.1172,-4.1016,-4.0685,0.0,0.0,0.0,0.0,0.0,-3.864,0.0,-3.864,-3.864,-3.864,-3.864,-3.864,-3.864,-3.864,-3.864,-3.864,-3.864,-3.864,-3.864,-3.864,-3.864,-3.864,-3.864,-3.864,-3.864,-3.864,-3.864,-3.864,-3.864,-3.864,-3.864,-3.864,-3.864,-3.864,-3.864,-3.864,-3.864,-3.864,-3.864,-3.864,0.0,0.0,0.0,0.0,0.0,0.0,0.0,0.0,0.0,0.0,0.0,0.0,0.0,0.0,0.0,0.0,0.0,0.0,0.0,0.0,0.0,0.0,0.0,-4.3476,-4.2988,-4.2969,-4.2558,-4.1699,-4.1699,-4.1523,-4.1172,-4.1172,-4.1172,-4.1172,-4.1172,-4.1172,0.0,0.0,-4.1172,-4.1172,-4.1172,0.0,0.0,0.0,0.0,0.0,0.0,0.0,0.0,-4.1172,-4.1172,-4.1172,-4.1172,0.0,0.0,0.0,0.0,0.0,-4.1172,-4.1172,-4.1172,-4.1172,-4.1172,-4.1172,-4.1172,0.0,0.0,0.0,0.0,0.0,0.0,0.0,0.0,0.0,0.0,0.0,0.0,0.0,0.0,0.0,0.0,0.0,-3.864,-3.864,-3.864,-3.864,-3.864,-3.864,-3.864,-3.864,-3.864,-3.864,-3.864,-3.864,-3.864,-3.864,-3.864,-3.864,-3.864,-3.864,-3.864,-3.864,-3.864,-3.864,-3.864,-3.864,-3.864,-3.864,-3.864,-3.864,-3.864,-3.864,-3.864,-3.864,-3.864,-3.864,0.0,0.0,0.0,0.0,0.0,0.0,0.0,0.0,0.0,0.0,0.0,0.0,0.0,0.0,0.0,0.0,0.0,0.0,0.0,0.0,0.0,0.0,-4.3711,-4.334,-4.2539,-4.2519,-4.2109,-4.1269,-4.1269,-4.123,-4.1172,-4.1172,-4.1172,-4.1172,-4.1172,-4.1172,-4.1172,-4.1172,-4.1172,-4.1172,-4.1172,0.0,0.0,0.0,0.0,0.0,0.0,0.0,0.0,-4.1172,-4.1172,-4.1172,-4.1172,0.0,0.0,0.0,0.0,0.0,-4.1172,-4.0841,-4.0666,-4.1172,-4.1172,-4.1172,-4.1172,0.0,0.0,0.0,0.0,0.0,0.0,0.0,0.0,0.0,0.0,0.0,0.0,0.0,0.0,0.0,0.0,-3.864,-3.864,-3.864,-3.864,-3.864,-3.864,-3.864,-3.864,-3.864,-3.864,-3.864,-3.864,-3.864,-3.864,-3.864,-3.864,-3.864,-3.864,-3.864,-3.864,-3.864,-3.864,-3.864,-3.864,-3.864,-3.864,-3.864,-3.864,-3.864,-3.864,-3.864,-3.864,-3.864,-3.864,-3.864,0.0,0.0,0.0,0.0,0.0,0.0,0.0,0.0,0.0,0.0,0.0,0.0,0.0,0.0,0.0,0.0,0.0,0.0,0.0,0.0,0.0,-4.3711,-4.3711,-4.3301,-4.2441,-4.2422,-4.2012,-4.1172,-4.1172,-4.1172,-4.1172,-4.1172,-4.1172,-4.1172,-4.1172,-4.1172,-4.1172,-4.1172,-4.1172,-4.1172,0.0,0.0,0.0,0.0,0.0,0.0,0.0,0.0,0.0,0.0,-4.1172,-4.1172,-4.1172,0.0,0.0,0.0,0.0,0.0,-4.1172,-4.0841,-4.0509,-4.0841,-4.0685,-4.0548,0.0,0.0,0.0,0.0,0.0,0.0,0.0,0.0,0.0,0.0,0.0,0.0,0.0,0.0,-3.864,0.0,0.0,-3.864,-3.864,-3.864,-3.864,-3.864,-3.864,-3.864,-3.864,-3.864,-3.864,-3.864,-3.864,-3.864,-3.864,-3.864,-3.864,-3.864,-3.864,-3.864,-3.864,-3.864,-3.864,-3.864,-3.864,-3.864,-3.864,-3.864,-3.864,-3.864,-3.864,-3.864,-3.864,-3.864,-3.864,-3.864,0.0,0.0,0.0,0.0,0.0,0.0,0.0,0.0,0.0,0.0,0.0,0.0,0.0,0.0,0.0,0.0,0.0,0.0,0.0,0.0,-4.3711,-4.3711,-4.3711,-4.3301,-4.2441,-4.2422,-4.2012,-4.1172,-4.1172,-4.1172,-4.1172,-4.1172,-4.1172,-4.1172,-4.1172,-4.1172,-4.1172,-4.1172,-4.1172,-4.1172,0.0,0.0,0.0,0.0,0.0,0.0,0.0,0.0,0.0,0.0,0.0,0.0,0.0,0.0,0.0,-4.1172,-4.1172,-4.1172,-4.1172,-4.0841,-4.0509,-4.0353,0.0,0.0,0.0,0.0,0.0,0.0,0.0,0.0,0.0,0.0,0.0,0.0,0.0,0.0,0.0,-3.864,-3.864,-3.864,-3.864,-3.864,-3.864,-3.864,-3.864,-3.864,-3.864,-3.864,-3.864,-3.864,-3.864,-3.864,-3.864,-3.864,-3.864,-3.864,-3.864,-3.864,-3.864,-3.864,-3.864,-3.864,-3.864,-3.864,-3.864,-3.864,-3.864,-3.864,-3.864,-3.864,-3.864,-3.864,-3.864,-3.864,-3.864,-3.864,0.0,0.0,0.0,0.0,0.0,0.0,0.0,0.0,0.0,0.0,0.0,0.0,0.0,0.0,0.0,0.0,0.0,0.0,0.0,0.0,-4.3711,-4.3711,-4.3711,-4.3301,-4.2441,-4.2422,-4.2012,-4.1172,-4.1172,-4.1172,-4.1172,-4.1172,-4.1172,-4.1172,-4.1172,-4.1172,-4.1172,-4.1172,-4.1172,-4.1172,-4.1172,0.0,0.0,0.0,0.0,0.0,0.0,0.0,0.0,0.0,0.0,0.0,0.0,0.0,-4.1172,-4.1172,-4.1172,-4.1172,-4.1172,-4.0841,-4.0353,-4.0059,0.0,0.0,0.0,0.0,0.0,0.0,0.0,0.0,0.0,0.0,0.0,0.0,0.0,0.0,-3.864,0.0,-3.864,-3.864,-3.864,-3.864,-3.864,-3.864,-3.864,-3.864,-3.864,-3.864,-3.864,-3.864,-3.864,-3.864,-3.864,-3.864,-3.864,-3.864,-3.864,-3.864,-3.864,-3.864,-3.864,-3.864,-3.864,-3.864,-3.864,-3.864,-3.864,-3.864,-3.864,-3.864,-3.864,-3.864,-3.864,-3.864,-3.864,-3.864,0.0,0.0,0.0,0.0,0.0,0.0,0.0,0.0,0.0,0.0,0.0,0.0,0.0,0.0,0.0,0.0,0.0,0.0,0.0,0.0,-4.3711,-4.3711,-4.3711,-4.3437,-4.2851,-4.2558,-4.2012,-4.1172,-4.1172,-4.1172,-4.1172,-4.1172,-4.1172,-4.1172,-4.1172,-4.1172,0.0,-4.1172,-4.1172,-4.1172,-4.1172,-4.1172,0.0,0.0,0.0,0.0,0.0,0.0,0.0,0.0,-4.1172,-4.1172,-4.1172,-4.1172,-4.1172,-4.1172,-4.1172,-4.1172,-4.0841,-4.0529,-4.0059,-3.9588,0.0,0.0,0.0,0.0,0.0,0.0,0.0,0.0,0.0,0.0,0.0,0.0,0.0,-3.864,-3.864,-3.864,-3.864,-3.864,-3.864,-3.864,-3.864,-3.864,-3.864,-3.864,-3.864,-3.864,-3.864,-3.864,-3.864,-3.864,-3.864,-3.864,-3.864,-3.864,-3.864,-3.864,-3.864,-3.864,-3.864,-3.864,-3.864,-3.864,-3.864,-3.864,-3.864,-3.864,-3.864,-3.864,-3.864,-3.864,-3.864,-3.864,-3.864,-3.864,0.0,0.0,0.0,0.0,0.0,0.0,0.0,0.0,0.0,0.0,0.0,0.0,0.0,0.0,0.0,0.0,0.0,0.0,-4.3711,-4.3711,-4.3711,-4.3711,-4.3711,-4.3496,-4.3086,-4.2793,-4.2226,-4.1367,-4.123,-4.1172,-4.1172,-4.1172,-4.1172,-4.1172,-4.1172,0.0,0.0,0.0,-4.1172,-4.1172,-4.1172,-4.1172,0.0,0.0,0.0,0.0,0.0,0.0,0.0,0.0,-4.1172,-4.1172,-4.1172,-4.1172,-4.1172,-4.1172,-4.1172,-4.0841,-4.0666,-4.0216,-3.9745,-3.943,0.0,0.0,0.0,0.0,0.0,0.0,0.0,0.0,0.0,0.0,0.0,0.0,-3.864,-3.864,-3.864,-3.864,-3.864,-3.864,-3.864,-3.864,-3.864,-3.864,-3.864,-3.864,-3.864,-3.864,-3.864,-3.864,-3.864,-3.864,-3.864,-3.864,-3.864,-3.864,-3.864,-3.864,-3.864,-3.864,-3.864,-3.864,-3.864,-3.864,-3.864,-3.864,-3.864,-3.864,-3.864,-3.864,-3.864,-3.864,-3.864,-3.864,-3.864,-3.864,0.0,0.0,0.0,0.0,0.0,0.0,0.0,0.0,0.0,0.0,0.0,0.0,0.0,0.0,0.0,0.0,0.0,0.0,-4.3711,-4.3711,-4.3711,-4.3711,-4.3711,-4.3516,-4.3086,-4.3086,-4.2656,-4.1797,-4.1387,-4.1172,-4.1172,-4.1172,-4.1172,-4.1172,-4.1172,0.0,0.0,0.0,-4.1172,-4.1172,-4.1172,-4.1172,-4.1172,0.0,0.0,0.0,0.0,0.0,0.0,0.0,-4.1172,-4.1172,-4.1172,-4.1172,-4.1172,-4.1172,-4.0841,-4.0509,-4.0509,-4.0216,-3.9745,0.0,0.0,0.0,0.0,0.0,0.0,0.0,0.0,0.0,0.0,0.0,0.0,0.0,-3.864,-3.864,-3.8658,-3.8658,-3.8658,-3.8658,-3.8658,-3.8658,-3.8658,-3.8658,-3.8658,-3.8658,-3.8658,-3.8658,-3.8658,-3.8658,-3.8658,-3.8658,-3.864,-3.864,-3.864,-3.864,-3.864,-3.864,-3.864,-3.864,-3.864,-3.864,-3.864,-3.864,-3.864,-3.864,-3.864,-3.864,-3.864,-3.864,-3.864,-3.864,-3.864,-3.864,-3.864,-3.864,0.0,0.0,0.0,0.0,0.0,0.0,0.0,0.0,0.0,0.0,0.0,0.0,0.0,0.0,0.0,0.0,0.0,0.0,-4.3711,-4.3711,-4.3711,-4.3711,-4.3711,-4.3652,-4.3516,-4.3223,-4.2656,-4.1797,-4.1387,-4.1172,-4.1172,-4.1172,-4.1172,-4.1172,-4.1172,0.0,0.0,0.0,-4.1445,-4.1191,-4.1484,-4.1426,-4.1172,0.0,0.0,0.0,0.0,0.0,0.0,0.0,0.0,0.0,-4.1172,-4.1172,-4.1172,-4.0841,-4.0666,-4.0353,-3.9883,0.0,0.0,0.0,0.0,0.0,0.0,0.0,0.0,0.0,0.0,0.0,0.0,0.0,0.0,-3.864,-3.864,-3.8731,-3.9025,-3.9061,-3.9171,-3.9447,-3.9483,-3.9483,-3.9483,-3.9483,-3.9483,-3.9483,-3.9483,-3.9483,-3.9483,-3.9208,-3.9061,-3.9061,-3.8786,-3.864,-3.864,-3.864,-3.864,-3.864,-3.864,-3.864,-3.864,-3.864,-3.864,-3.864,-3.864,-3.864,-3.864,-3.864,-3.864,-3.864,-3.864,-3.864,-3.864,-3.864,-3.864,-3.864,0.0,0.0,0.0,0.0,0.0,0.0,0.0,0.0,0.0,0.0,-4.5703,-4.5215,0.0,0.0,0.0,0.0,0.0,0.0,0.0,-4.3711,-4.3711,-4.3711,-4.3711,-4.3711,-4.3711,-4.3301,-4.2812,-4.2305,-4.1719,-4.1348,-4.1172,-4.1172,-4.1172,-4.1172,-4.1172,-4.1172,0.0,0.0,-4.1406,-4.1191,-4.1445,-4.1406,-4.1172,0.0,0.0,0.0,0.0,0.0,0.0,0.0,0.0,0.0,-4.1172,-4.1172,-4.1172,-4.0666,-4.0353,-4.004,-3.943,0.0,0.0,0.0,0.0,0.0,0.0,0.0,0.0,0.0,0.0,0.0,0.0,0.0,0.0,-3.864,-3.8768,-3.8951,-3.9208,-3.9373,-3.9557,-3.9813,-3.985,-3.985,-3.985,-3.985,-3.985,-3.985,-3.985,-3.985,-3.985,-3.9612,-3.9483,-3.9483,-3.908,-3.8878,-3.8878,-3.8731,-3.864,-3.864,-3.864,-3.864,-3.864,-3.864,-3.864,-3.864,-3.864,-3.864,-3.864,-3.864,-3.864,-3.864,-3.864,-3.864,-3.864,-3.864,-3.864,-3.864,0.0,0.0,-4.6308,-4.6308,0.0,0.0,0.0,0.0,0.0,0.0,-4.5937,-4.5508,0.0,0.0,0.0,0.0,0.0,0.0,0.0,0.0,-4.3711,-4.3711,-4.3711,-4.3711,-4.3711,-4.332,-4.3125,-4.3086,-4.2226,-4.1601,-4.123,-4.1191,-4.1172,-4.1172,-4.1172,-4.1172,0.0,-4.1211,-4.1211,-4.1172,-4.1211,-4.1211,-4.1172,-4.1172,0.0,0.0,0.0,0.0,0.0,0.0,0.0,0.0,-4.1172,-4.1172,-4.1172,-4.0509,-4.0216,-3.9745,0.0,0.0,0.0,0.0,0.0,0.0,0.0,0.0,0.0,0.0,0.0,0.0,0.0,-3.864,-3.864,-3.864,-3.897,-3.9245,-3.9281,-3.9648,-3.9905,-3.9942,-3.996,-3.996,-3.996,-3.996,-3.996,-3.996,-3.996,-3.996,-3.996,-3.9923,-3.9905,-3.9905,-3.9502,-3.9281,-3.9281,-3.8933,-3.875,-3.875,-3.8713,-3.8695,-3.8695,-3.8658,-3.864,-3.864,-3.864,-3.864,-3.864,-3.864,-3.864,-3.864,-3.864,-3.864,-3.864,-3.864,-3.864,-3.864,0.0,0.0,-4.6308,-4.6308,0.0,0.0,0.0,0.0,0.0,0.0,0.0,0.0,0.0,0.0,0.0,0.0,0.0,0.0,0.0,0.0,-4.3711,-4.3711,-4.3711,-4.3711,-4.3711,-4.3613,-4.3418,-4.3086,-4.2226,-4.1758,-4.166,-4.1328,-4.1172,-4.1172,-4.1172,-4.1172,-4.1191,-4.1523,-4.1484,-4.1211,-4.1523,-4.1465,-4.1172,-4.1172,-4.1172,0.0,0.0,0.0,0.0,0.0,0.0,0.0,-4.1172,-4.1172,-4.1016,-4.0216,-3.9902,-3.9745,0.0,0.0,0.0,0.0,0.0,0.0,0.0,0.0,0.0,0.0,0.0,0.0,-3.864,-3.864,-3.864,-3.864,-3.897,-3.9336,-3.9667,-4.007,-4.0455,-4.0767,-4.0804,-4.0804,-4.0804,-4.0804,-4.0804,-4.0804,-4.0804,-4.0804,-4.0804,-4.051,-4.0327,-4.0327,-3.9923,-3.9703,-3.9703,-3.963,-3.9593,-3.9575,-3.9263,-3.9098,-3.9098,-3.8786,-3.864,-3.864,-3.864,-3.864,-3.864,-3.864,-3.864,-3.864,-3.864,-3.864,-3.864,-3.864,-3.864,-3.864,0.0,0.0,0.0,0.0,0.0,0.0,0.0,0.0,0.0,0.0,0.0,0.0,0.0,0.0,0.0,0.0,0.0,0.0,0.0,0.0,-4.3711,-4.3711,-4.3711,-4.3711,-4.3711,-4.3711,-4.3594,-4.3379,-4.2734,-4.2305,0.0,0.0,-4.166,-4.1484,-4.1484,-4.1367,-4.1191,-4.1406,-4.1367,-4.1191,-4.1406,-4.1367,-4.1172,-4.1172,-4.1172,-4.1172,-4.1172,0.0,0.0,0.0,0.0,0.0,0.0,0.0,-4.1016,-4.0372,-4.0059,-3.9745,0.0,0.0,0.0,0.0,0.0,0.0,0.0,0.0,0.0,0.0,0.0,-3.864,-3.864,-3.864,-3.8713,-3.8896,-3.9263,-3.9667,-4.0088,-4.0492,-4.0822,-4.1042,-4.106,-4.106,-4.106,-4.106,-4.106,-4.106,-4.106,-4.106,-4.106,-4.0859,-4.0749,-4.0749,-4.0363,-4.0143,-4.0143,-3.9942,-3.985,-3.985,-3.963,-3.952,-3.9502,-3.8915,-3.864,-3.864,-3.864,-3.864,-3.864,-3.864,-3.864,-3.864,-3.864,-3.864,-3.864,-3.864,-3.864,-3.864,0.0,0.0,0.0,0.0,0.0,0.0,0.0,0.0,0.0,0.0,0.0,0.0,0.0,0.0,0.0,0.0,0.0,0.0,0.0,0.0,0.0,-4.3711,-4.3711,-4.3711,-4.3711,-4.3711,-4.3711,-4.3711,-4.3359,0.0,0.0,0.0,0.0,-4.1914,-4.1914,-4.1719,-4.1387,-4.1308,-4.1328,-4.1387,-4.1308,-4.1328,-4.1387,-4.1387,-4.1348,-4.1289,-4.1289,-4.123,-4.1172,-4.1172,0.0,0.0,0.0,0.0,-4.1172,-4.0666,-4.0197,-3.9902,0.0,0.0,0.0,0.0,0.0,0.0,0.0,0.0,0.0,0.0,-3.8695,-3.8658,-3.8731,-3.875,-3.8878,-3.9263,-3.9667,-4.0052,-4.0418,-4.0804,-4.106,-4.106,-4.106,-4.106,-4.106,-4.106,-4.106,-4.106,-4.106,-4.106,-4.106,-4.106,-4.106,-4.106,-4.0749,-4.0565,-4.0565,-4.0217,-4.0052,-4.0052,-3.9978,-3.9905,-3.9813,-3.9153,-3.8841,-3.8841,-3.8841,-3.8841,-3.8841,-3.8841,-3.8841,-3.8841,-3.8841,-3.8841,-3.8841,-3.8768,-3.875,-3.8731,0.0,0.0,0.0,0.0,0.0,0.0,0.0,0.0,0.0,0.0,-4.6308,-4.6152,0.0,0.0,0.0,0.0,0.0,0.0,0.0,0.0,0.0,-4.3711,-4.3711,-4.3711,-4.3711,-4.3711,-4.3711,-4.3711,0.0,0.0,0.0,0.0,0.0,-4.2344,0.0,0.0,-4.2226,-4.1875,-4.1933,-4.2226,-4.1855,-4.1933,-4.2266,-4.2266,-4.2031,-4.1719,-4.1719,-4.1484,-4.1172,-4.1172,-4.1172,0.0,0.0,0.0,-4.1172,-4.0666,-4.0509,0.0,0.0,0.0,0.0,0.0,0.0,0.0,0.0,0.0,0.0,0.0,-3.8878,-3.875,-3.9098,-3.9153,-3.9281,-3.9685,-4.0107,-4.04,-4.0455,-4.0804,-4.106,-4.106,-4.106,-4.106,-4.106,-4.106,-4.106,-4.106,-4.106,-4.106,-4.106,-4.106,-4.106,-4.106,-4.1005,-4.0987,-4.0987,-4.0932,-4.0895,-4.0895,-4.0547,-4.0198,-3.9832,-3.974,-3.9685,-3.9685,-3.9685,-3.9685,-3.9685,-3.9685,-3.9685,-3.9685,-3.9685,-3.9685,-3.9648,-3.9281,-3.9153,-3.9098,0.0,0.0,0.0,0.0,0.0,0.0,0.0,0.0,0.0,0.0,0.0,-4.623,0.0,0.0,0.0,-4.5156,-4.4668,-4.4199,-4.373,-4.3711,0.0,-4.3711,-4.3711,-4.3711,-4.3711,-4.3711,-4.3711,-4.3711,0.0,0.0,0.0,-4.332,-4.3008,0.0,0.0,0.0,0.0,-4.2226,-4.2266,-4.2402,-4.2226,-4.2106,-4.212,-4.212,-4.2004,-4.1849,-4.1849,-4.1892,-4.1875,-4.1875,-4.1875,-4.1875,-4.1875,0.0,0.0,0.0,-4.0859,0.0,0.0,0.0,0.0,0.0,0.0,0.0,0.0,0.0,-3.9575,-3.9575,-3.9428,-3.9373,-3.9538,-3.9575,-3.9703,-4.0125,-4.0345,-4.0547,-4.0767,-4.095,-4.106,-4.106,-4.106,-4.106,-4.106,-4.106,-4.106,-4.106,-4.106,-4.106,-4.106,-4.106,-4.106,-4.106,-4.106,-4.106,-4.106,-4.106,-4.106,-4.106,-4.0877,-4.0694,-4.0529,-4.0529,-4.0272,-3.985,-3.985,-3.985,-3.985,-3.985,-3.985,-3.985,-3.985,-3.985,-3.9813,-3.9648,-3.9575,-3.9557,0.0,0.0,0.0,0.0,0.0,0.0,0.0,0.0,0.0,0.0,0.0,0.0,0.0,0.0,0.0,0.0,-4.5098,-4.4492,-4.3926,-4.3887,0.0,0.0,0.0,-4.3711,-4.3711,-4.3711,-4.3711,0.0,0.0,0.0,-4.3711,-4.3828,-4.3711,0.0,-4.3281,0.0,0.0,0.0,0.0,-4.2734,-4.2475,-4.2333,-4.2125,-4.1963,-4.1905,-4.1809,-4.1971,0.0,0.0,0.0,0.0,-4.2422,-4.2422,-4.2207,0.0,0.0,0.0,0.0,0.0,0.0,0.0,0.0,0.0,0.0,0.0,0.0,-3.9997,0.0,-4.007,-4.0143,-4.0143,-4.007,-4.0143,-4.0547,-4.062,-4.073,-4.1024,-4.106,-4.106,-4.106,-4.106,-4.106,-4.106,-4.106,-4.106,-4.106,-4.106,-4.106,-4.106,-4.106,-4.106,-4.106,-4.106,-4.106,-4.106,-4.106,-4.106,-4.106,-4.106,-4.106,-4.106,-4.106,-4.073,-4.0143,-4.0143,-4.0143,-4.0143,-4.0143,-4.0143,-4.0143,-4.0143,-4.0143,-4.0143,-4.0033,-3.9997,-3.9997,0.0,0.0,0.0,0.0,0.0,0.0,0.0,0.0,0.0,0.0,0.0,0.0,0.0,-4.6289,-4.6113,-4.5703,-4.5644,-4.5254,-4.4414,-4.4355,-4.416,-4.373,-4.3711,0.0,-4.3711,-4.3711,0.0,0.0,0.0,0.0,-4.3711,-4.416,-4.4355,-4.4316,-4.3867,-4.3652,-4.3613,0.0,0.0,0.0,-4.2712,-4.2645,-4.2991,-4.2512,-4.208,-4.1739,0.0,0.0,0.0,0.0,0.0,0.0,0.0,-4.2402,-4.2402,0.0,0.0,0.0,0.0,0.0,0.0,0.0,0.0,0.0,0.0,0.0,-4.0437,-4.0437,-4.073,-4.1005,-4.1005,-4.0694,-4.0565,-4.0969,-4.1024,-4.1042,-4.106,-4.106,-4.106,-4.106,-4.106,-4.106,-4.106,-4.106,-4.106,-4.106,-4.106,-4.106,-4.106,-4.106,-4.106,-4.106,-4.106,-4.106,-4.106,-4.106,-4.106,-4.106,-4.106,-4.106,-4.106,-4.106,-4.1042,-4.1005,-4.1005,-4.1005,-4.1005,-4.1005,-4.1005,-4.1005,-4.1005,-4.1005,-4.095,-4.0584,-4.0437,-4.0382,0.0,0.0,0.0,0.0,0.0,0.0,0.0,0.0,0.0,0.0,0.0,0.0,0.0,-4.6308,-4.623,-4.6094,-4.584,-4.543,-4.4844,-4.4805,-4.4609,-4.416,-4.4141,-4.4004,-4.3711,-4.3711,0.0,0.0,0.0,-4.3711,-4.3711,-4.3867,-4.3945,-4.3965,-4.4082,-4.4141,-4.4121,-4.3672,0.0,0.0,0.0,-4.2767,-4.2569,0.0,0.0,0.0,0.0,0.0,0.0,0.0,0.0,0.0,0.0,0.0,0.0,0.0,0.0,0.0,0.0,0.0,0.0,-4.1726,-4.1451,-4.1101,-4.1101,-4.0897,-4.0859,-4.0859,-4.0969,-4.106,-4.106,-4.095,-4.0895,-4.1042,-4.106,-4.106,-4.106,-4.106,-4.106,-4.106,-4.106,-4.106,-4.106,-4.106,-4.106,-4.106,-4.106,-4.106,-4.106,-4.106,-4.106,-4.106,-4.106,-4.106,-4.106,-4.106,-4.106,-4.106,-4.106,-4.106,-4.106,-4.106,-4.106,-4.106,-4.106,-4.106,-4.106,-4.106,-4.106,-4.106,-4.106,-4.106,-4.1042,-4.0895,-4.0859,-4.0822,0.0,0.0,0.0,0.0,0.0,-4.6308,0.0,0.0,0.0,0.0,0.0,0.0,0.0,0.0,-4.6308,-4.6308,-4.6055,-4.5703,-4.5273,-4.5234,-4.5058,-4.4629,-4.4609,-4.4394,-4.3945,-4.3926,0.0,0.0,0.0,0.0,0.0,0.0,-4.3926,-4.3945,-4.4258,-4.4316,0.0,0.0,0.0,-4.3711,0.0,0.0,-4.2402,0.0,0.0,0.0,0.0,0.0,0.0,0.0,0.0,0.0,0.0,0.0,0.0,0.0,0.0,0.0,-4.2876,0.0,0.0,0.0,-4.2216,-4.1882,-4.1695,-4.1546,-4.121,-4.106,-4.106,-4.106,-4.106,-4.106,-4.106,-4.106,-4.106,-4.106,-4.106,-4.106,-4.106,-4.106,-4.106,-4.106,-4.106,-4.106,-4.106,-4.106,-4.106,-4.106,-4.106,-4.106,-4.106,-4.106,-4.106,-4.106,-4.106,-4.106,-4.106,-4.106,-4.106,-4.106,-4.106,-4.106,-4.106,-4.106,-4.106,-4.106,-4.106,-4.106,-4.106,-4.106,-4.106,-4.106,-4.106,-4.106,-4.106,-4.106,0.0,-4.6308,-4.6308,-4.6308,-4.6308,-4.6308,-4.6308,0.0,0.0,0.0,0.0,0.0,0.0,0.0,0.0,-4.6308,-4.6308,-4.6133,-4.5723,-4.5703,-4.5508,-4.5058,-4.5039,-4.4844,-4.4433,-4.4414,-4.4199,0.0,0.0,0.0,0.0,0.0,-4.4394,0.0,-4.4394,-4.416,-4.375,0.0,-4.373,-4.373,0.0,-4.244,-4.2273,0.0,0.0,0.0,-4.1583,-4.1733,0.0,0.0,0.0,0.0,0.0,0.0,0.0,0.0,0.0,0.0,0.0,0.0,0.0,0.0,-4.2735,-4.2235,-4.1863,-4.1695,-4.1546,-4.1229,-4.106,-4.106,-4.106,-4.106,-4.106,-4.106,-4.106,-4.106,-4.106,-4.106,-4.106,-4.106,-4.106,-4.106,-4.106,-4.106,-4.106,-4.106,-4.106,-4.106,-4.106,-4.106,-4.106,-4.106,-4.106,-4.106,-4.106,-4.106,-4.106,-4.106,-4.106,-4.106,-4.106,-4.106,-4.106,-4.106,-4.106,-4.106,-4.106,-4.106,-4.106,-4.106,-4.106,-4.106,-4.106,-4.106,-4.106,-4.106,-4.6855,-4.6504,-4.6308,-4.6308,-4.6308,-4.6308,0.0,0.0,0.0,0.0,0.0,0.0,0.0,0.0,-4.6308,-4.6308,-4.6308,-4.625,-4.6133,-4.6133,-4.5937,-4.5508,-4.5508,-4.5293,-4.4863,-4.4844,-4.4648,-4.4199,0.0,0.0,0.0,0.0,0.0,0.0,-4.4394,-4.4492,-4.4648,-4.4336,0.0,0.0,-4.3499,-4.3273,0.0,0.0,0.0,0.0,0.0,-4.2094,0.0,0.0,-4.2349,-4.2631,0.0,0.0,0.0,0.0,0.0,0.0,-4.3711,0.0,0.0,0.0,0.0,0.0,-4.2235,-4.1882,-4.1546,-4.1229,-4.106,-4.106,-4.106,-4.106,-4.106,-4.106,-4.106,-4.106,-4.106,-4.106,-4.106,-4.106,-4.106,-4.106,-4.106,-4.106,-4.106,-4.106,-4.106,-4.106,-4.106,-4.106,-4.106,-4.106,-4.106,-4.106,-4.106,-4.106,-4.106,-4.106,-4.106,-4.106,-4.106,-4.106,-4.106,-4.106,-4.106,-4.106,-4.106,-4.106,-4.106,-4.106,-4.106,-4.106,-4.106,-4.106,-4.106,-4.106,-4.7051,-4.6738,-4.6504,-4.6328,-4.6308,-4.6308,0.0,0.0,0.0,0.0,0.0,0.0,0.0,0.0,0.0,-4.6308,-4.6308,-4.6308,-4.6308,-4.6308,-4.6191,-4.5957,-4.5937,-4.5742,-4.5312,-4.5293,-4.5098,-4.4668,0.0,0.0,0.0,0.0,0.0,0.0,-4.4668,-4.4805,0.0,0.0,0.0,0.0,-4.388,0.0,0.0,-4.2617,-4.2271,0.0,0.0,0.0,-4.2234,-4.234,-4.2419,0.0,0.0,0.0,0.0,0.0,0.0,0.0,0.0,0.0,0.0,-4.3711,0.0,0.0,-4.2735,-4.2383,-4.1882,-4.1378,-4.1229,-4.106,-4.106,-4.106,-4.106,-4.106,-4.106,-4.106,-4.106,-4.106,-4.106,-4.106,-4.106,-4.106,-4.106,-4.106,-4.106,-4.106,-4.106,-4.106,-4.106,-4.106,-4.106,-4.106,-4.106,-4.106,-4.106,-4.106,-4.106,-4.106,-4.106,-4.106,-4.106,-4.106,-4.1152,-4.1317,-4.1317,-4.1427,-4.1574,-4.1574,-4.1464,-4.1317,-4.1317,-4.1317,-4.1299,-4.1115,-4.106,-4.106,0.0,-4.7031,-4.6875,-4.6445,-4.6367,-4.6348,0.0,0.0,0.0,0.0,0.0,0.0,0.0,0.0,0.0,0.0,-4.6308,-4.6308,-4.6308,-4.6308,-4.6308,-4.6308,-4.6308,-4.6133,-4.5762,-4.5742,-4.5527,-4.5098,0.0,0.0,0.0,0.0,0.0,-4.5098,-4.5098,-4.5117,0.0,0.0,0.0,-4.4985,-4.4109,-4.3765,0.0,0.0,-4.2417,0.0,-4.2417,-4.2417,-4.2399,-4.2362,-4.2636,0.0,0.0,0.0,0.0,0.0,-4.4141,0.0,0.0,0.0,0.0,-4.3711,-4.3711,0.0,-4.3234,-4.2735,-4.2402,-4.1863,-4.1546,-4.1229,-4.1229,-4.1229,-4.1229,-4.1229,-4.1229,-4.1229,-4.106,-4.106,-4.106,-4.106,-4.106,-4.106,-4.106,-4.106,-4.106,-4.106,-4.1097,-4.1134,-4.1134,-4.117,-4.1189,-4.1189,-4.1189,-4.1189,-4.1189,-4.1189,-4.1189,-4.1189,-4.1189,-4.1189,-4.1189,-4.1189,-4.1409,-4.1757,-4.1757,-4.1959,-4.2289,-4.2326,-4.2106,-4.1757,-4.1757,-4.1757,-4.1702,-4.1335,-4.1189,-4.1189,-4.7988,-4.7676,-4.7324,-4.6875,-4.6816,0.0,0.0,0.0,0.0,0.0,0.0,0.0,0.0,0.0,0.0,-4.6308,-4.6308,-4.6308,-4.6308,-4.6308,0.0,-4.6308,-4.6308,-4.6269,-4.6191,-4.6191,-4.5976,-4.5547,0.0,0.0,0.0,0.0,0.0,-4.5547,-4.5547,-4.5742,0.0,0.0,0.0,-4.588,-4.5006,0.0,-4.3951,-4.3438,-4.3261,-4.3261,-4.3261,-4.3261,-4.3206,-4.2858,-4.2876,-4.2944,0.0,0.0,0.0,-4.4222,0.0,0.0,0.0,0.0,0.0,-4.3711,-4.3711,0.0,-4.3234,-4.3068,-4.2902,-4.2402,-4.2235,-4.2068,-4.2068,-4.2068,-4.2068,-4.1714,-4.1546,-4.1546,-4.1229,-4.106,-4.106,-4.106,-4.106,-4.106,-4.106,-4.106,-4.106,-4.106,-4.1372,-4.1574,-4.1574,-4.1867,-4.2032,-4.2032,-4.2032,-4.2032,-4.2032,-4.2032,-4.2032,-4.2032,-4.2032,-4.2032,-4.2032,-4.2032,-4.2087,-4.2161,-4.2161,-4.2216,-4.2307,-4.2619,-4.2527,-4.2161,-4.2161,-4.2161,-4.2161,-4.2069,-4.2032,-4.2032,-4.8242,-4.8027,-4.7754,-4.7324,0.0,0.0,0.0,0.0,0.0,0.0,0.0,0.0,0.0,0.0,0.0,-4.6933,-4.6738,-4.6621,-4.6621,-4.6426,0.0,-4.6308,-4.6308,-4.6308,-4.6308,-4.6308,-4.6191,-4.5996,0.0,0.0,0.0,0.0,0.0,0.0,-4.5996,-4.6113,0.0,0.0,-4.6133,-4.5958,-4.5255,0.0,-4.4548,-4.3856,-4.3499,-4.3499,-4.3499,-4.3499,-4.3463,-4.3243,-4.3217,0.0,0.0,-4.3603,-4.3782,0.0,-4.4356,-4.401,0.0,0.0,0.0,-4.4043,-4.3867,0.0,0.0,-4.3214,-4.3068,-4.2735,-4.2569,-4.2402,-4.2402,-4.2402,-4.2402,-4.2049,-4.1863,-4.1695,-4.1378,-4.1229,-4.106,-4.106,-4.106,-4.106,-4.106,-4.106,-4.1152,-4.1354,-4.1574,-4.1776,-4.1977,-4.2179,-4.2271,-4.2271,-4.2271,-4.2271,-4.2271,-4.2271,-4.2271,-4.2271,-4.2271,-4.2271,-4.2271,-4.2271,-4.2381,-4.2564,-4.2564,-4.2692,-4.2894,-4.3096,-4.3059,-4.2858,-4.2656,-4.2564,-4.2546,-4.2344,-4.2271,-4.2271,-4.8398,-4.832,-4.8203,-4.7773,0.0,0.0,0.0,0.0,0.0,0.0,0.0,0.0,0.0,0.0,0.0,0.0,-4.7266,-4.7051,0.0,0.0,0.0,-4.6426,-4.6348,-4.6308,-4.6308,-4.6308,-4.6308,-4.6308,-4.6308,0.0,0.0,-4.6308,0.0,0.0,-4.6308,0.0,0.0,0.0,0.0,-4.5898,0.0,-4.5034,-4.4725,-4.3856,-4.3499,-4.3499,-4.3499,-4.3499,-4.3499,-4.3499,-4.3499,-4.3499,-4.4034,-4.3793,0.0,0.0,0.0,0.0,0.0,0.0,0.0,-4.4512,-4.418,-4.3828,0.0,0.0,0.0,-4.3234,-4.2902,-4.2735,-4.2735,-4.2735,-4.2569,-4.2569,-4.2216,-4.1863,-4.1863,-4.1546,-4.1229,-4.106,-4.106,-4.106,-4.106,-4.106,-4.1225,-4.1666,-4.1757,-4.1977,-4.2362,-4.2472,-4.2509,-4.2509,-4.2509,-4.2509,-4.2509,-4.2509,-4.2509,-4.2509,-4.2509,-4.2509,-4.2509,-4.2509,-4.2692,-4.2986,-4.2986,-4.3188,-4.3499,-4.3499,-4.3499,-4.3463,-4.3114,-4.2986,-4.2949,-4.2619,-4.2509,-4.2509,-4.8789,-4.8789,-4.8652,-4.8203,0.0,0.0,0.0,-4.7578,0.0,0.0,0.0,0.0,0.0,0.0,0.0,0.0,0.0,0.0,-4.75,0.0,0.0,0.0,-4.6504,-4.6308,-4.6308,-4.6308,-4.6308,-4.6308,-4.6308,-4.6308,-4.6308,-4.6308,-4.6308,0.0,-4.6308,0.0,0.0,0.0,-4.6855,0.0,-4.6748,-4.5744,0.0,-4.3678,-4.3499,-4.3499,-4.3499,-4.3499,-4.3499,0.0,-4.3499,-4.3499,0.0,-4.3463,-4.3782,-4.4649,0.0,0.0,0.0,-4.5293,-4.4961,-4.4961,-4.4629,-4.4316,-4.4316,0.0,-4.3711,-4.3711,0.0,-4.3546,-4.3546,0.0,0.0,-4.3068,-4.3068,-4.2735,-4.2402,-4.2235,-4.19,-4.1229,-4.106,-4.106,-4.106,-4.106,-4.1225,-4.1666,-4.2014,-4.2381,-4.2784,-4.3151,-4.3353,-4.3353,-4.3353,-4.3353,-4.3353,-4.3353,-4.3353,-4.3353,-4.3353,-4.3353,-4.3353,-4.3353,-4.3371,-4.3426,-4.3426,-4.3444,-4.3499,-4.3499,-4.3499,-4.3499,-4.3444,-4.3426,-4.3426,-4.3371,-4.3353,-4.3353,-4.8867,-4.8867,-4.8808,-4.8613,0.0,0.0,-4.834,-4.832,-4.832,0.0,0.0,0.0,0.0,0.0,0.0,0.0,0.0,0.0,0.0,0.0,0.0,0.0,0.0,0.0,0.0,-4.7051,-4.7051,-4.7051,-4.7051,-4.7051,-4.7051,-4.7051,-4.7051,0.0,-4.7051,0.0,-4.7051,0.0,0.0,0.0,0.0,0.0,0.0,-4.4702,-4.4359,-4.4178,-4.4178,-4.4178,-4.4178,-4.4178,-4.4178,-4.4141,-4.3903,-4.3829,-4.3972,-4.4445,-4.4593,-4.4812,-4.5512,-4.555,-4.541,-4.541,-4.5078,-4.4766,-4.4766,-4.4433,-4.4101,-4.4101,0.0,0.0,0.0,0.0,0.0,0.0,-4.3234,-4.3068,-4.2902,-4.2569,-4.2235,-4.19,-4.1546,-4.1378,-4.106,-4.106,-4.1335,-4.1977,-4.2179,-4.2564,-4.3188,-4.3408,-4.3499,-4.3499,-4.3499,-4.3499,-4.3499,-4.3499,-4.3499,-4.3499,-4.3499,-4.3499,-4.3499,-4.3499,-4.3499,-4.3499,-4.3499,-4.3499,-4.3499,-4.3499,-4.3499,-4.3499,-4.3499,-4.3499,-4.3499,-4.3499,-4.3499,-4.3499,-4.8867,0.0,0.0,0.0,0.0,0.0,-4.8867,-4.8867,0.0,0.0,0.0,0.0,-4.8867,-4.8867,0.0,0.0,0.0,-4.8379,0.0,0.0,-4.7754,0.0,0.0,0.0,0.0,0.0,-4.7578,-4.7578,-4.7578,-4.7578,-4.7578,-4.7578,-4.7578,-4.7578,0.0,-4.7578,-4.7578,0.0,0.0,-4.7773,-4.7509,-4.7203,-4.6618,-4.5662,-4.5039,-4.4673,-4.4673,-4.4673,-4.4673,-4.4673,-4.4673,-4.4618,-4.4343,-4.4251,-4.4359,-4.4442,-4.4614,-4.5072,-4.5426,-4.5647,-4.5666,-4.5666,-4.5355,-4.5195,-4.5195,-4.4883,-4.457,-4.457,-4.4219,0.0,0.0,0.0,-4.3711,-4.3711,0.0,-4.3214,-4.3214,-4.2902,-4.2735,-4.2402,-4.2049,-4.1714,-4.1397,-4.1321,-4.1689,-4.2234,-4.2381,-4.2747,-4.3463,-4.3499,-4.3499,-4.3499,-4.3499,-4.3499,-4.3499,-4.3499,-4.3499,-4.3499,-4.3499,-4.3499,-4.3499,-4.3499,-4.3499,-4.3499,-4.3499,-4.3499,-4.3499,-4.3499,-4.3499,-4.3499,-4.3499,-4.3499,-4.3499,-4.3499,-4.3499,-4.3499,-4.8867,-4.8867,0.0,0.0,0.0,0.0,0.0,0.0,0.0,0.0,0.0,0.0,0.0,0.0,0.0,0.0,0.0,-4.8828,-4.8828,0.0,-4.8183,0.0,0.0,0.0,0.0,0.0,0.0,-4.7578,-4.7578,-4.7578,-4.7578,-4.7578,-4.7578,-4.7578,-4.7578,-4.7578,-4.7617,-4.8008,-4.8183,-4.8223,-4.8652,-4.8459,-4.7807,-4.5519,-4.4673,-4.4673,-4.4673,-4.4673,-4.4673,-4.4673,-4.4673,-4.4673,-4.4655,-4.4655,-4.4838,-4.5185,-4.5088,-4.4951,-4.531,-4.5541,-4.5588,-4.5588,-4.5609,-4.5644,-4.5644,-4.5312,-4.5,-4.5,-4.4668,-4.4375,-4.4375,-4.4004,-4.3711,-4.3711,-4.3711,0.0,0.0,-4.3711,-4.338,-4.2569,-4.2402,-4.2235,-4.1695,-4.2068,-4.2326,-4.2252,-4.2637,-4.3041,-4.3481,-4.3499,-4.3499,-4.3499,-4.3499,-4.3499,-4.3499,-4.3499,-4.3499,-4.3499,-4.3499,-4.3499,-4.3499,-4.3499,-4.3499,-4.3499,-4.3499,-4.3499,-4.3499,-4.3499,-4.3499,-4.3499,-4.3499,-4.3499,-4.3499,-4.3499,-4.3499,-4.3499,-4.8867,0.0,0.0,0.0,0.0,0.0,0.0,-4.8867,0.0,0.0,0.0,0.0,0.0,0.0,-4.8867,0.0,0.0,-4.8867,-4.8867,-4.9004,0.0,0.0,0.0,-4.873,0.0,0.0,0.0,0.0,0.0,0.0,-4.8418,-4.8418,-4.8418,-4.8437,0.0,-4.8867,0.0,0.0,0.0,0.0,0.0,-4.9142,-4.8688,-4.671,-4.6039,-4.5853,-4.5666,-4.548,-4.548,-4.548,-4.548,-4.5425,-4.5168,-4.5095,-4.504,-4.493,-4.5111,-4.52,-4.5362,-4.5442,-4.5477,-4.5477,-4.5527,-4.557,-4.557,-4.5589,-4.5449,-4.5449,-4.5117,-4.4824,-4.4824,-4.4687,-4.4492,-4.4199,-4.416,-4.4062,0.0,-4.3711,-4.3546,-4.338,-4.3068,-4.255,-4.1695,-4.2087,-4.2345,-4.2252,-4.2637,-4.3059,-4.3481,-4.3499,-4.3499,-4.3499,-4.3499,-4.3499,-4.3499,-4.3499,-4.3499,-4.3499,-4.3499,-4.3499,-4.3499,-4.3499,-4.3499,-4.3499,-4.3499,-4.3499,-4.3499,-4.3499,-4.3499,-4.3499,-4.3499,-4.3499,-4.3499,-4.3499,-4.3499,-4.3499,-4.8867,-4.8867,-4.8867,0.0,0.0,0.0,0.0,0.0,0.0,0.0,-4.8867,0.0,-4.8867,0.0,-4.9101,0.0,-4.9238,-4.9336,-4.9336,-4.959,0.0,-4.9336,-4.9609,0.0,0.0,0.0,0.0,0.0,0.0,-4.9336,-4.9336,-4.9336,-4.9336,-4.9336,0.0,-4.9766,-4.9785,0.0,-5.0176,0.0,0.0,-4.9586,-4.9529,-4.8215,-4.7347,-4.684,-4.6315,-4.6072,-4.5883,-4.5883,-4.5883,-4.5847,-4.559,-4.5517,-4.5462,-4.5187,-4.5188,-4.5445,-4.5445,-4.5311,-4.5536,-4.5536,-4.5706,-4.5833,-4.568,-4.5607,-4.5551,-4.5416,-4.5029,-4.474,-4.474,-4.4776,-4.4601,-4.433,-4.4441,-4.4473,0.0,-4.3945,-4.3887,-4.373,-4.3546,-4.294,-4.2256,-4.248,-4.2721,-4.2454,-4.2858,-4.3206,-4.3481,-4.3499,-4.3499,-4.3499,-4.3499,-4.3499,-4.3499,-4.3499,-4.3499,-4.3499,-4.3499,-4.3499,-4.3499,-4.3499,-4.3499,-4.3499,-4.3499,-4.3499,-4.3499,-4.3646,-4.3701,-4.3719,-4.3866,-4.3921,-4.3903,-4.3756,-4.3793,-4.3921,-4.8867,-4.8867,-4.8867,-4.8867,-4.8867,0.0,0.0,0.0,-4.8867,0.0,-4.8887,-4.8906,-4.8926,-4.9316,-4.9551,-4.9551,-4.9941,0.0,-5.0176,-5.0195,0.0,0.0,-5.0195,-5.0195,-5.0176,0.0,0.0,0.0,0.0,0.0,-5.0176,-5.0176,-5.0176,-5.0176,-5.0195,0.0,-5.0215,-5.0234,-5.0234,-5.0234,-5.0234,-5.0234,-5.0234,-4.9625,-4.8595,-4.744,-4.684,-4.6315,-4.5957,-4.5957,-4.5957,-4.5957,-4.5957,-4.5957,-4.5957,-4.592,-4.5645,-4.5352,-4.5333,-4.5391,-4.5423,-4.5423,-4.5769,-4.6019,-4.5621,-4.5527,-4.5432,-4.5034,-4.4636,-4.4352,-4.4333,-4.4358,-4.4414,-4.4376,-4.4698,-4.4883,-4.4492,-4.4433,-4.4258,-4.3828,-4.3769,-4.3593,-4.297,-4.3406,-4.3477,-4.3015,-4.3261,-4.3499,-4.3499,-4.3499,-4.3499,-4.3499,-4.3499,-4.3499,-4.3499,-4.3499,-4.3499,-4.3499,-4.3499,-4.3499,-4.3499,-4.3518,-4.3518,-4.3518,-4.3536,-4.3554,-4.3573,-4.3958,-4.4105,-4.4141,-4.4526,-4.4673,-4.4655,-4.4251,-4.4343,-4.4673,-4.8867,-4.8867,-4.8867,-4.8867,-4.8867,-4.8867,0.0,0.0,0.0,0.0,-4.9355,-4.9473,-4.9805,-4.9941,-5.0019,-5.0019,-5.0117,0.0,0.0,0.0,0.0,-5.0195,-5.0488,-5.0508,-5.0195,-5.0176,0.0,-5.0176,0.0,0.0,-5.0176,-5.0176,-5.0176,-5.0195,-5.0508,-5.0644,-5.0664,-5.0976,-5.1113,-5.1113,-5.1113,-5.1113,-5.1074,-5.057,-4.9992,-4.9263,-4.8061,-4.7165,-4.68,-4.68,-4.68,-4.68,-4.68,-4.68,-4.6727,-4.6415,-4.625,-4.6122,-4.5828,-4.563,-4.5317,-4.5317,-4.5445,-4.5549,-4.5437,-4.5781,-4.5924,-4.583,-4.5716,-4.5545,-4.5242,-4.511,-4.5178,-4.4914,-4.4892,-4.498,-4.4883,-4.4863,-4.4824,-4.4707,-4.4687,-4.4252,-4.3027,-4.3671,-4.3796,-4.3033,-4.3261,-4.3499,-4.3499,-4.3499,-4.3499,-4.3499,-4.3499,-4.3499,-4.3499,-4.3499,-4.3499,-4.3499,-4.3499,-4.3499,-4.3499,-4.3793,-4.394,-4.3958,-4.4251,-4.438,-4.438,-4.4471,-4.4526,-4.4526,-4.4636,-4.4856,-4.5095,-4.4673,-4.4581,-4.4673,-4.8867,-4.8867,-4.8867,-4.8867,-4.8867,-4.8926,-4.9121,0.0,0.0,-4.9746,-4.9805,0.0,-5.0156,-5.0351,-5.0449,-5.0449,-5.0625,0.0,-5.0723,0.0,0.0,-5.0742,-5.0957,-5.0976,-5.0723,-5.0723,0.0,-5.0723,0.0,0.0,-5.0723,-5.0723,-5.0723,-5.0742,-5.0976,-5.1074,-5.1094,-5.1328,-5.1426,-5.1426,-5.1426,-5.1426,0.0,-5.1172,-5.0688,-5.0281,-4.9432,-4.8357,-4.748,-4.748,-4.7287,-4.7112,-4.7112,-4.7112,-4.7057,-4.6819,-4.6745,-4.6709,-4.6489,-4.6122,-4.581,-4.581,-4.5685,-4.552,-4.5354,-4.5482,-4.561,-4.5423,-4.5568,-4.5512,-4.5287,-4.5231,-4.5385,-4.5274,-4.5143,-4.503,-4.4664,-4.4607,-4.4721,-4.4698,-4.4853,-4.4701,-4.3938,-4.3993,-4.4003,-4.3133,-4.3353,-4.3499,-4.3499,-4.3499,-4.3499,-4.3499,-4.3499,-4.3573,-4.3756,-4.3756,-4.3829,-4.4013,-4.4013,-4.4013,-4.4013,-4.4233,-4.4343,-4.4343,-4.4581,-4.4673,-4.4691,-4.4875,-4.4948,-4.4966,-4.5132,-4.5352,-4.5535,-4.5297,-4.5205,-4.5205,-4.8867,-4.8867,-4.8867,-4.8867,-4.8867,0.0,0.0,-4.9473,0.0,-5.0039,0.0,-5.0137,-5.0254,-5.0586,-5.082,-5.0879,0.0,-5.1426,-5.1426,-5.1426,-5.1426,-5.1426,-5.1426,-5.1426,-5.1426,-5.1426,-5.1426,0.0,0.0,0.0,-5.1426,-5.1426,-5.1426,-5.1426,-5.1426,-5.1426,-5.1426,-5.1426,-5.1426,-5.1426,-5.1426,-5.1426,-5.1426,-5.1426,-5.1231,-5.0842,-5.0646,-4.9603,-4.8014,-4.8014,-4.7628,-4.7259,-4.7259,-4.7259,-4.7259,-4.7204,-4.7185,-4.7167,-4.713,-4.6837,-4.6562,-4.6562,-4.6269,-4.5883,-4.5535,-4.5407,-4.5278,-4.4911,-4.4838,-4.482,-4.4765,-4.5076,-4.5456,-4.546,-4.5583,-4.5337,-4.4618,-4.4504,-4.4527,-4.4473,-4.4741,0.0,-4.5068,-4.4527,-4.4153,-4.3641,-4.3678,-4.3678,-4.3678,-4.3536,-4.3573,-4.3573,-4.3628,-4.3811,-4.416,-4.416,-4.4325,-4.4673,-4.4673,-4.4673,-4.4673,-4.4728,-4.4746,-4.4746,-4.4801,-4.4838,-4.4856,-4.5223,-4.537,-4.5407,-4.5755,-4.5883,-4.5883,-4.5883,-4.5883,-4.5883,0.0,0.0,0.0,0.0,0.0,-4.9004,-4.9453,-4.9219,-4.9141,-4.959,-4.9648,-4.9922,-5.0625,-5.0762,-5.0937,-5.1289,-5.1387,0.0,0.0,0.0,0.0,-5.1426,-5.1426,-5.1426,-5.1426,-5.1426,-5.1426,0.0,0.0,0.0,-5.1426,-5.1426,-5.1426,-5.1426,-5.1426,-5.1426,-5.1426,-5.1426,-5.1426,-5.1426,-5.1426,-5.1426,-5.1426,-5.1426,-5.1426,-5.1231,-5.0842,-4.9964,-4.8871,-4.8871,-4.8478,-4.8084,-4.8084,-4.8084,-4.8011,-4.7681,-4.7589,-4.7516,-4.7204,-4.7057,-4.7002,-4.7002,-4.669,-4.636,-4.6287,-4.6012,-4.5773,-4.57,-4.5682,-4.5572,-4.526,-4.5261,-4.5367,-4.5475,-4.5819,-4.5962,-4.5811,-4.5792,-4.564,-4.542,-4.542,-4.5344,-4.5002,-4.514,-4.5178,-4.4725,-4.437,-4.4015,-4.4015,-4.3972,-4.3976,-4.3976,-4.4306,-4.4508,-4.4563,-4.4563,-4.46,-4.4673,-4.4673,-4.4673,-4.4673,-4.504,-4.5187,-4.5205,-4.5535,-4.5682,-4.5682,-4.5755,-4.5792,-4.5792,-4.5865,-4.5883,-4.5883,-4.5883,-4.5883,-4.5883,0.0,0.0,0.0,0.0,0.0,0.0,0.0,-4.9531,-4.9707,-5.0137,-5.0371,-5.0664,-5.1094,-5.1133,-5.1211,-5.1406,-5.1426,-5.1426,-5.1426,-5.1426,-5.1426,-5.1426,-5.1426,-5.1426,-5.1426,-5.1426,-5.1426,-5.1426,-5.1426,-5.1426,-5.1426,-5.1426,-5.1426,-5.1426,-5.1426,-5.1426,-5.1426,-5.1426,-5.1426,-5.1426,-5.1426,-5.1426,-5.1426,-5.1426,-5.1426,-5.1426,-5.1231,-5.047,-4.9489,-4.9292,-4.8682,-4.8286,-4.8286,-4.8286,-4.8249,-4.8047,-4.7992,-4.7956,-4.7772,-4.7571,-4.7406,-4.7406,-4.7112,-4.68,-4.68,-4.6654,-4.6452,-4.6232,-4.6195,-4.6085,-4.5682,-4.563,-4.5612,-4.5391,-4.5538,-4.5647,-4.5423,-4.5386,-4.5311,-4.5487,-4.5468,-4.5393,-4.5545,-4.5884,-4.5891,-4.4939,-4.4548,-4.4286,-4.4491,-4.4337,-4.4178,-4.438,-4.4563,-4.4783,-4.5003,-4.5003,-4.5095,-4.5297,-4.5297,-4.5297,-4.5315,-4.5517,-4.5608,-4.5608,-4.581,-4.5883,-4.5883,-4.5883,-4.5883,-4.5883,-4.5883,-4.5883,-4.5883,-4.5883,-4.5883,-4.5883,0.0,-4.9375,0.0,0.0,-4.9433,0.0,-4.9668,-5.0039,-5.0391,-5.0644,-5.0957,-5.1191,-5.1289,-5.1308,-5.1328,-5.1426,-5.1426,-5.1426,-5.1426,-5.1426,-5.1426,-5.1426,-5.1426,-5.1426,-5.1426,-5.1426,-5.1426,-5.1426,-5.1426,-5.1426,-5.1426,-5.1426,-5.1426,-5.1426,-5.1426,-5.1426,-5.1426,-5.1426,-5.1426,-5.1426,-5.1426,-5.1426,-5.1426,-5.1426,-5.1426,-5.1426,-5.1231,-5.0666,-4.9882,-4.9292,-4.8682,-4.8286,-4.8286,-4.8286,-4.8286,-4.8286,-4.8286,-4.8286,-4.8286,-4.8066,-4.7827,-4.7827,-4.7534,-4.7222,-4.7222,-4.7167,-4.702,-4.669,-4.6617,-4.6489,-4.6085,-4.6012,-4.5883,-4.548,-4.5425,-4.5315,-4.4985,-4.493,-4.5077,-4.5352,-4.5352,-4.5498,-4.5951,-4.6295,-4.6209,-4.5382,-4.4811,-4.4763,-4.5082,-4.4651,-4.449,-4.4801,-4.4893,-4.5095,-4.5425,-4.5425,-4.559,-4.5883,-4.5883,-4.5883,-4.5883,-4.5883,-4.5883,-4.5883,-4.5883,-4.5883,-4.5883,-4.5883,-4.5883,-4.5883,-4.5883,-4.5883,-4.5883,-4.5883,-4.5883,-4.5883,0.0,0.0,0.0,0.0,0.0,-5.0117,-5.0117,-5.0469,-5.0625,-5.0273,-5.0273,-5.0449,-5.082,-5.0859,-5.1016,-5.1406,-5.1426,-5.1426,-5.1426,-5.1426,-5.1426,-5.1426,-5.1426,-5.1426,-5.1426,-5.1426,-5.1426,-5.1426,-5.1426,-5.1426,-5.1426,-5.1426,-5.1426,-5.1426,-5.1426,-5.1426,-5.1426,-5.1426,-5.1426,-5.1426,-5.1426,-5.1426,-5.1426,-5.1426,-5.1426,-5.1426,-5.0842,-5.047,-4.9882,-4.9292,-4.8682,-4.8286,-4.8286,-4.8286,-4.8286,-4.8286,-4.8286,-4.8286,-4.8286,-4.8249,-4.8231,-4.8231,-4.7937,-4.7644,-4.7644,-4.7369,-4.7094,-4.7057,-4.7057,-4.691,-4.6507,-4.6415,-4.6287,-4.5902,-4.5828,-4.5828,-4.5773,-4.5773,-4.5645,-4.5278,-4.5242,-4.528,-4.5423,-4.5932,-4.6257,-4.6542,-4.6181,-4.6019,-4.6057,-4.5519,-4.5205,-4.5242,-4.559,-4.5792,-4.5828,-4.5828,-4.5847,-4.5883,-4.5883,-4.5883,-4.5883,-4.5883,-4.5883,-4.5883,-4.5883,-4.5883,-4.5883,-4.5883,-4.5883,-4.5883,-4.5883,-4.5883,-4.5883,-4.5883,-4.5883,-4.5883,0.0,0.0,0.0,0.0,0.0,-5.0547,-5.0547,-5.0918,-5.1113,-5.0957,-5.0937,-5.0996,-5.1172,-5.1172,-5.125,-5.1406,-5.1426,-5.1426,-5.1426,-5.1426,-5.1426,-5.1426,-5.1426,-5.1426,-5.1426,-5.1426,-5.1426,-5.1426,-5.1426,-5.1426,-5.1426,-5.1426,-5.1426,-5.1426,-5.1426,-5.1426,-5.1426,-5.1426,-5.1426,-5.1426,-5.1426,-5.1426,-5.1426,-5.1426,-5.1426,-5.1426,-5.1231,-5.0842,-5.0274,-4.9686,-4.9095,-4.8286,-4.8286,-4.8286,-4.8286,-4.8286,-4.8286,-4.8286,-4.8286,-4.8286,-4.8286,-4.8286,-4.8157,-4.8047,-4.8047,-4.7919,-4.7736,-4.7516,-4.7277,-4.7057,-4.6892,-4.6855,-4.6727,-4.6305,-4.625,-4.6158,-4.592,-4.5883,-4.5828,-4.5682,-4.5645,-4.559,-4.5779,-4.6131,-4.6687,-4.7055,-4.658,-4.6227,-4.6492,-4.576,-4.5407,-4.5645,-4.581,-4.5883,-4.5883,-4.5883,-4.5883,-4.5883,-4.5883,-4.5883,-4.5883,-4.5883,-4.5883,-4.5883,-4.5883,-4.5883,-4.5883,-4.5883,-4.5883,-4.5883,-4.5883,-4.5883,-4.5883,-4.5883,-4.5883,-4.5883,-5.0996,-5.0742,-5.0547,-5.0547,-5.0801,-5.0996,-5.0996,-5.125,-5.1426,-5.1426,-5.1426,-5.1426,-5.1426,-5.1426,-5.1426,-5.1426,-5.1426,-5.1426,-5.1426,-5.1426,-5.1426,-5.1426,-5.1426,-5.1426,-5.1426,-5.1426,-5.1426,-5.1426,-5.1426,-5.1426,-5.1426,-5.1426,-5.1426,-5.1426,-5.1426,-5.1426,-5.1426,-5.1426,-5.1426,-5.1426,-5.1426,-5.1426,-5.1426,-5.1426,-5.1426,-5.1426,-5.1426,-5.1037,-5.0646,-5.0274,-4.947,-4.8484,-4.8286,-4.8286,-4.8286,-4.8286,-4.8286,-4.8286,-4.8286,-4.8286,-4.8286,-4.8286,-4.8286,-4.8286,-4.8286,-4.8286,-4.8212,-4.7919,-4.7644,-4.7424,-4.7295,-4.7277,-4.7149,-4.6727,-4.6654,-4.6562,-4.6287,-4.625,-4.6195,-4.6085,-4.6067,-4.6012,-4.5902,-4.6259,-4.6822,-4.7196,-4.6649,-4.6441,-4.6928,-4.602,-4.5608,-4.5883,-4.5883,-4.5883,-4.5883,-4.5883,-4.5883,-4.5883,-4.5883,-4.5883,-4.5883,-4.5883,-4.5883,-4.5883,-4.5883,-4.5883,-4.5883,-4.5883,-4.5883,-4.5883,-4.5883,-4.5883,-4.5883,-4.5883,-4.5883,-4.5883,-5.1426,-5.1426,-5.1406,-5.1406,-5.1426,-5.1426,-5.1426,-5.1426,-5.1426,-5.1426,-5.1426,-5.1426,-5.1426,-5.1426,-5.1426,-5.1426,-5.1426,-5.1426,-5.1426,-5.1426,-5.1426,-5.1426,-5.1426,-5.1426,-5.1426,-5.1426,-5.1426,-5.1426,-5.1426,-5.1426,-5.1426,-5.1426,-5.1426,-5.1426,-5.1426,-5.1426,-5.1426,-5.1426,-5.1426,-5.1426,-5.1426,-5.1426,-5.1426,-5.1426,-5.1426,-5.1426,-5.1426,-5.1037,-5.0646,-5.0646,-5.0059,-4.9076,-4.8484,-4.8286,-4.8286,-4.8286,-4.8286,-4.8286,-4.8286,-4.8286,-4.8286,-4.8286,-4.8286,-4.8286,-4.8286,-4.8286,-4.8286,-4.8286,-4.8267,-4.8157,-4.7754,-4.7681,-4.7552,-4.7167,-4.7094,-4.7094,-4.7094,-4.7094,-4.6947,-4.6525,-4.647,-4.6324,-4.592,-4.6259,-4.6635,-4.6635,-4.6616,-4.6803,-4.7382,-4.6447,-4.5883,-4.5883,-4.5883,-4.5883,-4.5883,-4.5883,-4.5883,-4.5883,-4.5883,-4.5883,-4.5883,-4.5883,-4.5883,-4.5883,-4.5883,-4.5883,-4.5883,-4.5883,-4.5883,-4.5883,-4.5883,-4.5883,-4.5883,-4.5883,-4.5883,-4.5883,-5.2305,-5.207,-5.1875,-5.1875,-5.1621,-5.1426,-5.1426,-5.1426,-5.1426,-5.1426,-5.1426,-5.1426,-5.1426,-5.1426,-5.1426,-5.1426,-5.1426,-5.1426,-5.1426,-5.1426,-5.1426,-5.1426,-5.1426,-5.1426,-5.1426,-5.1426,-5.1426,-5.1426,-5.1426,-5.1426,-5.1426,-5.1426,-5.1426,-5.1426,-5.1426,-5.1426,-5.1426,-5.1426,-5.1601,-5.1875,-5.1875,-5.2051,-5.2305,-5.2305,-5.2305,-5.2305,-5.2305,-5.2107,-5.2068,-5.1382,-5.0694,-4.9846,-4.917,-4.8682,-4.8286,-4.8286,-4.8286,-4.8286,-4.8286,-4.8286,-4.8286,-4.8286,-4.8286,-4.8286,-4.8286,-4.8286,-4.8286,-4.8286,-4.8286,-4.8249,-4.8121,-4.8102,-4.7974,-4.7571,-4.7516,-4.7406,-4.7149,-4.7112,-4.7057,-4.6929,-4.691,-4.6855,-4.6727,-4.6642,-4.6666,-4.7045,-4.6407,-4.6259,-4.6822,-4.6259,-4.5883,-4.5883,-4.5883,-4.5883,-4.5883,-4.5883,-4.5883,-4.5883,-4.5883,-4.5883,-4.5883,-4.5883,-4.5883,-4.5883,-4.5883,-4.5883,-4.5902,-4.6177,-4.6287,-4.6324,-4.6599,-4.6727,-4.6727,-4.6727,-4.6727,-4.6727,-5.2715,-5.25,-5.2324,-5.2324,-5.209,-5.1914,-5.1914,-5.1914,-5.1914,-5.1914,-5.1914,-5.1855,-5.1699,-5.168,-5.1601,-5.1445,-5.1426,-5.1426,-5.1426,-5.1426,-5.1426,-5.1426,-5.1426,-5.1426,-5.1426,-5.1426,-5.1426,-5.1426,-5.1426,-5.1426,-5.1445,-5.1601,-5.168,-5.168,-5.1836,-5.1914,-5.1914,-5.1914,-5.207,-5.2324,-5.2324,-5.248,-5.2715,-5.2715,-5.2715,-5.2715,-5.2715,-5.2715,-5.2676,-5.2025,-5.1531,-5.0858,-5.0242,-4.9517,-4.8686,-4.8322,-4.8286,-4.8286,-4.8286,-4.8286,-4.8286,-4.8286,-4.8286,-4.8286,-4.8286,-4.8286,-4.8286,-4.8286,-4.8286,-4.8286,-4.8286,-4.8286,-4.8212,-4.7956,-4.7919,-4.7827,-4.7589,-4.7552,-4.7497,-4.7351,-4.7332,-4.7277,-4.713,-4.6874,-4.69,-4.7091,-4.6679,-4.6532,-4.6722,-4.6237,-4.5883,-4.5883,-4.603,-4.6103,-4.6103,-4.6103,-4.6103,-4.6103,-4.5957,-4.5975,-4.6103,-4.6103,-4.6195,-4.6342,-4.6342,-4.6342,-4.636,-4.6617,-4.6709,-4.6745,-4.7002,-4.7112,-4.7112,-4.7112,-4.7112,-4.7112,-5.2793,-5.2773,-5.2754,-5.2754,-5.2734,-5.2715,-5.2715,-5.2715,-5.2715,-5.2715,-5.2715,-5.2558,-5.2168,-5.2129,-5.1973,-5.1562,-5.1465,-5.1426,-5.1426,-5.1426,-5.1426,-5.1426,-5.1465,-5.1484,-5.1484,-5.1504,-5.1523,-5.1523,-5.1523,-5.1523,-5.1523,-5.1933,-5.2129,-5.2148,-5.2539,-5.2715,-5.2715,-5.2715,-5.2734,-5.2754,-5.2754,-5.2773,-5.2793,-5.2793,-5.2793,-5.2793,-5.2793,-5.2793,-5.2793,-5.2773,-5.2355,-5.1897,-5.1493,-5.0545,-4.9636,-4.8613,-4.8286,-4.8286,-4.8286,-4.8286,-4.8286,-4.8286,-4.8286,-4.8286,-4.8286,-4.8286,-4.8286,-4.8286,-4.8286,-4.8286,-4.8286,-4.8286,-4.8286,-4.8286,-4.8286,-4.8286,-4.8286,-4.8286,-4.8157,-4.7791,-4.7736,-4.7589,-4.7222,-4.7167,-4.7149,-4.7149,-4.713,-4.7112,-4.7112,-4.6379,-4.5975,-4.5975,-4.6324,-4.6525,-4.6525,-4.6525,-4.6525,-4.6525,-4.6158,-4.6158,-4.6525,-4.6525,-4.6727,-4.7112,-4.7112,-4.7112,-4.7112,-4.713,-4.7149,-4.7149,-4.7185,-4.7185,-4.7185,-4.7185,-4.7185,-4.7185,-5.3711,-5.3437,-5.3203,-5.3203,-5.293,-5.2715,-5.2715,-5.2715,-5.2715,-5.2715,-5.2715,-5.2676,-5.2578,-5.2558,-5.2519,-5.2422,-5.1816,-5.1426,-5.1426,-5.1426,-5.1426,-5.1426,-5.1758,-5.1933,-5.1933,-5.2246,-5.2402,-5.2402,-5.2402,-5.2402,-5.2402,-5.2519,-5.2558,-5.2558,-5.2656,-5.2715,-5.2715,-5.2715,-5.2891,-5.3203,-5.3203,-5.3418,-5.3711,-5.3711,-5.3711,-5.3711,-5.3711,-5.3711,-5.3672,-5.332,-5.282,-5.2339,-5.1916,-5.1381,-5.0629,-4.93,-4.8682,-4.8286,-4.8286,-4.8286,-4.8286,-4.8286,-4.8286,-4.8286,-4.8286,-4.8286,-4.8286,-4.8286,-4.8286,-4.8286,-4.8286,-4.8286,-4.8286,-4.8286,-4.8286,-4.8286,-4.8286,-4.8286,-4.8249,-4.8157,-4.8139,-4.8102,-4.8011,-4.7736,-4.7552,-4.7552,-4.7277,-4.7112,-4.7112,-4.6929,-4.6819,-4.6819,-4.691,-4.6965,-4.6965,-4.6965,-4.6965,-4.6947,-4.6855,-4.6874,-4.6965,-4.6965,-4.702,-4.7112,-4.7112,-4.7112,-4.713,-4.7424,-4.7552,-4.7589,-4.7882,-4.8011,-4.8011,-4.8011,-4.8011,-4.8011,-5.4431,-5.4031,-5.3672,-5.3672,-5.3476,-5.332,-5.332,-5.332,-5.332,-5.332,-5.332,-5.3242,-5.3027,-5.3008,-5.293,-5.2734,-5.2285,-5.2012,-5.2012,-5.2012,-5.2012,-5.2012,-5.2246,-5.2363,-5.2363,-5.2598,-5.2715,-5.2715,-5.2715,-5.2715,-5.2715,-5.291,-5.3008,-5.3008,-5.3223,-5.332,-5.332,-5.332,-5.3457,-5.3672,-5.3672,-5.3808,-5.4023,-5.4023,-5.4023,-5.4023,-5.4023,-5.4023,-5.3984,-5.375,-5.3469,-5.3188,-5.2762,-5.2224,-5.1687,-5.064,-4.9704,-4.8959,-4.8959,-4.8613,-4.8286,-4.8286,-4.8286,-4.8286,-4.8286,-4.8286,-4.8286,-4.8286,-4.8286,-4.8286,-4.8286,-4.8286,-4.8286,-4.8286,-4.8286,-4.8286,-4.8286,-4.8286,-4.8286,-4.8286,-4.8286,-4.8286,-4.8286,-4.8084,-4.7956,-4.7956,-4.7772,-4.7644,-4.7644,-4.7644,-4.7479,-4.7112,-4.7277,-4.7369,-4.7369,-4.7369,-4.7277,-4.7112,-4.7112,-4.7204,-4.7369,-4.7369,-4.7479,-4.7644,-4.7644,-4.7644,-4.7662,-4.7882,-4.7956,-4.7992,-4.8194,-4.8286,-4.8286,-4.8286,-4.8286,-4.8286,-5.522,-5.4832,-5.4219,-5.4219,-5.418,-5.4141,-5.4141,-5.4082,-5.4023,-5.4023,-5.4023,-5.3887,-5.3496,-5.3457,-5.332,-5.2949,-5.291,-5.2851,-5.2715,-5.2715,-5.2715,-5.2715,-5.2773,-5.2812,-5.2812,-5.2871,-5.291,-5.291,-5.291,-5.291,-5.291,-5.3281,-5.3457,-5.3476,-5.3867,-5.4023,-5.4023,-5.4023,-5.4023,-5.4023,-5.4023,-5.4023,-5.4023,-5.4023,-5.4023,-5.4023,-5.4023,-5.4023,-5.4023,-5.4023,-5.4023,-5.3965,-5.3574,-5.3274,-5.2792,-5.2224,-5.12,-5.0059,-4.9803,-4.9088,-4.8377,-4.8377,-4.8322,-4.8286,-4.8286,-4.8286,-4.8286,-4.8286,-4.8286,-4.8286,-4.8286,-4.8286,-4.8286,-4.8286,-4.8286,-4.8286,-4.8286,-4.8286,-4.8286,-4.8286,-4.8286,-4.8286,-4.8286,-4.8286,-4.8286,-4.8286,-4.8286,-4.8286,-4.8286,-4.8286,-4.7974,-4.7314,-4.7607,-4.7791,-4.7791,-4.7791,-4.7607,-4.7277,-4.7277,-4.7461,-4.7791,-4.7791,-4.7974,-4.8286,-4.8286,-4.8286,-4.8286,-4.8286,-4.8286,-4.8286,-4.8286,-4.8286,-4.8286,-4.8286,-4.8286,-4.8286,-5.7331,-5.6528,-5.5721,-5.5721,-5.5012,-5.459,-5.459,-5.4258,-5.4023,-5.4023,-5.4023,-5.4004,-5.3926,-5.3926,-5.3906,-5.3828,-5.3828,-5.3516,-5.2754,-5.2715,-5.2715,-5.2715,-5.3066,-5.3262,-5.3262,-5.3633,-5.3828,-5.3828,-5.3828,-5.3828,-5.3828,-5.3887,-5.3926,-5.3926,-5.4004,-5.4023,-5.4023,-5.4023,-5.4023,-5.4023,-5.4023,-5.4023,-5.4023,-5.4023,-5.4023,-5.4023,-5.4023,-5.4023,-5.4023,-5.4023,-5.4023,-5.4023,-5.3945,-5.3926,-5.3722,-5.3644,-5.2908,-5.1878,-5.0527,-4.9532,-4.8818,-4.8818,-4.8543,-4.8286,-4.8286,-4.8286,-4.8286,-4.8286,-4.8286,-4.8286,-4.8286,-4.8286,-4.8286,-4.8286,-4.8286,-4.8286,-4.8286,-4.8286,-4.8286,-4.8286,-4.8286,-4.8286,-4.8286,-4.8286,-4.8286,-4.8286,-4.8286,-4.8286,-4.8286,-4.8286,-4.8231,-4.8102,-4.8157,-4.8194,-4.8194,-4.8194,-4.8157,-4.8102,-4.8102,-4.8139,-4.8194,-4.8194,-4.8231,-4.8286,-4.8286,-4.8286,-4.8286,-4.8286,-4.8286,-4.8286,-4.8286,-4.8286,-4.8286,-4.8286,-4.8286,-4.8286,-5.8764,-5.776,-5.6729,-5.6126,-5.576,-5.5435,-5.5019,-5.4844,-5.4707,-5.4707,-5.4707,-5.4629,-5.4414,-5.4375,-5.4277,-5.4043,-5.4023,-5.3867,-5.3457,-5.3418,-5.3418,-5.3418,-5.3613,-5.373,-5.373,-5.3926,-5.4023,-5.4023,-5.4023,-5.4023,-5.4023,-5.4023,-5.416,-5.4375,-5.4375,-5.4512,-5.4707,-5.4707,-5.4707,-5.4726,-5.4726,-5.459,-5.4375,-5.4375,-5.4238,-5.4023,-5.4023,-5.4023,-5.4023,-5.4023,-5.4023,-5.4023,-5.4023,-5.4023,-5.4023,-5.4023,-5.3324,-5.2271,-5.064,-4.9974,-4.9588,-4.8964,-4.8763,-4.8561,-4.8341,-4.8286,-4.8286,-4.8286,-4.8286,-4.8286,-4.8286,-4.8286,-4.8286,-4.8286,-4.8286,-4.8286,-4.8286,-4.8286,-4.8286,-4.8286,-4.8286,-4.8286,-4.8286,-4.8286,-4.8286,-4.8286,-4.8286,-4.8286,-4.8286,-4.8286,-4.8286,-4.8286,-4.8286,-4.8286,-4.8286,-4.8286,-4.8286,-4.8286,-4.8286,-4.8286,-4.8286,-4.8286,-4.8286,-4.8286,-4.8286,-4.8286,-4.8286,-4.8286,-4.8286,-4.8286,-4.8286,-4.8286,-4.8286,-4.8286,-4.8286,-4.8286,-6.0527,-5.9486,-5.8273,-5.7258,-5.6761,-5.6285,-5.5658,-5.5371,-5.5312,-5.5312,-5.5312,-5.5176,-5.4863,-5.4824,-5.4687,-5.4355,-5.4316,-5.4316,-5.4316,-5.4316,-5.4238,-5.4043,-5.4023,-5.4023,-5.4023,-5.4023,-5.4082,-5.418,-5.418,-5.4238,-5.4316,-5.4316,-5.4512,-5.4824,-5.4824,-5.5,-5.5312,-5.5312,-5.5312,-5.5312,-5.5312,-5.5117,-5.4824,-5.4824,-5.4609,-5.4316,-5.4219,-5.418,-5.416,-5.4062,-5.4023,-5.4023,-5.4023,-5.4023,-5.4023,-5.4023,-5.3586,-5.2647,-5.1308,-5.0733,-5.0179,-4.946,-4.9129,-4.8946,-4.8524,-4.8432,-4.8396,-4.8304,-4.8286,-4.8286,-4.8286,-4.8286,-4.8286,-4.8286,-4.8286,-4.8286,-4.8286,-4.8286,-4.8286,-4.8286,-4.8286,-4.8286,-4.8286,-4.8286,-4.8286,-4.8286,-4.8286,-4.8286,-4.8286,-4.8286,-4.8286,-4.8286,-4.8286,-4.8286,-4.8286,-4.8286,-4.8286,-4.8286,-4.8286,-4.8286,-4.8286,-4.8286,-4.8286,-4.8286,-4.8286,-4.8286,-4.8286,-4.8286,-4.8286,-4.8286,-4.8286,-4.8286,-4.8286,-4.8286,-4.8286,-4.8286,-6.3171,-6.2124,-6.1071,-5.9885,-5.847,-5.737,-5.6741,-5.5986,-5.5312,-5.5312,-5.5312,-5.5293,-5.5254,-5.5254,-5.5254,-5.5215,-5.5215,-5.5215,-5.5215,-5.5215,-5.4863,-5.4062,-5.4023,-5.4023,-5.4023,-5.4023,-5.4219,-5.4629,-5.4629,-5.4824,-5.5215,-5.5215,-5.5234,-5.5254,-5.5254,-5.5273,-5.5312,-5.5312,-5.5312,-5.5312,-5.5312,-5.5293,-5.5254,-5.5254,-5.5234,-5.5156,-5.4765,-5.4629,-5.457,-5.416,-5.4023,-5.4023,-5.4023,-5.4023,-5.4023,-5.4023,-5.4004,-5.3761,-5.3109,-5.1984,-5.0866,-5.0847,-5.0142,-4.9349,-4.8964,-4.8873,-4.8763,-4.8359,-4.8286,-4.8286,-4.8286,-4.8286,-4.8286,-4.8286,-4.8286,-4.8286,-4.8286,-4.8286,-4.8286,-4.8286,-4.8286,-4.8286,-4.8286,-4.8286,-4.8286,-4.8286,-4.8286,-4.8286,-4.8286,-4.8286,-4.8286,-4.8286,-4.8286,-4.8286,-4.8286,-4.8286,-4.8286,-4.8286,-4.8286,-4.8286,-4.8286,-4.8286,-4.8286,-4.8286,-4.8286,-4.8286,-4.8286,-4.8286,-4.8286,-4.8286,-4.8286,-4.8286,-4.8286,-4.8286,-4.8286,-4.8286,-6.3871,-6.3259,-6.2026,-6.0407,-5.9425,-5.8673,-5.7389,-5.6827,-5.6517,-5.6094,-5.6094,-5.5996,-5.5723,-5.5703,-5.5586,-5.5332,-5.5312,-5.5312,-5.5312,-5.5312,-5.5156,-5.4844,-5.4824,-5.4824,-5.4824,-5.4824,-5.4902,-5.5058,-5.5058,-5.5156,-5.5312,-5.5312,-5.5449,-5.5703,-5.5703,-5.584,-5.6094,-5.6094,-5.6094,-5.6094,-5.6094,-5.5937,-5.5703,-5.5703,-5.5527,-5.5293,-5.5117,-5.5058,-5.5,-5.457,-5.4433,-5.4394,-5.4121,-5.4023,-5.4023,-5.4023,-5.4023,-5.4023,-5.3819,-5.2884,-5.1669,-5.0996,-5.0401,-4.979,-4.9368,-4.9276,-4.9166,-4.8763,-4.8671,-4.8598,-4.8341,-4.8286,-4.8286,-4.8286,-4.8286,-4.8286,-4.8286,-4.8286,-4.8286,-4.8286,-4.8286,-4.8286,-4.8286,-4.8286,-4.8286,-4.8286,-4.8286,-4.8286,-4.8286,-4.8286,-4.8286,-4.8286,-4.8286,-4.8286,-4.8286,-4.8286,-4.8286,-4.8286,-4.8286,-4.8286,-4.8286,-4.8286,-4.8286,-4.8286,-4.8286,-4.8286,-4.8286,-4.8286,-4.8286,-4.8286,-4.8286,-4.8286,-4.8286,-4.8286,-4.8286,-4.8286,-6.4886,-6.4278,-6.3485,-6.1426,-6.0803,-5.9968,-5.8284,-5.7628,-5.7222,-5.6582,-5.6582,-5.6465,-5.6172,-5.6133,-5.6015,-5.5723,-5.5703,-5.5703,-5.5703,-5.5703,-5.5586,-5.5312,-5.5312,-5.5312,-5.5312,-5.5312,-5.5371,-5.5508,-5.5508,-5.5566,-5.5703,-5.5703,-5.5859,-5.6133,-5.6133,-5.6308,-5.6582,-5.6582,-5.6582,-5.6582,-5.6582,-5.6406,-5.6133,-5.6133,-5.5957,-5.5683,-5.5547,-5.5508,-5.5449,-5.5019,-5.4883,-5.4824,-5.4531,-5.4336,-5.4199,-5.4062,-5.4023,-5.4023,-5.4023,-5.3205,-5.2306,-5.1612,-5.0921,-5.0399,-4.979,-4.9698,-4.9588,-4.9184,-4.9093,-4.9001,-4.8726,-4.8561,-4.8487,-4.8487,-4.8359,-4.8286,-4.8286,-4.8286,-4.8286,-4.8286,-4.8286,-4.8286,-4.8286,-4.8286,-4.8286,-4.8286,-4.8286,-4.8286,-4.8286,-4.8286,-4.8286,-4.8286,-4.8286,-4.8286,-4.8286,-4.8286,-4.8286,-4.8286,-4.8286,-4.8286,-4.8286,-4.8286,-4.8286,-4.8286,-4.8286,-4.8286,-4.8286,-4.8286,-4.8286,-4.8286,-4.8286,-4.8286,-4.8286,-4.8286,-4.8286,-4.8286,-6.5893,-6.5692,-6.5289,-6.3689,-6.2416,-6.0969,-5.9338,-5.8072,-5.7222,-5.6582,-5.6582,-5.6582,-5.6582,-5.6582,-5.6582,-5.6582,-5.6582,-5.6582,-5.6582,-5.6601,-5.6211,-5.5371,-5.5332,-5.5332,-5.5332,-5.5332,-5.5527,-5.5957,-5.5957,-5.6172,-5.6601,-5.6601,-5.6601,-5.6601,-5.6601,-5.6601,-5.6601,-5.6601,-5.6601,-5.6601,-5.6601,-5.6601,-5.6582,-5.6582,-5.6582,-5.6523,-5.6094,-5.5937,-5.5879,-5.5449,-5.5312,-5.5312,-5.5312,-5.5019,-5.459,-5.416,-5.4043,-5.4043,-5.4023,-5.3205,-5.2382,-5.2382,-5.195,-5.1218,-5.023,-5.0138,-5.001,-4.9588,-4.9514,-4.9514,-4.9496,-4.9184,-4.8909,-4.8909,-4.8561,-4.8286,-4.8286,-4.8286,-4.8286,-4.8286,-4.8286,-4.8286,-4.8286,-4.8286,-4.8286,-4.8286,-4.8286,-4.8286,-4.8286,-4.8286,-4.8286,-4.8286,-4.8286,-4.8286,-4.8286,-4.8286,-4.8286,-4.8286,-4.8286,-4.8286,-4.8286,-4.8286,-4.8286,-4.8286,-4.8286,-4.8286,-4.8286,-4.8286,-4.8286,-4.8286,-4.8286,-4.8286,-4.8286,-4.8286,-4.8286,-4.8286,-6.5893,-6.6093,-6.5692,-6.4075,-6.3259,-6.2232,-6.0574,-5.9318,-5.8284,-5.7222,-5.6796,-5.6582,-5.6582,-5.6582,-5.6582,-5.6582,-5.6582,-5.6719,-5.7012,-5.7305,-5.7363,-5.7109,-5.6797,-5.664,-5.664,-5.6953,-5.7168,-5.7285,-5.7285,-5.7363,-5.748,-5.748,-5.748,-5.748,-5.748,-5.748,-5.748,-5.748,-5.748,-5.748,-5.748,-5.7305,-5.7031,-5.7031,-5.6836,-5.6562,-5.6445,-5.6387,-5.6328,-5.5898,-5.5742,-5.5703,-5.539,-5.5215,-5.5039,-5.4609,-5.4492,-5.4414,-5.4121,-5.341,-5.2794,-5.2588,-5.1762,-5.0896,-5.056,-5.0541,-5.0431,-5.0028,-4.9936,-4.9845,-4.9551,-4.9404,-4.9331,-4.9331,-4.9221,-4.9038,-4.8763,-4.8726,-4.8616,-4.8322,-4.8286,-4.8286,-4.8286,-4.8286,-4.8286,-4.8286,-4.8286,-4.8286,-4.8286,-4.8286,-4.8286,-4.8286,-4.8286,-4.8286,-4.8286,-4.8286,-4.8286,-4.8286,-4.8286,-4.8286,-4.8286,-4.8286,-4.8286,-4.8286,-4.8286,-4.8286,-4.8286,-4.8286,-4.8286,-4.8286,-4.8286,-4.8286,-4.8286,-4.8286,-4.8286,-4.8286,-6.6162,-6.6316,-6.6093,-6.4886,-6.4075,-6.3119,-6.1638,-6.0426,-5.9222,-5.8145,-5.7736,-5.7305,-5.709,-5.709,-5.709,-5.709,-5.709,-5.7207,-5.7461,-5.7715,-5.7871,-5.7871,-5.7793,-5.7656,-5.748,-5.7734,-5.7871,-5.7871,-5.7871,-5.7871,-5.7871,-5.7871,-5.7871,-5.7871,-5.7871,-5.7871,-5.7871,-5.7871,-5.7871,-5.7871,-5.7871,-5.7695,-5.748,-5.748,-5.7305,-5.707,-5.6894,-5.6836,-5.6758,-5.6328,-5.6191,-5.6113,-5.5683,-5.5566,-5.5469,-5.5058,-5.4805,-5.4629,-5.4355,-5.3731,-5.298,-5.2588,-5.1744,-5.0914,-5.0725,-5.0725,-5.0651,-5.0413,-5.0358,-5.0285,-5.0028,-4.9863,-4.9753,-4.9753,-4.9606,-4.9423,-4.9184,-4.9148,-4.9056,-4.8799,-4.8634,-4.8524,-4.8524,-4.8377,-4.8286,-4.8286,-4.8286,-4.8286,-4.8286,-4.8286,-4.8286,-4.8286,-4.8286,-4.8286,-4.8286,-4.8286,-4.8286,-4.8286,-4.8286,-4.8286,-4.8286,-4.8286,-4.8286,-4.8286,-4.8286,-4.8286,-4.8286,-4.8286,-4.8286,-4.8286,-4.8286,-4.8286,-4.8286,-4.8286,-4.8286,-4.8286,-6.6746,-6.6654,-6.6453,-6.5828,-6.4817,-6.3931,-6.2689,-6.1516,-6.0412,-5.9118,-5.8961,-5.8526,-5.7871,-5.7871,-5.7871,-5.7871,-5.791,-5.791,-5.791,-5.7969,-5.7988,-5.7988,-5.8379,-5.8418,-5.7988,-5.7988,-5.7988,-5.7988,-5.7988,-5.7988,-5.7988,-5.7988,-5.7988,-5.7988,-5.7988,-5.7988,-5.7988,-5.7988,-5.7988,-5.7988,-5.7988,-5.7969,-5.791,-5.791,-5.791,-5.7812,-5.7422,-5.7246,-5.7148,-5.6719,-5.6582,-5.6523,-5.6113,-5.5996,-5.5898,-5.5488,-5.5098,-5.4785,-5.4746,-5.4002,-5.3038,-5.2645,-5.1988,-5.1311,-5.0914,-5.0725,-5.0725,-5.0725,-5.0725,-5.0725,-5.0725,-5.0431,-5.0175,-5.0175,-4.9863,-4.9588,-4.9569,-4.9551,-4.9551,-4.9514,-4.9184,-4.8964,-4.8964,-4.8579,-4.8322,-4.8286,-4.8286,-4.8286,-4.8286,-4.8286,-4.8286,-4.8286,-4.8286,-4.8286,-4.8286,-4.8286,-4.8286,-4.8286,-4.8286,-4.8286,-4.8286,-4.8286,-4.8286,-4.8286,-4.8286,-4.8286,-4.8286,-4.8286,-4.8286,-4.8286,-4.8286,-4.8286,-4.8286,-4.8286,-4.8286,-4.8286,-6.7303,-6.7484,-6.728,-6.6439,-6.5639,-6.504,-6.4295,-6.2867,-6.1423,-6.0219,-5.9375,-5.8526,-5.7871,-5.7871,-5.7871,-5.7871,-5.8203,-5.8379,-5.8379,-5.8711,-5.8906,-5.8906,-5.9004,-5.9004,-5.8906,-5.8906,-5.8906,-5.8906,-5.8906,-5.8906,-5.8906,-5.8906,-5.8906,-5.8906,-5.8906,-5.8906,-5.8906,-5.8906,-5.8906,-5.8906,-5.8906,-5.8711,-5.8379,-5.8379,-5.8144,-5.7851,-5.7754,-5.75,-5.7148,-5.6719,-5.6582,-5.6562,-5.6465,-5.6445,-5.6367,-5.5918,-5.5742,-5.5586,-5.5254,-5.4429,-5.3666,-5.3459,-5.259,-5.1311,-5.0914,-5.0725,-5.0725,-5.0725,-5.0725,-5.0725,-5.0725,-5.0651,-5.0596,-5.0596,-5.0523,-5.034,-5.0028,-4.9991,-4.9881,-4.9533,-4.9423,-4.9368,-4.9368,-4.9019,-4.8634,-4.8304,-4.8286,-4.8286,-4.8286,-4.8286,-4.8286,-4.8286,-4.8286,-4.8286,-4.8286,-4.8286,-4.8286,-4.8286,-4.8286,-4.8286,-4.8286,-4.8286,-4.8286,-4.8286,-4.8286,-4.8286,-4.8286,-4.8286,-4.8286,-4.8286,-4.8286,-4.8286,-4.8286,-4.8286,-4.8286,-4.8286,-6.744,-6.6983,-6.6571,-6.595,-6.5327,-6.4766,-6.4585,-6.3357,-6.2158,-6.1264,-6.0235,-5.9578,-5.8697,-5.8496,-5.8496,-5.8496,-5.8711,-5.8828,-5.8828,-5.9062,-5.918,-5.918,-5.918,-5.918,-5.918,-5.918,-5.918,-5.918,-5.918,-5.918,-5.918,-5.918,-5.918,-5.918,-5.918,-5.918,-5.918,-5.918,-5.918,-5.918,-5.918,-5.9062,-5.8828,-5.8828,-5.8711,-5.8496,-5.8262,-5.791,-5.7461,-5.7031,-5.6875,-5.6855,-5.664,-5.6582,-5.6543,-5.6308,-5.6094,-5.5879,-5.5664,-5.5084,-5.4487,-5.3859,-5.3214,-5.2383,-5.1367,-5.0914,-5.0725,-5.0725,-5.0725,-5.0725,-5.0725,-5.0725,-5.0725,-5.0725,-5.0725,-5.0651,-5.045,-5.0413,-5.034,-5.012,-4.9918,-4.9716,-4.9514,-4.9148,-4.8818,-4.8598,-4.8396,-4.8286,-4.8286,-4.8286,-4.8286,-4.8286,-4.8286,-4.8286,-4.8286,-4.8286,-4.8286,-4.8286,-4.8286,-4.8286,-4.8286,-4.8286,-4.8286,-4.8286,-4.8286,-4.8286,-4.8286,-4.8286,-4.8286,-4.8286,-4.8286,-4.8286,-4.8286,-4.8286,-4.8286,-4.8286,-6.7529,-6.6633,-6.58,-6.58,-6.473,-6.4227,-6.4637,-6.361,-6.2462,-6.194,-6.112,-6.0234,-5.9383,-5.918,-5.918,-5.918,-5.918,-5.918,-5.918,-5.918,-5.918,-5.918,-5.918,-5.918,-5.918,-5.918,-5.918,-5.918,-5.918,-5.918,-5.918,-5.918,-5.918,-5.918,-5.918,-5.918,-5.918,-5.918,-5.918,-5.918,-5.918,-5.918,-5.918,-5.918,-5.918,-5.9121,-5.8769,-5.8359,-5.791,-5.7383,-5.7207,-5.7129,-5.6719,-5.6582,-5.6582,-5.6582,-5.6328,-5.6055,-5.6055,-5.5742,-5.5103,-5.4317,-5.3916,-5.3498,-5.212,-5.1367,-5.0706,-5.0725,-5.0725,-5.0725,-5.0725,-5.0725,-5.0725,-5.0725,-5.0725,-5.0725,-5.0725,-5.0725,-5.0725,-5.0725,-5.0431,-5.0065,-4.9643,-4.9313,-4.9093,-4.9019,-4.8634,-4.8396,-4.8396,-4.8322,-4.8286,-4.8286,-4.8286,-4.8286,-4.8286,-4.8286,-4.8286,-4.8286,-4.8286,-4.8286,-4.8286,-4.8286,-4.8286,-4.8286,-4.8286,-4.8286,-4.8286,-4.8286,-4.8286,-4.8286,-4.8286,-4.8286,-4.8286,-4.8286,-4.8286,-4.8286,-6.8505,-6.8085,-6.7453,-6.6818,-6.5754,-6.5154,-6.5219,-6.3686,-6.2398,-6.1981,-6.0899,-5.981,-5.9199,-5.918,-5.918,-5.918,-5.918,-5.918,-5.918,-5.918,-5.918,-5.918,-5.918,-5.918,-5.918,-5.918,-5.918,-5.918,-5.918,-5.918,-5.918,-5.918,-5.918,-5.918,-5.918,-5.918,-5.918,-5.918,-5.918,-5.918,-5.918,-5.918,-5.918,-5.918,-5.918,-5.918,-5.9121,-5.8828,-5.8301,-5.748,-5.7207,-5.7129,-5.6719,-5.6582,-5.6582,-5.6582,-5.6543,-5.6504,-5.6504,-5.6172,-5.584,-5.557,-5.4778,-5.3801,-5.3517,-5.2402,-5.133,-5.0725,-5.0725,-5.0725,-5.0725,-5.0725,-5.0725,-5.0725,-5.0725,-5.0725,-5.0725,-5.0725,-5.0725,-5.0725,-5.067,-5.0486,-5.0083,-4.9991,-4.9808,-4.9441,-4.9056,-4.8836,-4.8836,-4.8487,-4.8286,-4.8286,-4.8286,-4.8286,-4.8286,-4.8286,-4.8286,-4.8286,-4.8286,-4.8286,-4.8286,-4.8286,-4.8286,-4.8286,-4.8286,-4.8286,-4.8286,-4.8286,-4.8286,-4.8286,-4.8286,-4.8286,-4.8286,-4.8286,-4.8286,-4.8286,-6.8077,-6.723,-6.6378,-6.6142,-6.4853,-6.377,-6.377,-6.2659,-6.1602,-6.1341,-6.0476,-5.9829,-5.9199,-5.918,-5.918,-5.918,-5.918,-5.918,-5.918,-5.918,-5.918,-5.918,-5.918,-5.918,-5.918,-5.918,-5.918,-5.918,-5.918,-5.918,-5.918,-5.918,-5.918,-5.918,-5.918,-5.918,-5.918,-5.918,-5.918,-5.918,-5.918,-5.918,-5.918,-5.918,-5.918,-5.918,-5.918,-5.9062,-5.8769,-5.8183,-5.7793,-5.75,-5.707,-5.6777,-5.6582,-5.6582,-5.6582,-5.6582,-5.6582,-5.6445,-5.625,-5.5996,-5.5434,-5.4874,-5.4205,-5.3405,-5.2421,-5.1367,-5.0914,-5.0725,-5.0725,-5.0725,-5.0725,-5.0725,-5.0725,-5.0725,-5.0725,-5.0725,-5.0725,-5.0725,-5.0725,-5.0651,-5.0486,-5.0266,-5.0046,-4.9863,-4.9478,-4.9148,-4.8928,-4.8726,-4.8524,-4.8286,-4.8286,-4.8286,-4.8286,-4.8286,-4.8286,-4.8286,-4.8286,-4.8286,-4.8286,-4.8286,-4.8286,-4.8286,-4.8286,-4.8286,-4.8286,-4.8286,-4.8286,-4.8286,-4.8286,-4.8286,-4.8286,-4.8286,-4.8286,-4.8286]}]]